| time (UTC) | temp C | wind direction | speed KPH | gust KPH | rain 1hr cm | rain 24hr cm | rain mn cm | humidity % | barometer mb |
| 20260510225759 | 25 | 141 | 0.0 | 0.0 | 0.00 | 0.00 | 0.00 | 41 | 1015.9 |
| 20260510225720 | 25 | 141 | 0.0 | 0.0 | 0.00 | 0.00 | 0.00 | 40 | 1016.0 |
| 20260510225559 | 25 | 140 | 0.0 | 0.0 | 0.00 | 0.00 | 0.00 | 40 | 1015.9 |
| 20260510225500 | 26 | 142 | 0.0 | 0.0 | 0.00 | 0.00 | 0.00 | 42 | 1015.9 |
| 20260510225345 | 26 | 140 | 0.0 | 0.0 | 0.00 | 0.00 | 0.00 | 41 | 1015.9 |
| 20260510225246 | 26 | 140 | 0.0 | 0.0 | 0.00 | 0.00 | 0.00 | 40 | 1016.0 |
| 20260510225146 | 26 | 135 | 0.0 | 0.0 | 0.00 | 0.00 | 0.00 | 44 | 1016.0 |
| 20260510225044 | 26 | 135 | 0.0 | 0.0 | 0.00 | 0.00 | 0.00 | 43 | 1016.0 |
| 20260510224944 | 26 | 135 | 0.0 | 0.0 | 0.00 | 0.00 | 0.00 | 42 | 1016.0 |
| 20260510224844 | 26 | 135 | 0.0 | 0.0 | 0.00 | 0.00 | 0.00 | 42 | 1016.0 |
| 20260510224745 | 26 | 135 | 0.0 | 0.0 | 0.00 | 0.00 | 0.00 | 42 | 1016.0 |
| 20260510224708 | 26 | 135 | 0.0 | 0.0 | 0.00 | 0.00 | 0.00 | 42 | 1016.0 |
| 20260510224603 | 26 | 135 | 0.0 | 0.0 | 0.00 | 0.00 | 0.00 | 42 | 1015.2 |
| 20260510224540 | 26 | 134 | 0.0 | 0.0 | 0.00 | 0.00 | 0.00 | 42 | 1016.0 |
| 20260510224442 | 26 | 134 | 0.0 | 0.0 | 0.00 | 0.00 | 0.00 | 41 | 1016.0 |
| 20260510224342 | 26 | 130 | 0.0 | 0.0 | 0.00 | 0.00 | 0.00 | 41 | 1016.0 |
| 20260510224243 | 26 | 130 | 0.0 | 0.0 | 0.00 | 0.00 | 0.00 | 40 | 1015.9 |
| 20260510224145 | 26 | 130 | 0.0 | 0.0 | 0.00 | 0.00 | 0.00 | 39 | 1016.0 |
| 20260510224050 | 26 | 130 | 0.0 | 0.0 | 0.00 | 0.00 | 0.00 | 40 | 1016.0 |
| 20260510223950 | 26 | 130 | 0.0 | 0.0 | 0.00 | 0.00 | 0.00 | 39 | 1016.0 |
| 20260510223911 | 26 | 87 | 0.0 | 0.0 | 0.00 | 0.00 | 0.00 | 39 | 1016.0 |
| 20260510223750 | 26 | 87 | 0.0 | 0.0 | 0.00 | 0.00 | 0.00 | 40 | 1015.9 |
| 20260510223708 | 26 | 87 | 0.0 | 0.0 | 0.00 | 0.00 | 0.00 | 38 | 1016.0 |
| 20260510223540 | 26 | 219 | 0.0 | 0.0 | 0.00 | 0.00 | 0.00 | 41 | 1016.0 |
| 20260510223501 | 26 | 220 | 0.0 | 0.0 | 0.00 | 0.00 | 0.00 | 42 | 1015.9 |
| 20260510223344 | 26 | 178 | 0.0 | 0.0 | 0.00 | 0.00 | 0.00 | 40 | 1015.9 |
| 20260510223245 | 26 | 179 | 0.0 | 0.0 | 0.00 | 0.00 | 0.00 | 43 | 1015.9 |
| 20260510223205 | 26 | 179 | 0.0 | 0.0 | 0.00 | 0.00 | 0.00 | 42 | 1016.0 |
| 20260510223044 | 26 | 179 | 0.0 | 0.0 | 0.00 | 0.00 | 0.00 | 41 | 1016.0 |
| 20260510223004 | 26 | 179 | 0.0 | 0.0 | 0.00 | 0.00 | 0.00 | 41 | 1015.2 |
| 20260510222946 | 26 | 179 | 0.0 | 0.0 | 0.00 | 0.00 | 0.00 | 41 | 1016.0 |
| 20260510222846 | 26 | 179 | 0.0 | 0.0 | 0.00 | 0.00 | 0.00 | 41 | 1016.0 |
| 20260510222746 | 26 | 179 | 0.0 | 0.0 | 0.00 | 0.00 | 0.00 | 43 | 1015.9 |
| 20260510222652 | 26 | 179 | 0.0 | 0.0 | 0.00 | 0.00 | 0.00 | 42 | 1015.9 |
| 20260510222552 | 26 | 179 | 0.0 | 0.0 | 0.00 | 0.00 | 0.00 | 39 | 1015.9 |
| 20260510222454 | 26 | 179 | 0.0 | 0.0 | 0.00 | 0.00 | 0.00 | 37 | 1015.9 |
| 20260510222355 | 26 | 179 | 0.0 | 0.0 | 0.00 | 0.00 | 0.00 | 37 | 1015.9 |
| 20260510222256 | 27 | 179 | 0.0 | 0.0 | 0.00 | 0.00 | 0.00 | 39 | 1015.9 |
| 20260510222157 | 27 | 174 | 0.0 | 0.0 | 0.00 | 0.00 | 0.00 | 41 | 1015.9 |
| 20260510222042 | 27 | 174 | 0.0 | 0.0 | 0.00 | 0.00 | 0.00 | 37 | 1015.8 |
| 20260510221942 | 27 | 174 | 0.0 | 0.0 | 0.00 | 0.00 | 0.00 | 39 | 1015.9 |
| 20260510221844 | 27 | 174 | 0.0 | 0.0 | 0.00 | 0.00 | 0.00 | 39 | 1015.9 |
| 20260510221744 | 27 | 174 | 0.0 | 0.0 | 0.00 | 0.00 | 0.00 | 39 | 1015.8 |
| 20260510221642 | 27 | 174 | 0.0 | 0.0 | 0.00 | 0.00 | 0.00 | 38 | 1015.8 |
| 20260510221630 | 27 | 174 | 0.0 | 0.0 | 0.00 | 0.00 | 0.00 | 38 | 1015.1 |
| 20260510221602 | 27 | 174 | 0.0 | 0.0 | 0.00 | 0.00 | 0.00 | 38 | 1015.8 |
| 20260510221442 | 27 | 174 | 0.0 | 0.0 | 0.00 | 0.00 | 0.00 | 38 | 1015.8 |
| 20260510221347 | 27 | 174 | 0.0 | 0.0 | 0.00 | 0.00 | 0.00 | 36 | 1015.8 |
| 20260510221308 | 27 | 175 | 0.0 | 0.0 | 0.00 | 0.00 | 0.00 | 40 | 1015.8 |
| 20260510221148 | 27 | 106 | 0.0 | 0.0 | 0.00 | 0.00 | 0.00 | 38 | 1015.8 |
| 20260510221049 | 27 | 106 | 0.0 | 0.0 | 0.00 | 0.00 | 0.00 | 36 | 1015.8 |
| 20260510220949 | 27 | 106 | 0.0 | 0.0 | 0.00 | 0.00 | 0.00 | 36 | 1015.8 |
| 20260510220848 | 27 | 106 | 0.0 | 0.0 | 0.00 | 0.00 | 0.00 | 36 | 1015.8 |
| 20260510220809 | 27 | 106 | 0.0 | 0.0 | 0.00 | 0.00 | 0.00 | 40 | 1015.7 |
| 20260510220648 | 27 | 106 | 0.0 | 0.0 | 0.00 | 0.00 | 0.00 | 41 | 1015.7 |
| 20260510220552 | 28 | 105 | 0.0 | 0.0 | 0.00 | 0.00 | 0.00 | 41 | 1015.8 |
| 20260510220454 | 28 | 105 | 0.0 | 0.0 | 0.00 | 0.00 | 0.00 | 39 | 1015.8 |
| 20260510220354 | 28 | 105 | 0.0 | 0.0 | 0.00 | 0.00 | 0.00 | 39 | 1015.8 |
| 20260510220318 | 28 | 105 | 0.0 | 0.0 | 0.00 | 0.00 | 0.00 | 37 | 1015.8 |
| 20260510220223 | 28 | 105 | 0.0 | 0.0 | 0.00 | 0.00 | 0.00 | 37 | 1015.8 |
| 20260510215951 | 27 | 105 | 0.0 | 0.0 | 0.00 | 0.00 | 0.00 | 36 | 1015.8 |
| 20260510215854 | 27 | 105 | 0.0 | 0.0 | 0.00 | 0.00 | 0.00 | 36 | 1015.8 |
| 20260510215756 | 27 | 105 | 0.0 | 0.0 | 0.00 | 0.00 | 0.00 | 35 | 1015.8 |
| 20260510215656 | 27 | 105 | 0.0 | 0.0 | 0.00 | 0.00 | 0.00 | 35 | 1015.8 |
| 20260510215558 | 27 | 105 | 0.0 | 0.0 | 0.00 | 0.00 | 0.00 | 34 | 1015.9 |
| 20260510215459 | 27 | 108 | 0.0 | 0.0 | 0.00 | 0.00 | 0.00 | 34 | 1015.9 |
| 20260510215400 | 27 | 108 | 0.0 | 0.0 | 0.00 | 0.00 | 0.00 | 33 | 1015.9 |
| 20260510215306 | 27 | 111 | 0.0 | 0.0 | 0.00 | 0.00 | 0.00 | 33 | 1015.9 |
| 20260510215143 | 27 | 111 | 0.0 | 0.0 | 0.00 | 0.00 | 0.00 | 33 | 1015.8 |
| 20260510215043 | 27 | 270 | 0.0 | 0.0 | 0.00 | 0.00 | 0.00 | 33 | 1015.9 |
| 20260510214942 | 27 | 270 | 0.0 | 0.0 | 0.00 | 0.00 | 0.00 | 34 | 1015.8 |
| 20260510214843 | 27 | 270 | 0.0 | 0.0 | 0.00 | 0.00 | 0.00 | 37 | 1015.8 |
| 20260510214743 | 27 | 273 | 0.0 | 0.0 | 0.00 | 0.00 | 0.00 | 35 | 1015.8 |
| 20260510214644 | 27 | 273 | 0.0 | 0.0 | 0.00 | 0.00 | 0.00 | 35 | 1015.8 |
| 20260510214549 | 27 | 273 | 0.0 | 0.0 | 0.00 | 0.00 | 0.00 | 36 | 1015.8 |
| 20260510214512 | 27 | 273 | 0.0 | 0.0 | 0.00 | 0.00 | 0.00 | 35 | 1015.0 |
| 20260510214451 | 27 | 273 | 0.0 | 0.0 | 0.00 | 0.00 | 0.00 | 35 | 1015.8 |
| 20260510214352 | 27 | 116 | 0.0 | 0.0 | 0.00 | 0.00 | 0.00 | 36 | 1015.8 |
| 20260510214253 | 27 | 116 | 0.0 | 0.0 | 0.00 | 0.00 | 0.00 | 37 | 1015.8 |
| 20260510214153 | 27 | 116 | 0.0 | 0.0 | 0.00 | 0.00 | 0.00 | 36 | 1015.8 |
| 20260510214055 | 27 | 116 | 0.0 | 0.0 | 0.00 | 0.00 | 0.00 | 35 | 1015.8 |
| 20260510214015 | 27 | 116 | 0.0 | 0.0 | 0.00 | 0.00 | 0.00 | 34 | 1015.8 |
| 20260510213900 | 27 | 116 | 0.0 | 0.0 | 0.00 | 0.00 | 0.00 | 35 | 1015.9 |
| 20260510213800 | 27 | 141 | 0.0 | 0.0 | 0.00 | 0.00 | 0.00 | 37 | 1015.9 |
| 20260510213641 | 27 | 140 | 0.0 | 0.0 | 0.00 | 0.00 | 0.00 | 35 | 1015.8 |
| 20260510213541 | 27 | 317 | 0.0 | 0.0 | 0.00 | 0.00 | 0.00 | 35 | 1015.9 |
| 20260510213443 | 27 | 225 | 0.0 | 0.0 | 0.00 | 0.00 | 0.00 | 35 | 1015.8 |
| 20260510213403 | 27 | 225 | 0.0 | 0.0 | 0.00 | 0.00 | 0.00 | 35 | 1015.8 |
| 20260510213243 | 27 | 229 | 0.0 | 0.0 | 0.00 | 0.00 | 0.00 | 33 | 1015.8 |
| 20260510213207 | 27 | 229 | 0.0 | 0.0 | 0.00 | 0.00 | 0.00 | 33 | 1015.9 |
| 20260510213119 | 27 | 229 | 0.0 | 0.0 | 0.00 | 0.00 | 0.00 | 33 | 1015.1 |
| 20260510213106 | 27 | 159 | 0.0 | 0.0 | 0.00 | 0.00 | 0.00 | 33 | 1015.8 |
| 20260510212945 | 27 | 159 | 0.0 | 0.0 | 0.00 | 0.00 | 0.00 | 32 | 1015.8 |
| 20260510212846 | 27 | 159 | 0.0 | 0.0 | 0.00 | 0.00 | 0.00 | 32 | 1015.8 |
| 20260510212746 | 27 | 160 | 0.0 | 0.0 | 0.00 | 0.00 | 0.00 | 32 | 1015.8 |
| 20260510212646 | 28 | 160 | 0.0 | 0.0 | 0.00 | 0.00 | 0.00 | 35 | 1015.8 |
| 20260510212607 | 28 | 160 | 0.0 | 0.0 | 0.00 | 0.00 | 0.00 | 34 | 1015.8 |
| 20260510212505 | 28 | 159 | 0.0 | 0.0 | 0.00 | 0.00 | 0.00 | 36 | 1015.7 |
| 20260510212348 | 28 | 115 | 0.0 | 0.0 | 0.00 | 0.00 | 0.00 | 34 | 1015.8 |
| 20260510212250 | 28 | 115 | 0.0 | 0.0 | 0.00 | 0.00 | 0.00 | 34 | 1015.8 |
| 20260510212210 | 28 | 115 | 0.0 | 0.0 | 0.00 | 0.00 | 0.00 | 35 | 1015.8 |
| 20260510212049 | 27 | 115 | 0.0 | 0.0 | 0.00 | 0.00 | 0.00 | 36 | 1015.8 |
| 20260510211950 | 27 | 115 | 0.0 | 0.0 | 0.00 | 0.00 | 0.00 | 34 | 1015.8 |
| 20260510211851 | 27 | 117 | 0.0 | 0.0 | 0.00 | 0.00 | 0.00 | 34 | 1015.8 |
| 20260510211751 | 27 | 118 | 0.0 | 0.0 | 0.00 | 0.00 | 0.00 | 35 | 1015.8 |
| 20260510211657 | 27 | 118 | 0.0 | 0.0 | 0.00 | 0.00 | 0.00 | 34 | 1015.8 |
| 20260510211558 | 27 | 360 | 0.0 | 0.0 | 0.00 | 0.00 | 0.00 | 38 | 1015.8 |
| 20260510211529 | 27 | 360 | 0.0 | 0.0 | 0.00 | 0.00 | 0.00 | 37 | 1015.1 |
| 20260510211458 | 27 | 360 | 0.0 | 0.0 | 0.00 | 0.00 | 0.00 | 37 | 1015.8 |
| 20260510211358 | 27 | 360 | 0.0 | 0.0 | 0.00 | 0.00 | 0.00 | 35 | 1015.7 |
| 20260510211259 | 27 | 360 | 0.0 | 0.0 | 0.00 | 0.00 | 0.00 | 36 | 1015.8 |
| 20260510211159 | 27 | 140 | 0.0 | 0.0 | 0.00 | 0.00 | 0.00 | 36 | 1015.7 |
| 20260510211059 | 27 | 140 | 0.0 | 0.0 | 0.00 | 0.00 | 0.00 | 35 | 1015.8 |
| 20260510210943 | 27 | 155 | 0.0 | 0.0 | 0.00 | 0.00 | 0.00 | 34 | 1015.7 |
| 20260510210842 | 27 | 165 | 0.0 | 0.0 | 0.00 | 0.00 | 0.00 | 36 | 1015.7 |
| 20260510210743 | 27 | 165 | 0.0 | 0.0 | 0.00 | 0.00 | 0.00 | 35 | 1015.8 |
| 20260510210703 | 27 | 165 | 0.0 | 0.0 | 0.00 | 0.00 | 0.00 | 34 | 1015.7 |
| 20260510210541 | 27 | 168 | 0.0 | 0.0 | 0.00 | 0.00 | 0.00 | 35 | 1015.8 |
| 20260510210441 | 27 | 182 | 0.0 | 0.0 | 0.00 | 0.00 | 0.00 | 37 | 1015.8 |
| 20260510210345 | 27 | 175 | 0.0 | 0.0 | 0.00 | 0.00 | 0.00 | 36 | 1015.8 |
| 20260510210247 | 27 | 175 | 0.0 | 0.0 | 0.00 | 0.00 | 0.00 | 35 | 1015.7 |
| 20260510210214 | 27 | 175 | 0.0 | 0.0 | 0.00 | 0.00 | 0.00 | 35 | 1015.7 |
| 20260510210030 | 27 | 175 | 0.0 | 0.0 | 0.00 | 0.00 | 0.00 | 35 | 1015.1 |
| 20260510205941 | 27 | 144 | 0.0 | 0.0 | 0.00 | 0.00 | 0.00 | 35 | 1015.8 |
| 20260510205841 | 27 | 145 | 0.0 | 0.0 | 0.00 | 0.00 | 0.00 | 36 | 1015.8 |
| 20260510205801 | 27 | 145 | 0.0 | 0.0 | 0.00 | 0.00 | 0.00 | 35 | 1015.7 |
| 20260510205644 | 27 | 145 | 0.0 | 0.0 | 0.00 | 0.00 | 0.00 | 38 | 1015.8 |
| 20260510205545 | 27 | 145 | 0.0 | 0.0 | 0.00 | 0.00 | 0.00 | 36 | 1015.7 |
| 20260510205446 | 27 | 145 | 0.0 | 0.0 | 0.00 | 0.00 | 0.00 | 36 | 1015.8 |
| 20260510205345 | 27 | 146 | 0.0 | 0.0 | 0.00 | 0.00 | 0.00 | 35 | 1015.8 |
| 20260510205246 | 27 | 146 | 0.0 | 0.0 | 0.00 | 0.00 | 0.00 | 37 | 1015.8 |
| 20260510205208 | 27 | 146 | 0.0 | 0.0 | 0.00 | 0.00 | 0.00 | 35 | 1015.8 |
| 20260510205047 | 27 | 145 | 0.0 | 0.0 | 0.00 | 0.00 | 0.00 | 34 | 1015.9 |
| 20260510204952 | 27 | 145 | 0.0 | 0.0 | 0.00 | 0.00 | 0.00 | 33 | 1015.8 |
| 20260510204854 | 27 | 145 | 0.0 | 0.0 | 0.00 | 0.00 | 0.00 | 33 | 1015.8 |
| 20260510204753 | 27 | 138 | 0.0 | 0.0 | 0.00 | 0.00 | 0.00 | 34 | 1015.8 |
| 20260510204655 | 27 | 119 | 0.0 | 0.0 | 0.00 | 0.00 | 0.00 | 35 | 1015.8 |
| 20260510204556 | 27 | 148 | 0.0 | 0.0 | 0.00 | 0.00 | 0.00 | 36 | 1015.9 |
| 20260510204541 | 27 | 142 | 0.0 | 0.0 | 0.00 | 0.00 | 0.00 | 34 | 1015.2 |
| 20260510204455 | 27 | 146 | 0.0 | 0.0 | 0.00 | 0.00 | 0.00 | 34 | 1015.9 |
| 20260510204356 | 28 | 162 | 0.0 | 0.0 | 0.00 | 0.00 | 0.00 | 37 | 1015.8 |
| 20260510204259 | 28 | 178 | 0.0 | 0.0 | 0.00 | 0.00 | 0.00 | 35 | 1015.9 |
| 20260510204219 | 28 | 241 | 0.0 | 0.0 | 0.00 | 0.00 | 0.00 | 37 | 1015.8 |
| 20260510204059 | 28 | 242 | 0.0 | 0.0 | 0.00 | 0.00 | 0.00 | 38 | 1015.9 |
| 20260510204019 | 28 | 251 | 0.0 | 0.0 | 0.00 | 0.00 | 0.00 | 38 | 1015.8 |
| 20260510203858 | 27 | 274 | 0.0 | 0.0 | 0.00 | 0.00 | 0.00 | 37 | 1015.8 |
| 20260510203800 | 27 | 285 | 0.0 | 0.0 | 0.00 | 0.00 | 0.00 | 37 | 1015.8 |
| 20260510203701 | 27 | 285 | 0.0 | 0.0 | 0.00 | 0.00 | 0.00 | 38 | 1015.9 |
| 20260510203544 | 27 | 285 | 0.0 | 0.0 | 0.00 | 0.00 | 0.00 | 40 | 1015.9 |
| 20260510203445 | 27 | 286 | 0.0 | 0.0 | 0.00 | 0.00 | 0.00 | 38 | 1015.9 |
| 20260510203406 | 27 | 286 | 0.0 | 0.0 | 0.00 | 0.00 | 0.00 | 35 | 1015.8 |
| 20260510203244 | 27 | 215 | 0.0 | 0.0 | 0.00 | 0.00 | 0.00 | 35 | 1015.8 |
| 20260510203143 | 27 | 215 | 0.0 | 0.0 | 0.00 | 0.00 | 0.00 | 34 | 1015.9 |
| 20260510203044 | 28 | 155 | 0.0 | 0.0 | 0.00 | 0.00 | 0.00 | 35 | 1015.8 |
| 20260510203013 | 27 | 152 | 0.0 | 0.0 | 0.00 | 0.00 | 0.00 | 38 | 1015.2 |
| 20260510202945 | 28 | 76 | 0.0 | 0.0 | 0.00 | 0.00 | 0.00 | 38 | 1015.9 |
| 20260510202847 | 28 | 179 | 0.0 | 0.0 | 0.00 | 0.00 | 0.00 | 39 | 1016.0 |
| 20260510202748 | 28 | 179 | 0.0 | 0.0 | 0.00 | 0.00 | 0.00 | 38 | 1015.9 |
| 20260510202648 | 28 | 179 | 0.0 | 0.0 | 0.00 | 0.00 | 0.00 | 38 | 1015.9 |
| 20260510202547 | 28 | 179 | 0.0 | 0.0 | 0.00 | 0.00 | 0.00 | 36 | 1015.9 |
| 20260510202446 | 28 | 138 | 0.0 | 0.0 | 0.00 | 0.00 | 0.00 | 37 | 1015.9 |
| 20260510202346 | 28 | 331 | 0.0 | 0.0 | 0.00 | 0.00 | 0.00 | 35 | 1015.9 |
| 20260510202246 | 28 | 331 | 0.0 | 0.0 | 0.00 | 0.00 | 0.00 | 35 | 1015.8 |
| 20260510202151 | 28 | 331 | 0.0 | 0.0 | 0.00 | 0.00 | 0.00 | 34 | 1015.9 |
| 20260510202052 | 28 | 331 | 0.0 | 0.0 | 0.00 | 0.00 | 0.00 | 35 | 1015.9 |
| 20260510201953 | 28 | 331 | 0.0 | 0.0 | 0.00 | 0.00 | 0.00 | 35 | 1015.9 |
| 20260510201854 | 27 | 331 | 0.0 | 0.0 | 0.00 | 0.00 | 0.00 | 34 | 1016.0 |
| 20260510201814 | 27 | 333 | 0.0 | 0.0 | 0.00 | 0.00 | 0.00 | 35 | 1016.0 |
| 20260510201652 | 28 | 334 | 0.0 | 0.0 | 0.00 | 0.00 | 0.00 | 34 | 1016.0 |
| 20260510201553 | 28 | 334 | 0.0 | 0.0 | 0.00 | 0.00 | 0.00 | 36 | 1016.0 |
| 20260510201515 | 27 | 340 | 0.0 | 0.0 | 0.00 | 0.00 | 0.00 | 37 | 1015.3 |
| 20260510201458 | 28 | 340 | 0.0 | 0.0 | 0.00 | 0.00 | 0.00 | 34 | 1016.0 |
| 20260510201359 | 28 | 325 | 0.0 | 0.0 | 0.00 | 0.00 | 0.00 | 35 | 1016.0 |
| 20260510201259 | 27 | 338 | 0.0 | 0.0 | 0.00 | 0.00 | 0.00 | 36 | 1016.0 |
| 20260510201158 | 27 | 331 | 0.0 | 0.0 | 0.00 | 0.00 | 0.00 | 35 | 1016.0 |
| 20260510201119 | 27 | 331 | 0.0 | 0.0 | 0.00 | 0.00 | 0.00 | 34 | 1016.0 |
| 20260510200956 | 27 | 294 | 0.0 | 0.0 | 0.00 | 0.00 | 0.00 | 36 | 1016.0 |
| 20260510200857 | 27 | 290 | 0.0 | 0.0 | 0.00 | 0.00 | 0.00 | 35 | 1016.0 |
| 20260510200742 | 27 | 287 | 0.0 | 0.0 | 0.00 | 0.00 | 0.00 | 35 | 1016.0 |
| 20260510200643 | 27 | 287 | 0.0 | 0.0 | 0.00 | 0.00 | 0.00 | 34 | 1016.1 |
| 20260510200544 | 27 | 287 | 0.0 | 0.0 | 0.00 | 0.00 | 0.00 | 34 | 1016.1 |
| 20260510200445 | 27 | 287 | 0.0 | 0.0 | 0.00 | 0.00 | 0.00 | 35 | 1016.0 |
| 20260510200346 | 27 | 286 | 0.0 | 0.0 | 0.00 | 0.00 | 0.00 | 35 | 1016.1 |
| 20260510200306 | 27 | 284 | 0.0 | 0.0 | 0.00 | 0.00 | 0.00 | 34 | 1016.2 |
| 20260510200216 | 27 | 284 | 0.0 | 0.0 | 0.00 | 0.00 | 0.00 | 34 | 1016.1 |
| 20260510195944 | 27 | 284 | 0.0 | 0.0 | 0.00 | 0.00 | 0.00 | 34 | 1016.2 |
| 20260510195845 | 27 | 284 | 0.0 | 0.0 | 0.00 | 0.00 | 0.00 | 36 | 1016.2 |
| 20260510195746 | 27 | 189 | 0.0 | 0.0 | 0.00 | 0.00 | 0.00 | 34 | 1016.2 |
| 20260510195647 | 27 | 189 | 0.0 | 0.0 | 0.00 | 0.00 | 0.00 | 34 | 1016.2 |
| 20260510195547 | 27 | 189 | 0.0 | 0.0 | 0.00 | 0.00 | 0.00 | 34 | 1016.2 |
| 20260510195512 | 27 | 189 | 0.0 | 0.0 | 0.00 | 0.00 | 0.00 | 34 | 1016.2 |
| 20260510195351 | 27 | 192 | 0.0 | 0.0 | 0.00 | 0.00 | 0.00 | 36 | 1016.3 |
| 20260510195250 | 27 | 194 | 0.0 | 0.0 | 0.00 | 0.00 | 0.00 | 34 | 1016.2 |
| 20260510195150 | 27 | 194 | 0.0 | 0.0 | 0.00 | 0.00 | 0.00 | 35 | 1016.2 |
| 20260510195109 | 27 | 194 | 0.0 | 0.0 | 0.00 | 0.00 | 0.00 | 36 | 1016.2 |
| 20260510194946 | 27 | 197 | 0.0 | 0.0 | 0.00 | 0.00 | 0.00 | 35 | 1016.2 |
| 20260510194847 | 27 | 198 | 0.0 | 0.0 | 0.00 | 0.00 | 0.00 | 34 | 1016.2 |
| 20260510194749 | 27 | 151 | 0.0 | 0.0 | 0.00 | 0.00 | 0.00 | 33 | 1016.3 |
| 20260510194713 | 27 | 144 | 0.0 | 0.0 | 0.00 | 0.00 | 0.00 | 36 | 1016.3 |
| 20260510194552 | 27 | 148 | 0.0 | 0.0 | 0.00 | 0.00 | 0.00 | 35 | 1016.3 |
| 20260510194542 | 27 | 148 | 0.0 | 0.0 | 0.00 | 0.00 | 0.00 | 35 | 1015.6 |
| 20260510194453 | 27 | 92 | 0.0 | 0.0 | 0.00 | 0.00 | 0.00 | 35 | 1016.3 |
| 20260510194354 | 27 | 101 | 0.0 | 0.0 | 0.00 | 0.00 | 0.00 | 34 | 1016.3 |
| 20260510194254 | 27 | 159 | 0.0 | 0.0 | 0.00 | 0.00 | 0.00 | 37 | 1016.3 |
| 20260510194154 | 27 | 162 | 0.0 | 0.0 | 0.00 | 0.00 | 0.00 | 37 | 1016.2 |
| 20260510194040 | 27 | 162 | 0.0 | 0.0 | 0.00 | 0.00 | 0.00 | 36 | 1016.2 |
| 20260510194000 | 27 | 162 | 0.0 | 0.0 | 0.00 | 0.00 | 0.00 | 35 | 1016.1 |
| 20260510193900 | 27 | 162 | 0.0 | 0.0 | 0.00 | 0.00 | 0.00 | 37 | 1016.1 |
| 20260510193740 | 27 | 162 | 0.0 | 0.0 | 0.00 | 0.00 | 0.00 | 35 | 1016.1 |
| 20260510193641 | 27 | 163 | 0.0 | 0.0 | 0.00 | 0.00 | 0.00 | 36 | 1016.1 |
| 20260510193542 | 27 | 160 | 0.0 | 0.0 | 0.00 | 0.00 | 0.00 | 39 | 1016.1 |
| 20260510193443 | 27 | 160 | 0.0 | 0.0 | 0.00 | 0.00 | 0.00 | 39 | 1016.1 |
| 20260510193348 | 27 | 160 | 0.0 | 0.0 | 0.00 | 0.00 | 0.00 | 39 | 1016.2 |
| 20260510193249 | 27 | 146 | 0.0 | 0.0 | 0.00 | 0.00 | 0.00 | 37 | 1016.2 |
| 20260510193148 | 27 | 145 | 0.0 | 0.0 | 0.00 | 0.00 | 0.00 | 36 | 1016.2 |
| 20260510193108 | 27 | 101 | 0.0 | 0.0 | 0.00 | 0.00 | 0.00 | 38 | 1015.5 |
| 20260510193049 | 27 | 35 | 0.0 | 0.0 | 0.00 | 0.00 | 0.00 | 38 | 1016.2 |
| 20260510192948 | 27 | 340 | 0.0 | 0.0 | 0.00 | 0.00 | 0.00 | 36 | 1016.2 |
| 20260510192849 | 27 | 319 | 0.0 | 0.0 | 0.00 | 0.00 | 0.00 | 35 | 1016.2 |
| 20260510192755 | 27 | 88 | 0.0 | 0.0 | 0.00 | 0.00 | 0.00 | 37 | 1016.2 |
| 20260510192655 | 27 | 98 | 0.0 | 0.0 | 0.00 | 0.00 | 0.00 | 36 | 1016.2 |
| 20260510192556 | 27 | 360 | 0.0 | 0.0 | 0.00 | 0.00 | 0.00 | 35 | 1016.2 |
| 20260510192519 | 27 | 360 | 0.0 | 0.0 | 0.00 | 0.00 | 0.00 | 34 | 1016.3 |
| 20260510192358 | 27 | 336 | 0.0 | 0.0 | 0.00 | 0.00 | 0.00 | 34 | 1016.3 |
| 20260510192259 | 27 | 360 | 0.0 | 0.0 | 0.00 | 0.00 | 0.00 | 37 | 1016.3 |
| 20260510192220 | 27 | 135 | 0.0 | 0.0 | 0.00 | 0.00 | 0.00 | 38 | 1016.3 |
| 20260510192043 | 27 | 135 | 0.0 | 0.0 | 0.00 | 0.00 | 0.00 | 35 | 1016.3 |
| 20260510191943 | 27 | 138 | 0.0 | 0.0 | 0.00 | 0.00 | 0.00 | 34 | 1016.3 |
| 20260510191902 | 27 | 138 | 0.0 | 0.0 | 0.00 | 0.00 | 0.00 | 34 | 1016.3 |
| 20260510191741 | 27 | 138 | 0.0 | 0.0 | 0.00 | 0.00 | 0.00 | 34 | 1016.3 |
| 20260510191642 | 27 | 122 | 0.0 | 0.0 | 0.00 | 0.00 | 0.00 | 38 | 1016.3 |
| 20260510191607 | 27 | 157 | 0.0 | 0.0 | 0.00 | 0.00 | 0.00 | 38 | 1015.6 |
| 20260510191543 | 27 | 171 | 0.0 | 0.0 | 0.00 | 0.00 | 0.00 | 36 | 1016.3 |
| 20260510191505 | 27 | 199 | 0.0 | 0.0 | 0.00 | 0.00 | 0.00 | 37 | 1016.3 |
| 20260510191345 | 27 | 268 | 0.0 | 0.0 | 0.00 | 0.00 | 0.00 | 35 | 1016.3 |
| 20260510191308 | 27 | 309 | 0.0 | 0.0 | 0.00 | 0.00 | 0.00 | 35 | 1016.3 |
| 20260510191147 | 27 | 326 | 0.0 | 0.0 | 0.00 | 0.00 | 0.00 | 37 | 1016.3 |
| 20260510191048 | 27 | 306 | 0.0 | 0.0 | 0.00 | 0.00 | 0.00 | 37 | 1016.4 |
| 20260510190947 | 27 | 9 | 0.0 | 0.0 | 0.00 | 0.00 | 0.00 | 37 | 1016.4 |
| 20260510190848 | 27 | 337 | 0.0 | 0.0 | 0.00 | 0.00 | 0.00 | 37 | 1016.4 |
| 20260510190748 | 27 | 319 | 0.0 | 0.0 | 0.00 | 0.00 | 0.00 | 36 | 1016.4 |
| 20260510190648 | 27 | 197 | 0.0 | 0.0 | 0.00 | 0.00 | 0.00 | 37 | 1016.4 |
| 20260510190553 | 27 | 197 | 0.0 | 0.0 | 0.00 | 0.00 | 0.00 | 37 | 1016.4 |
| 20260510190453 | 27 | 197 | 0.0 | 0.0 | 0.00 | 0.00 | 0.00 | 35 | 1016.4 |
| 20260510190354 | 27 | 194 | 0.0 | 0.0 | 0.00 | 0.00 | 0.00 | 36 | 1016.4 |
| 20260510190255 | 27 | 129 | 0.0 | 0.0 | 0.00 | 0.00 | 0.00 | 36 | 1016.4 |
| 20260510190222 | 27 | 129 | 0.0 | 0.0 | 0.00 | 0.00 | 0.00 | 36 | 1016.4 |
| 20260510190018 | 27 | 74 | 0.0 | 0.0 | 0.00 | 0.00 | 0.00 | 36 | 1015.7 |
| 20260510185954 | 27 | 96 | 0.0 | 0.0 | 0.00 | 0.00 | 0.00 | 36 | 1016.4 |
| 20260510185855 | 27 | 96 | 0.0 | 0.0 | 0.00 | 0.00 | 0.00 | 38 | 1016.4 |
| 20260510185757 | 27 | 186 | 0.0 | 0.0 | 0.00 | 0.00 | 0.00 | 37 | 1016.4 |
| 20260510185657 | 27 | 184 | 0.0 | 0.0 | 0.00 | 0.00 | 0.00 | 38 | 1016.4 |
| 20260510185618 | 27 | 182 | 0.0 | 0.0 | 0.00 | 0.00 | 0.00 | 38 | 1016.5 |
| 20260510185458 | 27 | 182 | 0.0 | 0.0 | 0.00 | 0.00 | 0.00 | 39 | 1016.5 |
| 20260510185359 | 27 | 182 | 0.0 | 0.0 | 0.00 | 0.00 | 0.00 | 39 | 1016.4 |
| 20260510185244 | 27 | 182 | 0.0 | 0.0 | 0.00 | 0.00 | 0.00 | 39 | 1016.5 |
| 20260510185141 | 27 | 182 | 0.0 | 0.0 | 0.00 | 0.00 | 0.00 | 37 | 1016.5 |
| 20260510185042 | 27 | 175 | 0.0 | 0.0 | 0.00 | 0.00 | 0.00 | 40 | 1016.4 |
| 20260510184941 | 27 | 117 | 0.0 | 0.0 | 0.00 | 0.00 | 0.00 | 38 | 1016.5 |
| 20260510184841 | 27 | 80 | 0.0 | 0.0 | 0.00 | 0.00 | 0.00 | 39 | 1016.5 |
| 20260510184759 | 27 | 242 | 0.0 | 0.0 | 0.00 | 0.00 | 0.00 | 39 | 1016.5 |
| 20260510184658 | 27 | 246 | 0.0 | 0.0 | 0.00 | 0.00 | 0.00 | 37 | 1016.5 |
| 20260510184543 | 27 | 246 | 0.0 | 0.0 | 0.00 | 0.00 | 0.00 | 38 | 1016.5 |
| 20260510184526 | 26 | 240 | 0.0 | 0.0 | 0.00 | 0.00 | 0.00 | 38 | 1015.8 |
| 20260510184442 | 27 | 17 | 0.0 | 0.0 | 0.00 | 0.00 | 0.00 | 37 | 1016.5 |
| 20260510184343 | 27 | 16 | 0.0 | 0.0 | 0.00 | 0.00 | 0.00 | 36 | 1016.6 |
| 20260510184302 | 27 | 16 | 0.0 | 0.0 | 0.00 | 0.00 | 0.00 | 36 | 1016.6 |
| 20260510184142 | 27 | 19 | 0.0 | 0.0 | 0.00 | 0.00 | 0.00 | 37 | 1016.6 |
| 20260510184043 | 27 | 329 | 0.0 | 0.0 | 0.00 | 0.00 | 0.00 | 36 | 1016.6 |
| 20260510183943 | 27 | 325 | 0.0 | 0.0 | 0.00 | 0.00 | 0.00 | 38 | 1016.5 |
| 20260510183846 | 27 | 298 | 0.0 | 0.0 | 0.00 | 0.00 | 0.00 | 39 | 1016.5 |
| 20260510183745 | 26 | 294 | 0.0 | 0.0 | 0.00 | 0.00 | 0.00 | 37 | 1016.5 |
| 20260510183645 | 26 | 293 | 0.0 | 0.0 | 0.00 | 0.00 | 0.00 | 37 | 1016.5 |
| 20260510183605 | 26 | 134 | 0.0 | 0.0 | 0.00 | 0.00 | 0.00 | 39 | 1016.5 |
| 20260510183445 | 26 | 136 | 0.0 | 0.0 | 0.00 | 0.00 | 0.00 | 40 | 1016.6 |
| 20260510183406 | 26 | 195 | 0.0 | 0.0 | 0.00 | 0.00 | 0.00 | 41 | 1016.6 |
| 20260510183245 | 26 | 195 | 0.0 | 0.0 | 0.00 | 0.00 | 0.00 | 43 | 1016.5 |
| 20260510183143 | 26 | 225 | 0.0 | 0.0 | 0.00 | 0.00 | 0.00 | 36 | 1016.6 |
| 20260510183111 | 26 | 197 | 0.0 | 0.0 | 0.00 | 0.00 | 0.00 | 38 | 1015.9 |
| 20260510183047 | 26 | 146 | 0.0 | 0.0 | 0.00 | 0.00 | 0.00 | 35 | 1016.5 |
| 20260510182948 | 26 | 180 | 0.0 | 0.0 | 0.00 | 0.00 | 0.00 | 38 | 1016.6 |
| 20260510182849 | 26 | 186 | 0.0 | 0.0 | 0.00 | 0.00 | 0.00 | 35 | 1016.6 |
| 20260510182810 | 26 | 113 | 0.0 | 0.0 | 0.00 | 0.00 | 0.00 | 36 | 1016.6 |
| 20260510182648 | 26 | 113 | 0.0 | 0.0 | 0.00 | 0.00 | 0.00 | 36 | 1016.6 |
| 20260510182549 | 26 | 5 | 0.0 | 0.0 | 0.00 | 0.00 | 0.00 | 39 | 1016.7 |
| 20260510182450 | 26 | 5 | 0.0 | 0.0 | 0.00 | 0.00 | 0.00 | 35 | 1016.7 |
| 20260510182355 | 26 | 5 | 0.0 | 0.0 | 0.00 | 0.00 | 0.00 | 35 | 1016.6 |
| 20260510182256 | 26 | 5 | 0.0 | 0.0 | 0.00 | 0.00 | 0.00 | 35 | 1016.6 |
| 20260510182157 | 26 | 11 | 0.0 | 0.0 | 0.00 | 0.00 | 0.00 | 35 | 1016.6 |
| 20260510182057 | 26 | 11 | 0.0 | 0.0 | 0.00 | 0.00 | 0.00 | 35 | 1016.6 |
| 20260510181957 | 26 | 5 | 0.0 | 0.0 | 0.00 | 0.00 | 0.00 | 35 | 1016.6 |
| 20260510181857 | 27 | 5 | 0.0 | 0.0 | 0.00 | 0.00 | 0.00 | 36 | 1016.6 |
| 20260510181818 | 27 | 5 | 0.0 | 0.0 | 0.00 | 0.00 | 0.00 | 37 | 1016.6 |
| 20260510181659 | 27 | 360 | 0.0 | 0.0 | 0.00 | 0.00 | 0.00 | 35 | 1016.6 |
| 20260510181600 | 27 | 360 | 0.0 | 0.0 | 0.00 | 0.00 | 0.00 | 38 | 1016.6 |
| 20260510181546 | 26 | 355 | 0.0 | 0.0 | 0.00 | 0.00 | 0.00 | 38 | 1016.0 |
| 20260510181500 | 27 | 350 | 0.0 | 0.0 | 0.00 | 0.00 | 0.00 | 37 | 1016.6 |
| 20260510181340 | 27 | 350 | 0.0 | 0.0 | 0.00 | 0.00 | 0.00 | 36 | 1016.6 |
| 20260510181241 | 27 | 349 | 0.0 | 0.0 | 0.00 | 0.00 | 0.00 | 35 | 1016.6 |
| 20260510181142 | 27 | 348 | 0.0 | 0.0 | 0.00 | 0.00 | 0.00 | 36 | 1016.6 |
| 20260510181046 | 27 | 345 | 0.0 | 0.0 | 0.00 | 0.00 | 0.00 | 36 | 1016.6 |
| 20260510180947 | 27 | 342 | 0.0 | 0.0 | 0.00 | 0.00 | 0.00 | 36 | 1016.6 |
| 20260510180847 | 27 | 340 | 0.0 | 0.0 | 0.00 | 0.00 | 0.00 | 36 | 1016.7 |
| 20260510180810 | 27 | 333 | 0.0 | 0.0 | 0.00 | 0.00 | 0.00 | 41 | 1016.7 |
| 20260510180648 | 27 | 333 | 0.0 | 0.0 | 0.00 | 0.00 | 0.00 | 41 | 1016.7 |
| 20260510180549 | 26 | 335 | 0.0 | 0.0 | 0.00 | 0.00 | 0.00 | 41 | 1016.7 |
| 20260510180449 | 27 | 335 | 0.0 | 0.0 | 0.00 | 0.00 | 0.00 | 40 | 1016.7 |
| 20260510180351 | 27 | 335 | 0.0 | 0.0 | 0.00 | 0.00 | 0.00 | 38 | 1016.7 |
| 20260510180251 | 27 | 315 | 0.0 | 0.0 | 0.00 | 0.00 | 0.00 | 38 | 1016.7 |
| 20260510180218 | 27 | 315 | 0.0 | 0.0 | 0.00 | 0.00 | 0.00 | 38 | 1016.7 |
| 20260510180010 | 26 | 346 | 0.0 | 0.0 | 0.00 | 0.00 | 0.00 | 38 | 1016.1 |
| 20260510175943 | 27 | 344 | 0.0 | 0.0 | 0.00 | 0.00 | 0.00 | 37 | 1016.7 |
| 20260510175843 | 26 | 325 | 0.0 | 0.0 | 0.00 | 0.00 | 0.00 | 38 | 1016.7 |
| 20260510175743 | 26 | 325 | 0.0 | 0.0 | 0.00 | 0.00 | 0.00 | 39 | 1016.7 |
| 20260510175647 | 26 | 325 | 0.0 | 0.0 | 0.00 | 0.00 | 0.00 | 39 | 1016.7 |
| 20260510175550 | 26 | 325 | 0.0 | 0.0 | 0.00 | 0.00 | 0.00 | 35 | 1016.7 |
| 20260510175512 | 26 | 325 | 0.0 | 0.0 | 0.00 | 0.00 | 0.00 | 35 | 1016.8 |
| 20260510175352 | 26 | 325 | 0.0 | 0.0 | 0.00 | 0.00 | 0.00 | 40 | 1016.9 |
| 20260510175313 | 26 | 324 | 0.0 | 0.0 | 0.00 | 0.00 | 0.00 | 39 | 1016.8 |
| 20260510175151 | 26 | 323 | 0.0 | 0.0 | 0.00 | 0.00 | 0.00 | 36 | 1016.9 |
| 20260510175112 | 26 | 310 | 0.0 | 0.0 | 0.00 | 0.00 | 0.00 | 40 | 1016.8 |
| 20260510174952 | 26 | 334 | 0.0 | 0.0 | 0.00 | 0.00 | 0.00 | 38 | 1016.9 |
| 20260510174855 | 26 | 360 | 0.0 | 0.0 | 0.00 | 0.00 | 0.00 | 36 | 1016.9 |
| 20260510174754 | 26 | 360 | 0.0 | 0.0 | 0.00 | 0.00 | 0.00 | 37 | 1016.9 |
| 20260510174654 | 26 | 360 | 0.0 | 0.0 | 0.00 | 0.00 | 0.00 | 36 | 1017.0 |
| 20260510174554 | 26 | 360 | 0.0 | 0.0 | 0.00 | 0.00 | 0.00 | 38 | 1017.0 |
| 20260510174535 | 26 | 355 | 0.0 | 0.0 | 0.00 | 0.00 | 0.00 | 38 | 1016.4 |
| 20260510174455 | 26 | 355 | 0.0 | 0.0 | 0.00 | 0.00 | 0.00 | 39 | 1017.0 |
| 20260510174416 | 26 | 355 | 0.0 | 0.0 | 0.00 | 0.00 | 0.00 | 42 | 1017.0 |
| 20260510174314 | 26 | 355 | 0.0 | 0.0 | 0.00 | 0.00 | 0.00 | 37 | 1017.0 |
| 20260510174214 | 26 | 355 | 0.0 | 0.0 | 0.00 | 0.00 | 0.00 | 37 | 1016.9 |
| 20260510174058 | 26 | 11 | 0.0 | 0.0 | 0.00 | 0.00 | 0.00 | 37 | 1017.0 |
| 20260510173959 | 26 | 295 | 0.0 | 0.0 | 0.00 | 0.00 | 0.00 | 38 | 1017.0 |
| 20260510173858 | 26 | 296 | 0.0 | 0.0 | 0.00 | 0.00 | 0.00 | 37 | 1017.0 |
| 20260510173759 | 26 | 223 | 0.0 | 0.0 | 0.00 | 0.00 | 0.00 | 36 | 1017.0 |
| 20260510173658 | 26 | 182 | 0.0 | 0.0 | 0.00 | 0.00 | 0.00 | 38 | 1017.0 |
| 20260510173558 | 26 | 234 | 0.0 | 0.0 | 0.00 | 0.00 | 0.00 | 42 | 1017.0 |
| 20260510173458 | 26 | 233 | 0.0 | 0.0 | 0.00 | 0.00 | 0.00 | 39 | 1017.0 |
| 20260510173401 | 26 | 314 | 0.0 | 0.0 | 0.00 | 0.00 | 0.00 | 42 | 1017.0 |
| 20260510173322 | 26 | 235 | 0.0 | 0.0 | 0.00 | 0.00 | 0.00 | 42 | 1017.0 |
| 20260510173200 | 26 | 235 | 0.0 | 0.0 | 0.00 | 0.00 | 0.00 | 39 | 1017.0 |
| 20260510173100 | 26 | 235 | 0.0 | 0.0 | 0.00 | 0.00 | 0.00 | 39 | 1017.0 |
| 20260510173042 | 26 | 235 | 0.0 | 0.0 | 0.00 | 0.00 | 0.00 | 39 | 1016.4 |
| 20260510173019 | 26 | 235 | 0.0 | 0.0 | 0.00 | 0.00 | 0.00 | 38 | 1017.1 |
| 20260510172858 | 26 | 234 | 0.0 | 0.0 | 0.00 | 0.00 | 0.00 | 37 | 1017.1 |
| 20260510172758 | 26 | 198 | 0.0 | 0.0 | 0.00 | 0.00 | 0.00 | 41 | 1017.1 |
| 20260510172643 | 26 | 81 | 0.0 | 0.0 | 0.00 | 0.00 | 0.00 | 37 | 1017.1 |
| 20260510172543 | 26 | 81 | 0.0 | 0.0 | 0.00 | 0.00 | 0.00 | 36 | 1017.2 |
| 20260510172504 | 26 | 81 | 0.0 | 0.0 | 0.00 | 0.00 | 0.00 | 36 | 1017.2 |
| 20260510172343 | 26 | 81 | 0.0 | 0.0 | 0.00 | 0.00 | 0.00 | 36 | 1017.3 |
| 20260510172243 | 26 | 173 | 0.0 | 0.0 | 0.00 | 0.00 | 0.00 | 37 | 1017.2 |
| 20260510172144 | 26 | 173 | 0.0 | 0.0 | 0.00 | 0.00 | 0.00 | 36 | 1017.2 |
| 20260510172043 | 26 | 173 | 0.0 | 0.0 | 0.00 | 0.00 | 0.00 | 38 | 1017.3 |
| 20260510171948 | 26 | 173 | 0.0 | 0.0 | 0.00 | 0.00 | 0.00 | 36 | 1017.3 |
| 20260510171908 | 26 | 173 | 0.0 | 0.0 | 0.00 | 0.00 | 0.00 | 36 | 1017.3 |
| 20260510171807 | 26 | 34 | 0.0 | 0.0 | 0.00 | 0.00 | 0.00 | 38 | 1017.3 |
| 20260510171647 | 26 | 34 | 0.0 | 0.0 | 0.00 | 0.00 | 0.00 | 36 | 1017.2 |
| 20260510171548 | 26 | 34 | 0.0 | 0.0 | 0.00 | 0.00 | 0.00 | 37 | 1017.2 |
| 20260510171512 | 26 | 36 | 0.0 | 0.0 | 0.00 | 0.00 | 0.00 | 39 | 1016.7 |
| 20260510171450 | 26 | 55 | 0.0 | 0.0 | 0.00 | 0.00 | 0.00 | 39 | 1017.3 |
| 20260510171351 | 26 | 5 | 0.0 | 0.0 | 0.00 | 0.00 | 0.00 | 36 | 1017.2 |
| 20260510171250 | 26 | 360 | 0.0 | 0.0 | 0.00 | 0.00 | 0.00 | 36 | 1017.2 |
| 20260510171154 | 26 | 349 | 0.0 | 0.0 | 0.00 | 0.00 | 0.00 | 38 | 1017.2 |
| 20260510171114 | 26 | 355 | 0.0 | 0.0 | 0.00 | 0.00 | 0.00 | 37 | 1017.2 |
| 20260510170954 | 26 | 360 | 0.0 | 0.0 | 0.00 | 0.00 | 0.00 | 40 | 1017.2 |
| 20260510170855 | 26 | 5 | 0.0 | 0.0 | 0.00 | 0.00 | 0.00 | 38 | 1017.2 |
| 20260510170756 | 26 | 348 | 0.0 | 0.0 | 0.00 | 0.00 | 0.00 | 39 | 1017.2 |
| 20260510170658 | 26 | 346 | 0.0 | 0.0 | 0.00 | 0.00 | 0.00 | 38 | 1017.3 |
| 20260510170543 | 26 | 11 | 0.0 | 0.0 | 0.00 | 0.00 | 0.00 | 42 | 1017.3 |
| 20260510170504 | 26 | 319 | 0.0 | 0.0 | 0.00 | 0.00 | 0.00 | 39 | 1017.3 |
| 20260510170344 | 26 | 317 | 0.0 | 0.0 | 0.00 | 0.00 | 0.00 | 40 | 1017.4 |
| 20260510170309 | 26 | 317 | 0.0 | 0.0 | 0.00 | 0.00 | 0.00 | 39 | 1017.4 |
| 20260510170239 | 26 | 5 | 0.0 | 0.0 | 0.00 | 0.00 | 0.00 | 40 | 1017.4 |
| 20260510165945 | 26 | 35 | 0.0 | 0.0 | 0.00 | 0.00 | 0.00 | 39 | 1017.4 |
| 20260510165850 | 26 | 33 | 0.0 | 0.0 | 0.00 | 0.00 | 0.00 | 37 | 1017.5 |
| 20260510165751 | 26 | 355 | 0.0 | 0.0 | 0.00 | 0.00 | 0.00 | 38 | 1017.4 |
| 20260510165648 | 26 | 312 | 0.0 | 0.0 | 0.00 | 0.00 | 0.00 | 39 | 1017.5 |
| 20260510165609 | 26 | 350 | 0.0 | 0.0 | 0.00 | 0.00 | 0.00 | 36 | 1017.5 |
| 20260510165508 | 26 | 350 | 0.0 | 0.0 | 0.00 | 0.00 | 0.00 | 36 | 1017.5 |
| 20260510165347 | 26 | 342 | 0.0 | 0.0 | 0.00 | 0.00 | 0.00 | 38 | 1017.4 |
| 20260510165247 | 26 | 305 | 0.0 | 0.0 | 0.00 | 0.00 | 0.00 | 41 | 1017.4 |
| 20260510165207 | 26 | 292 | 0.0 | 0.0 | 0.00 | 0.00 | 0.00 | 41 | 1017.3 |
| 20260510165051 | 25 | 303 | 0.0 | 0.0 | 0.00 | 0.00 | 0.00 | 39 | 1017.4 |
| 20260510164952 | 25 | 327 | 0.0 | 0.0 | 0.00 | 0.00 | 0.00 | 39 | 1017.3 |
| 20260510164853 | 25 | 348 | 0.0 | 0.0 | 0.00 | 0.00 | 0.00 | 39 | 1017.3 |
| 20260510164754 | 25 | 300 | 0.0 | 0.0 | 0.00 | 0.00 | 0.00 | 39 | 1017.3 |
| 20260510164652 | 25 | 322 | 0.0 | 0.0 | 0.00 | 0.00 | 0.00 | 41 | 1017.3 |
| 20260510164552 | 25 | 164 | 0.0 | 0.0 | 0.00 | 0.00 | 0.00 | 40 | 1017.3 |
| 20260510164542 | 25 | 164 | 0.0 | 0.0 | 0.00 | 0.00 | 0.00 | 42 | 1016.7 |
| 20260510164452 | 25 | 164 | 0.0 | 0.0 | 0.00 | 0.00 | 0.00 | 39 | 1017.3 |
| 20260510164356 | 25 | 217 | 0.0 | 0.0 | 0.00 | 0.00 | 0.00 | 39 | 1017.4 |
| 20260510164257 | 25 | 134 | 0.0 | 0.0 | 0.00 | 0.00 | 0.00 | 38 | 1017.3 |
| 20260510164157 | 25 | 134 | 0.0 | 0.0 | 0.00 | 0.00 | 0.00 | 37 | 1017.3 |
| 20260510164058 | 25 | 134 | 0.0 | 0.0 | 0.00 | 0.00 | 0.00 | 37 | 1017.4 |
| 20260510163959 | 25 | 134 | 0.0 | 0.0 | 0.00 | 0.00 | 0.00 | 39 | 1017.4 |
| 20260510163858 | 25 | 195 | 0.0 | 0.0 | 0.00 | 0.00 | 0.00 | 37 | 1017.4 |
| 20260510163803 | 25 | 322 | 0.0 | 0.0 | 0.00 | 0.00 | 0.00 | 37 | 1017.3 |
| 20260510163643 | 25 | 308 | 0.0 | 0.0 | 0.00 | 0.00 | 0.00 | 37 | 1017.3 |
| 20260510163544 | 25 | 308 | 0.0 | 0.0 | 0.00 | 0.00 | 0.00 | 37 | 1017.3 |
| 20260510163444 | 25 | 313 | 0.0 | 0.0 | 0.00 | 0.00 | 0.00 | 38 | 1017.4 |
| 20260510163344 | 25 | 313 | 0.0 | 0.0 | 0.00 | 0.00 | 0.00 | 37 | 1017.3 |
| 20260510163242 | 25 | 313 | 0.0 | 0.0 | 0.00 | 0.00 | 0.00 | 37 | 1017.4 |
| 20260510163142 | 25 | 325 | 0.0 | 0.0 | 0.00 | 0.00 | 0.00 | 37 | 1017.3 |
| 20260510163103 | 25 | 313 | 0.0 | 0.0 | 0.00 | 0.00 | 0.00 | 38 | 1017.4 |
| 20260510163006 | 25 | 308 | 0.0 | 0.0 | 0.00 | 0.00 | 0.00 | 41 | 1016.7 |
| 20260510162946 | 25 | 342 | 0.0 | 0.0 | 0.00 | 0.00 | 0.00 | 41 | 1017.3 |
| 20260510162846 | 25 | 5 | 0.0 | 0.0 | 0.00 | 0.00 | 0.00 | 39 | 1017.3 |
| 20260510162808 | 25 | 355 | 0.0 | 0.0 | 0.00 | 0.00 | 0.00 | 39 | 1017.4 |
| 20260510162647 | 25 | 42 | 0.0 | 0.0 | 0.00 | 0.00 | 0.00 | 40 | 1017.4 |
| 20260510162548 | 25 | 24 | 0.0 | 0.0 | 0.00 | 0.00 | 0.00 | 39 | 1017.4 |
| 20260510162448 | 25 | 27 | 0.0 | 0.0 | 0.00 | 0.00 | 0.00 | 38 | 1017.4 |
| 20260510162409 | 25 | 28 | 0.0 | 0.0 | 0.00 | 0.00 | 0.00 | 35 | 1017.4 |
| 20260510162248 | 25 | 30 | 0.0 | 0.0 | 0.00 | 0.00 | 0.00 | 38 | 1017.5 |
| 20260510162213 | 25 | 311 | 0.0 | 0.0 | 0.00 | 0.00 | 0.00 | 38 | 1017.5 |
| 20260510162053 | 25 | 312 | 0.0 | 0.0 | 0.00 | 0.00 | 0.00 | 37 | 1017.5 |
| 20260510161952 | 25 | 286 | 0.0 | 0.0 | 0.00 | 0.00 | 0.00 | 41 | 1017.5 |
| 20260510161854 | 25 | 298 | 0.0 | 0.0 | 0.00 | 0.03 | 0.00 | 40 | 1017.5 |
| 20260510161755 | 25 | 292 | 0.0 | 0.0 | 0.00 | 0.03 | 0.00 | 40 | 1017.5 |
| 20260510161655 | 25 | 27 | 0.0 | 0.0 | 0.00 | 0.03 | 0.00 | 39 | 1017.5 |
| 20260510161614 | 25 | 27 | 0.0 | 0.0 | 0.00 | 0.03 | 0.00 | 39 | 1016.9 |
| 20260510161557 | 25 | 27 | 0.0 | 0.0 | 0.00 | 0.03 | 0.00 | 39 | 1017.5 |
| 20260510161443 | 25 | 24 | 0.0 | 0.0 | 0.00 | 0.03 | 0.00 | 38 | 1017.6 |
| 20260510161344 | 25 | 16 | 0.0 | 0.0 | 0.00 | 0.03 | 0.00 | 40 | 1017.6 |
| 20260510161243 | 25 | 13 | 0.0 | 0.0 | 0.00 | 0.03 | 0.00 | 39 | 1017.5 |
| 20260510161144 | 25 | 329 | 0.0 | 0.0 | 0.00 | 0.03 | 0.00 | 45 | 1017.6 |
| 20260510161105 | 25 | 350 | 0.0 | 0.0 | 0.00 | 0.03 | 0.00 | 43 | 1017.6 |
| 20260510161005 | 25 | 355 | 0.0 | 0.0 | 0.00 | 0.03 | 0.00 | 43 | 1017.6 |
| 20260510160843 | 25 | 330 | 0.0 | 0.0 | 0.00 | 0.03 | 0.00 | 45 | 1017.5 |
| 20260510160741 | 25 | 36 | 0.0 | 0.0 | 0.00 | 0.03 | 0.00 | 45 | 1017.5 |
| 20260510160646 | 25 | 57 | 0.0 | 0.0 | 0.00 | 0.03 | 0.00 | 43 | 1017.5 |
| 20260510160548 | 25 | 19 | 0.0 | 0.0 | 0.00 | 0.03 | 0.00 | 48 | 1017.5 |
| 20260510160450 | 25 | 22 | 0.0 | 0.0 | 0.00 | 0.03 | 0.00 | 46 | 1017.5 |
| 20260510160351 | 25 | 22 | 0.0 | 0.0 | 0.00 | 0.03 | 0.00 | 45 | 1017.5 |
| 20260510160312 | 25 | 22 | 0.0 | 0.0 | 0.00 | 0.03 | 0.00 | 44 | 1017.5 |
| 20260510160223 | 25 | 22 | 0.0 | 0.0 | 0.00 | 0.03 | 0.00 | 44 | 1017.5 |
| 20260510155949 | 25 | 20 | 0.0 | 0.0 | 0.00 | 0.03 | 0.00 | 46 | 1017.5 |
| 20260510155849 | 25 | 9 | 0.0 | 0.0 | 0.00 | 0.03 | 0.00 | 45 | 1017.5 |
| 20260510155750 | 25 | 9 | 0.0 | 0.0 | 0.00 | 0.03 | 0.00 | 46 | 1017.5 |
| 20260510155650 | 25 | 327 | 0.0 | 0.0 | 0.00 | 0.03 | 0.00 | 43 | 1017.5 |
| 20260510155552 | 25 | 45 | 0.0 | 0.0 | 0.00 | 0.03 | 0.00 | 44 | 1017.5 |
| 20260510155454 | 25 | 350 | 0.0 | 0.0 | 0.00 | 0.03 | 0.00 | 43 | 1017.5 |
| 20260510155400 | 25 | 333 | 0.0 | 0.0 | 0.00 | 0.03 | 0.00 | 42 | 1017.5 |
| 20260510155242 | 25 | 11 | 0.0 | 0.0 | 0.00 | 0.03 | 0.00 | 45 | 1017.5 |
| 20260510155141 | 25 | 351 | 0.0 | 0.0 | 0.00 | 0.03 | 0.00 | 46 | 1017.6 |
| 20260510155041 | 25 | 344 | 0.0 | 0.0 | 0.00 | 0.03 | 0.00 | 45 | 1017.5 |
| 20260510154942 | 25 | 340 | 0.0 | 0.0 | 0.00 | 0.03 | 0.00 | 46 | 1017.5 |
| 20260510154842 | 25 | 360 | 0.0 | 0.0 | 0.00 | 0.03 | 0.00 | 48 | 1017.5 |
| 20260510154746 | 25 | 360 | 0.0 | 0.0 | 0.00 | 0.03 | 0.00 | 46 | 1017.5 |
| 20260510154648 | 25 | 15 | 0.0 | 0.0 | 0.00 | 0.03 | 0.00 | 48 | 1017.5 |
| 20260510154601 | 24 | 21 | 0.0 | 0.0 | 0.00 | 0.03 | 0.00 | 48 | 1016.9 |
| 20260510154547 | 24 | 5 | 0.0 | 0.0 | 0.00 | 0.03 | 0.00 | 50 | 1017.5 |
| 20260510154448 | 24 | 344 | 0.0 | 0.0 | 0.00 | 0.03 | 0.00 | 47 | 1017.5 |
| 20260510154350 | 24 | 159 | 0.0 | 0.0 | 0.00 | 0.03 | 0.00 | 47 | 1017.5 |
| 20260510154252 | 24 | 159 | 0.0 | 0.0 | 0.00 | 0.03 | 0.00 | 46 | 1017.5 |
| 20260510154153 | 24 | 5 | 0.0 | 0.0 | 0.00 | 0.03 | 0.00 | 48 | 1017.5 |
| 20260510154119 | 24 | 349 | 0.0 | 0.0 | 0.00 | 0.03 | 0.00 | 51 | 1017.6 |
| 20260510153959 | 24 | 348 | 0.0 | 0.0 | 0.00 | 0.03 | 0.00 | 49 | 1017.5 |
| 20260510153859 | 24 | 348 | 0.0 | 0.0 | 0.00 | 0.03 | 0.00 | 50 | 1017.5 |
| 20260510153741 | 24 | 340 | 0.0 | 0.0 | 0.00 | 0.03 | 0.00 | 49 | 1017.4 |
| 20260510153642 | 24 | 342 | 0.0 | 0.0 | 0.00 | 0.03 | 0.00 | 52 | 1017.4 |
| 20260510153543 | 24 | 337 | 0.0 | 0.0 | 0.00 | 0.03 | 0.00 | 49 | 1017.4 |
| 20260510153441 | 24 | 333 | 0.0 | 0.0 | 0.00 | 0.03 | 0.00 | 49 | 1017.4 |
| 20260510153346 | 24 | 333 | 0.0 | 0.0 | 0.00 | 0.03 | 0.00 | 50 | 1017.5 |
| 20260510153247 | 24 | 333 | 0.0 | 0.0 | 0.00 | 0.03 | 0.00 | 53 | 1017.5 |
| 20260510153148 | 24 | 333 | 0.0 | 0.0 | 0.00 | 0.03 | 0.00 | 50 | 1017.4 |
| 20260510153049 | 24 | 333 | 0.0 | 0.0 | 0.00 | 0.03 | 0.00 | 50 | 1017.4 |
| 20260510153013 | 24 | 360 | 0.0 | 0.0 | 0.00 | 0.03 | 0.00 | 51 | 1016.9 |
| 20260510152949 | 24 | 333 | 0.0 | 0.0 | 0.00 | 0.03 | 0.00 | 51 | 1017.5 |
| 20260510152848 | 24 | 335 | 0.0 | 0.0 | 0.00 | 0.03 | 0.00 | 49 | 1017.5 |
| 20260510152746 | 24 | 329 | 0.0 | 0.0 | 0.00 | 0.03 | 0.00 | 50 | 1017.5 |
| 20260510152650 | 24 | 342 | 0.0 | 0.0 | 0.00 | 0.03 | 0.00 | 52 | 1017.5 |
| 20260510152549 | 24 | 29 | 0.0 | 0.0 | 0.00 | 0.03 | 0.00 | 54 | 1017.5 |
| 20260510152449 | 24 | 307 | 0.0 | 0.0 | 0.00 | 0.03 | 0.00 | 50 | 1017.6 |
| 20260510152409 | 24 | 344 | 0.0 | 0.0 | 0.00 | 0.03 | 0.00 | 49 | 1017.6 |
| 20260510152247 | 24 | 5 | 0.0 | 0.0 | 0.00 | 0.03 | 0.00 | 49 | 1017.6 |
| 20260510152148 | 24 | 16 | 0.0 | 0.0 | 0.00 | 0.03 | 0.00 | 51 | 1017.7 |
| 20260510152047 | 24 | 9 | 0.0 | 0.0 | 0.00 | 0.03 | 0.00 | 48 | 1017.7 |
| 20260510151949 | 24 | 24 | 0.0 | 0.0 | 0.00 | 0.03 | 0.00 | 48 | 1017.7 |
| 20260510151849 | 24 | 360 | 0.0 | 0.0 | 0.00 | 0.03 | 0.00 | 49 | 1017.7 |
| 20260510151748 | 24 | 5 | 0.0 | 0.0 | 0.00 | 0.03 | 0.00 | 51 | 1017.6 |
| 20260510151706 | 24 | 5 | 0.0 | 0.0 | 0.00 | 0.03 | 0.00 | 51 | 1017.7 |
| 20260510151546 | 24 | 17 | 0.0 | 0.0 | 0.00 | 0.03 | 0.00 | 50 | 1017.7 |
| 20260510151519 | 24 | 360 | 0.0 | 0.0 | 0.00 | 0.03 | 0.00 | 50 | 1017.1 |
| 20260510151446 | 24 | 310 | 0.0 | 0.0 | 0.00 | 0.03 | 0.00 | 50 | 1017.7 |
| 20260510151347 | 24 | 342 | 0.0 | 0.0 | 0.00 | 0.03 | 0.00 | 50 | 1017.7 |
| 20260510151252 | 24 | 332 | 0.0 | 0.0 | 0.00 | 0.03 | 0.00 | 52 | 1017.7 |
| 20260510151153 | 24 | 317 | 0.0 | 0.0 | 0.00 | 0.03 | 0.00 | 52 | 1017.7 |
| 20260510151054 | 24 | 342 | 0.0 | 0.0 | 0.00 | 0.03 | 0.00 | 55 | 1017.6 |
| 20260510151015 | 24 | 360 | 0.0 | 0.0 | 0.00 | 0.03 | 0.00 | 53 | 1017.7 |
| 20260510150914 | 24 | 349 | 0.0 | 0.0 | 0.00 | 0.03 | 0.00 | 56 | 1017.7 |
| 20260510150753 | 24 | 338 | 0.0 | 0.0 | 0.00 | 0.03 | 0.00 | 55 | 1017.6 |
| 20260510150711 | 24 | 345 | 0.0 | 0.0 | 0.00 | 0.03 | 0.00 | 53 | 1017.7 |
| 20260510150551 | 24 | 339 | 0.0 | 0.0 | 0.00 | 0.03 | 0.00 | 55 | 1017.7 |
| 20260510150456 | 24 | 338 | 0.0 | 0.0 | 0.00 | 0.03 | 0.00 | 54 | 1017.7 |
| 20260510150357 | 24 | 340 | 0.0 | 0.0 | 0.00 | 0.03 | 0.00 | 50 | 1017.7 |
| 20260510150301 | 24 | 346 | 0.0 | 0.0 | 0.00 | 0.03 | 0.00 | 50 | 1017.7 |
| 20260510150229 | 24 | 346 | 0.0 | 0.0 | 0.00 | 0.03 | 0.00 | 50 | 1017.7 |
| 20260510150016 | 24 | 336 | 0.0 | 0.0 | 0.00 | 0.03 | 0.00 | 50 | 1017.8 |
| 20260510145855 | 24 | 355 | 0.0 | 0.0 | 0.00 | 0.03 | 0.00 | 56 | 1017.8 |
| 20260510145819 | 24 | 355 | 0.0 | 0.0 | 0.00 | 0.03 | 0.00 | 57 | 1017.9 |
| 20260510145659 | 24 | 360 | 0.0 | 0.0 | 0.00 | 0.03 | 0.00 | 58 | 1017.9 |
| 20260510145558 | 24 | 360 | 0.0 | 0.0 | 0.00 | 0.03 | 0.00 | 58 | 1017.9 |
| 20260510145459 | 23 | 360 | 0.0 | 0.0 | 0.00 | 0.03 | 0.00 | 62 | 1017.9 |
| 20260510145400 | 23 | 360 | 0.0 | 0.0 | 0.00 | 0.03 | 0.00 | 62 | 1017.8 |
| 20260510145320 | 23 | 360 | 0.0 | 0.0 | 0.00 | 0.03 | 0.00 | 61 | 1017.8 |
| 20260510145219 | 23 | 360 | 0.0 | 0.0 | 0.00 | 0.03 | 0.00 | 62 | 1017.9 |
| 20260510145057 | 23 | 360 | 0.0 | 0.0 | 0.00 | 0.03 | 0.00 | 63 | 1017.9 |
| 20260510145000 | 23 | 360 | 0.0 | 0.0 | 0.00 | 0.03 | 0.00 | 62 | 1017.8 |
| 20260510144901 | 23 | 360 | 0.0 | 0.0 | 0.00 | 0.03 | 0.00 | 61 | 1017.9 |
| 20260510144822 | 23 | 360 | 0.0 | 0.0 | 0.00 | 0.03 | 0.00 | 62 | 1017.9 |
| 20260510144700 | 23 | 360 | 0.0 | 0.0 | 0.00 | 0.03 | 0.00 | 61 | 1017.9 |
| 20260510144541 | 23 | 17 | 0.0 | 0.0 | 0.00 | 0.03 | 0.00 | 60 | 1017.9 |
| 20260510144523 | 23 | 5 | 0.0 | 0.0 | 0.00 | 0.03 | 0.00 | 60 | 1017.2 |
| 20260510144441 | 23 | 5 | 0.0 | 0.0 | 0.00 | 0.03 | 0.00 | 60 | 1017.9 |
| 20260510144342 | 23 | 355 | 0.0 | 0.0 | 0.00 | 0.03 | 0.00 | 61 | 1017.9 |
| 20260510144247 | 23 | 349 | 0.0 | 0.0 | 0.00 | 0.03 | 0.00 | 61 | 1017.9 |
| 20260510144148 | 23 | 351 | 0.0 | 0.0 | 0.00 | 0.03 | 0.00 | 61 | 1017.9 |
| 20260510144049 | 23 | 348 | 0.0 | 0.0 | 0.00 | 0.03 | 0.00 | 61 | 1017.8 |
| 20260510143947 | 23 | 325 | 0.0 | 0.0 | 0.00 | 0.03 | 0.00 | 61 | 1017.8 |
| 20260510143848 | 23 | 321 | 0.0 | 0.0 | 0.00 | 0.03 | 0.00 | 62 | 1017.9 |
| 20260510143749 | 23 | 344 | 0.0 | 0.0 | 0.00 | 0.03 | 0.00 | 61 | 1017.8 |
| 20260510143648 | 23 | 360 | 0.0 | 0.0 | 0.00 | 0.03 | 0.00 | 62 | 1017.7 |
| 20260510143546 | 23 | 5 | 0.0 | 0.0 | 0.00 | 0.03 | 0.00 | 61 | 1017.8 |
| 20260510143510 | 23 | 355 | 0.0 | 0.0 | 0.00 | 0.03 | 0.00 | 62 | 1017.7 |
| 20260510143409 | 23 | 313 | 0.0 | 0.0 | 0.00 | 0.03 | 0.00 | 64 | 1017.7 |
| 20260510143307 | 23 | 312 | 0.0 | 0.0 | 0.00 | 0.03 | 0.00 | 65 | 1017.7 |
| 20260510143141 | 23 | 312 | 0.0 | 0.0 | 0.00 | 0.03 | 0.00 | 65 | 1017.8 |
| 20260510143102 | 23 | 312 | 0.0 | 0.0 | 0.00 | 0.03 | 0.00 | 66 | 1017.2 |
| 20260510143042 | 23 | 312 | 0.0 | 0.0 | 0.00 | 0.03 | 0.00 | 64 | 1017.7 |
| 20260510142943 | 23 | 313 | 0.0 | 0.0 | 0.00 | 0.03 | 0.00 | 66 | 1017.7 |
| 20260510142844 | 23 | 310 | 0.0 | 0.0 | 0.00 | 0.03 | 0.00 | 67 | 1017.8 |
| 20260510142749 | 23 | 348 | 0.0 | 0.0 | 0.00 | 0.03 | 0.00 | 63 | 1017.8 |
| 20260510142649 | 23 | 298 | 0.0 | 0.0 | 0.00 | 0.03 | 0.00 | 64 | 1017.7 |
| 20260510142609 | 23 | 190 | 0.0 | 0.0 | 0.00 | 0.03 | 0.00 | 63 | 1017.8 |
| 20260510142441 | 23 | 350 | 0.0 | 0.0 | 0.00 | 0.03 | 0.00 | 67 | 1017.8 |
| 20260510142342 | 23 | 344 | 0.0 | 0.0 | 0.00 | 0.03 | 0.00 | 66 | 1017.7 |
| 20260510142243 | 23 | 345 | 0.0 | 0.0 | 0.00 | 0.03 | 0.00 | 65 | 1017.7 |
| 20260510142143 | 23 | 350 | 0.0 | 0.0 | 0.00 | 0.03 | 0.00 | 62 | 1017.7 |
| 20260510142047 | 23 | 325 | 0.0 | 0.0 | 0.00 | 0.03 | 0.00 | 62 | 1017.7 |
| 20260510141949 | 23 | 327 | 0.0 | 0.0 | 0.00 | 0.03 | 0.00 | 62 | 1017.7 |
| 20260510141849 | 23 | 355 | 0.0 | 0.0 | 0.00 | 0.03 | 0.00 | 64 | 1017.7 |
| 20260510141749 | 22 | 355 | 0.0 | 0.0 | 0.00 | 0.03 | 0.00 | 65 | 1017.7 |
| 20260510141651 | 22 | 348 | 0.0 | 0.0 | 0.00 | 0.03 | 0.00 | 65 | 1017.7 |
| 20260510141612 | 22 | 346 | 0.0 | 0.0 | 0.00 | 0.03 | 0.00 | 67 | 1017.7 |
| 20260510141509 | 22 | 323 | 0.0 | 0.0 | 0.00 | 0.03 | 0.00 | 66 | 1017.2 |
| 20260510141452 | 22 | 350 | 0.0 | 0.0 | 0.00 | 0.03 | 0.00 | 66 | 1017.7 |
| 20260510141418 | 22 | 324 | 0.0 | 0.0 | 0.00 | 0.03 | 0.00 | 65 | 1017.7 |
| 20260510141258 | 22 | 339 | 0.0 | 0.0 | 0.00 | 0.03 | 0.00 | 67 | 1017.7 |
| 20260510141158 | 22 | 342 | 0.0 | 0.0 | 0.00 | 0.03 | 0.00 | 66 | 1017.6 |
| 20260510141059 | 22 | 342 | 0.0 | 0.0 | 0.00 | 0.03 | 0.00 | 67 | 1017.6 |
| 20260510140959 | 22 | 334 | 0.0 | 0.0 | 0.00 | 0.03 | 0.00 | 67 | 1017.6 |
| 20260510140858 | 22 | 344 | 0.0 | 0.0 | 0.00 | 0.03 | 0.00 | 67 | 1017.6 |
| 20260510140743 | 22 | 355 | 0.0 | 0.0 | 0.00 | 0.03 | 0.00 | 69 | 1017.7 |
| 20260510140645 | 22 | 346 | 0.0 | 0.0 | 0.00 | 0.03 | 0.00 | 66 | 1017.6 |
| 20260510140547 | 22 | 337 | 0.0 | 0.0 | 0.00 | 0.03 | 0.00 | 67 | 1017.7 |
| 20260510140446 | 22 | 23 | 0.0 | 0.0 | 0.00 | 0.03 | 0.00 | 68 | 1017.7 |
| 20260510140346 | 22 | 15 | 0.0 | 0.0 | 0.00 | 0.03 | 0.00 | 70 | 1017.6 |
| 20260510140307 | 22 | 329 | 0.0 | 0.0 | 0.00 | 0.03 | 0.00 | 68 | 1017.6 |
| 20260510140217 | 22 | 329 | 0.0 | 0.0 | 0.00 | 0.03 | 0.00 | 68 | 1017.6 |
| 20260510135944 | 22 | 320 | 0.0 | 0.0 | 0.00 | 0.03 | 0.00 | 71 | 1017.5 |
| 20260510135845 | 22 | 12 | 0.0 | 0.0 | 0.00 | 0.03 | 0.00 | 70 | 1017.5 |
| 20260510135745 | 22 | 327 | 0.0 | 0.0 | 0.00 | 0.03 | 0.00 | 70 | 1017.5 |
| 20260510135646 | 22 | 28 | 0.0 | 0.0 | 0.00 | 0.03 | 0.00 | 69 | 1017.6 |
| 20260510135546 | 22 | 350 | 0.0 | 0.0 | 0.00 | 0.03 | 0.00 | 70 | 1017.5 |
| 20260510135447 | 22 | 355 | 0.0 | 0.0 | 0.00 | 0.03 | 0.00 | 71 | 1017.6 |
| 20260510135352 | 22 | 5 | 0.0 | 0.0 | 0.00 | 0.03 | 0.00 | 71 | 1017.6 |
| 20260510135253 | 22 | 5 | 0.0 | 0.0 | 0.00 | 0.03 | 0.00 | 71 | 1017.7 |
| 20260510135153 | 22 | 350 | 0.0 | 0.0 | 0.00 | 0.03 | 0.00 | 70 | 1017.7 |
| 20260510135053 | 22 | 342 | 0.0 | 0.0 | 0.00 | 0.03 | 0.00 | 72 | 1017.7 |
| 20260510135014 | 22 | 344 | 0.0 | 0.0 | 0.00 | 0.03 | 0.00 | 74 | 1017.7 |
| 20260510134853 | 22 | 344 | 0.0 | 0.0 | 0.00 | 0.03 | 0.00 | 73 | 1017.7 |
| 20260510134754 | 22 | 344 | 0.0 | 0.0 | 0.00 | 0.03 | 0.00 | 72 | 1017.7 |
| 20260510134658 | 21 | 343 | 0.0 | 0.0 | 0.00 | 0.03 | 0.00 | 72 | 1017.7 |
| 20260510134629 | 21 | 344 | 0.0 | 0.0 | 0.00 | 0.03 | 0.00 | 72 | 1017.1 |
| 20260510134558 | 21 | 355 | 0.0 | 0.0 | 0.00 | 0.03 | 0.00 | 72 | 1017.7 |
| 20260510134457 | 21 | 355 | 0.0 | 0.0 | 0.00 | 0.03 | 0.00 | 72 | 1017.6 |
| 20260510134358 | 21 | 347 | 0.0 | 0.0 | 0.00 | 0.03 | 0.00 | 73 | 1017.7 |
| 20260510134259 | 21 | 347 | 0.0 | 0.0 | 0.00 | 0.03 | 0.00 | 73 | 1017.7 |
| 20260510134200 | 21 | 355 | 0.0 | 0.0 | 0.00 | 0.03 | 0.00 | 73 | 1017.7 |
| 20260510134121 | 21 | 349 | 0.0 | 0.0 | 0.00 | 0.03 | 0.00 | 73 | 1017.6 |
| 20260510133945 | 21 | 9 | 0.0 | 0.0 | 0.00 | 0.03 | 0.00 | 72 | 1017.6 |
| 20260510133845 | 21 | 333 | 0.0 | 0.0 | 0.00 | 0.03 | 0.00 | 74 | 1017.6 |
| 20260510133809 | 21 | 17 | 0.0 | 0.0 | 0.00 | 0.03 | 0.00 | 74 | 1017.6 |
| 20260510133730 | 21 | 5 | 0.0 | 0.0 | 0.00 | 0.03 | 0.00 | 74 | 1017.6 |
| 20260510133458 | 21 | 5 | 0.0 | 0.0 | 0.00 | 0.03 | 0.00 | 74 | 1017.8 |
| 20260510133359 | 21 | 355 | 0.0 | 0.0 | 0.00 | 0.03 | 0.00 | 75 | 1017.8 |
| 20260510133242 | 21 | 345 | 0.0 | 0.0 | 0.00 | 0.03 | 0.00 | 76 | 1017.8 |
| 20260510133142 | 21 | 360 | 0.0 | 0.0 | 0.00 | 0.03 | 0.00 | 80 | 1017.8 |
| 20260510133057 | 21 | 332 | 0.0 | 0.0 | 0.00 | 0.03 | 0.00 | 80 | 1017.2 |
| 20260510133042 | 21 | 317 | 0.0 | 0.0 | 0.00 | 0.03 | 0.00 | 80 | 1017.7 |
| 20260510132942 | 21 | 311 | 0.0 | 0.0 | 0.00 | 0.03 | 0.00 | 80 | 1017.7 |
| 20260510132843 | 21 | 12 | 0.0 | 0.0 | 0.00 | 0.03 | 0.00 | 79 | 1017.7 |
| 20260510132804 | 21 | 336 | 0.0 | 0.0 | 0.00 | 0.03 | 0.00 | 79 | 1017.8 |
| 20260510132644 | 21 | 335 | 0.0 | 0.0 | 0.00 | 0.03 | 0.00 | 78 | 1017.8 |
| 20260510132605 | 21 | 309 | 0.0 | 0.0 | 0.00 | 0.03 | 0.00 | 79 | 1017.8 |
| 20260510132449 | 21 | 309 | 0.0 | 0.0 | 0.00 | 0.03 | 0.00 | 79 | 1017.8 |
| 20260510132409 | 21 | 307 | 0.0 | 0.0 | 0.00 | 0.03 | 0.00 | 79 | 1017.8 |
| 20260510132249 | 21 | 338 | 0.0 | 0.0 | 0.00 | 0.03 | 0.00 | 80 | 1017.7 |
| 20260510132150 | 21 | 360 | 0.0 | 0.0 | 0.00 | 0.03 | 0.00 | 81 | 1017.7 |
| 20260510132048 | 21 | 338 | 0.0 | 0.0 | 0.00 | 0.03 | 0.00 | 81 | 1017.7 |
| 20260510131948 | 20 | 338 | 0.0 | 0.0 | 0.00 | 0.03 | 0.00 | 84 | 1017.7 |
| 20260510131909 | 20 | 338 | 0.0 | 0.0 | 0.00 | 0.03 | 0.00 | 85 | 1017.7 |
| 20260510131749 | 20 | 338 | 0.0 | 0.0 | 0.00 | 0.03 | 0.00 | 86 | 1017.7 |
| 20260510131652 | 20 | 336 | 0.0 | 0.0 | 0.00 | 0.03 | 0.00 | 87 | 1017.7 |
| 20260510131553 | 20 | 5 | 0.0 | 0.0 | 0.00 | 0.03 | 0.00 | 87 | 1017.7 |
| 20260510131545 | 20 | 5 | 0.0 | 0.0 | 0.00 | 0.03 | 0.00 | 87 | 1017.2 |
| 20260510131451 | 20 | 5 | 0.0 | 0.0 | 0.00 | 0.03 | 0.00 | 87 | 1017.8 |
| 20260510131350 | 20 | 5 | 0.0 | 0.0 | 0.00 | 0.03 | 0.00 | 86 | 1017.7 |
| 20260510131249 | 20 | 5 | 0.0 | 0.0 | 0.00 | 0.03 | 0.00 | 87 | 1017.8 |
| 20260510131148 | 20 | 5 | 0.0 | 0.0 | 0.00 | 0.03 | 0.00 | 87 | 1017.8 |
| 20260510131051 | 20 | 5 | 0.0 | 0.0 | 0.00 | 0.03 | 0.00 | 88 | 1017.8 |
| 20260510130950 | 20 | 5 | 0.0 | 0.0 | 0.00 | 0.03 | 0.00 | 89 | 1017.7 |
| 20260510130848 | 20 | 5 | 0.0 | 0.0 | 0.00 | 0.03 | 0.00 | 89 | 1017.7 |
| 20260510130747 | 20 | 5 | 0.0 | 0.0 | 0.00 | 0.03 | 0.00 | 89 | 1017.7 |
| 20260510130707 | 20 | 5 | 0.0 | 0.0 | 0.00 | 0.03 | 0.00 | 90 | 1017.7 |
| 20260510130545 | 20 | 5 | 0.0 | 0.0 | 0.00 | 0.03 | 0.00 | 90 | 1017.8 |
| 20260510130508 | 19 | 5 | 0.0 | 0.0 | 0.00 | 0.03 | 0.00 | 91 | 1017.8 |
| 20260510130428 | 19 | 292 | 0.0 | 0.0 | 0.00 | 0.03 | 0.00 | 91 | 1017.8 |
| 20260510130253 | 19 | 292 | 0.0 | 0.0 | 0.00 | 0.03 | 0.00 | 91 | 1017.8 |
| 20260510130218 | 19 | 292 | 0.0 | 0.0 | 0.00 | 0.03 | 0.00 | 91 | 1017.8 |
| 20260510125943 | 19 | 292 | 0.0 | 0.0 | 0.00 | 0.03 | 0.00 | 92 | 1017.8 |
| 20260510125842 | 19 | 292 | 0.0 | 0.0 | 0.00 | 0.03 | 0.00 | 92 | 1017.7 |
| 20260510125741 | 18 | 292 | 0.0 | 0.0 | 0.00 | 0.03 | 0.00 | 92 | 1017.7 |
| 20260510125644 | 18 | 292 | 0.0 | 0.0 | 0.00 | 0.03 | 0.00 | 92 | 1017.7 |
| 20260510125543 | 18 | 292 | 0.0 | 0.0 | 0.00 | 0.03 | 0.00 | 93 | 1017.7 |
| 20260510125442 | 18 | 289 | 0.0 | 0.0 | 0.00 | 0.03 | 0.00 | 93 | 1017.7 |
| 20260510125341 | 18 | 281 | 0.0 | 0.0 | 0.00 | 0.03 | 0.00 | 93 | 1017.7 |
| 20260510125300 | 18 | 279 | 0.0 | 0.0 | 0.00 | 0.03 | 0.00 | 93 | 1017.7 |
| 20260510125158 | 18 | 275 | 0.0 | 0.0 | 0.00 | 0.03 | 0.00 | 93 | 1017.6 |
| 20260510125057 | 18 | 275 | 0.0 | 0.0 | 0.00 | 0.03 | 0.00 | 93 | 1017.7 |
| 20260510125000 | 18 | 334 | 0.0 | 0.0 | 0.00 | 0.03 | 0.00 | 93 | 1017.7 |
| 20260510124919 | 18 | 334 | 0.0 | 0.0 | 0.00 | 0.03 | 0.00 | 93 | 1017.6 |
| 20260510124817 | 18 | 334 | 0.0 | 0.0 | 0.00 | 0.03 | 0.00 | 94 | 1017.7 |
| 20260510124655 | 18 | 334 | 0.0 | 0.0 | 0.00 | 0.03 | 0.00 | 94 | 1017.6 |
| 20260510124555 | 18 | 334 | 0.0 | 0.0 | 0.00 | 0.03 | 0.00 | 95 | 1017.6 |
| 20260510124512 | 17 | 331 | 0.0 | 0.0 | 0.00 | 0.03 | 0.00 | 95 | 1017.1 |
| 20260510124454 | 18 | 333 | 0.0 | 0.0 | 0.00 | 0.03 | 0.00 | 95 | 1017.6 |
| 20260510124354 | 18 | 81 | 0.0 | 0.0 | 0.00 | 0.03 | 0.00 | 95 | 1017.6 |
| 20260510124254 | 18 | 340 | 0.0 | 0.0 | 0.00 | 0.03 | 0.00 | 96 | 1017.6 |
| 20260510124155 | 18 | 338 | 0.0 | 0.0 | 0.00 | 0.03 | 0.00 | 96 | 1017.6 |
| 20260510124055 | 18 | 355 | 0.0 | 0.0 | 0.00 | 0.03 | 0.00 | 96 | 1017.6 |
| 20260510123955 | 18 | 360 | 0.0 | 0.0 | 0.00 | 0.03 | 0.00 | 96 | 1017.5 |
| 20260510123854 | 18 | 360 | 0.0 | 0.0 | 0.00 | 0.03 | 0.00 | 96 | 1017.5 |
| 20260510123754 | 18 | 121 | 0.0 | 0.0 | 0.00 | 0.03 | 0.00 | 96 | 1017.6 |
| 20260510123654 | 18 | 121 | 0.0 | 0.0 | 0.00 | 0.03 | 0.00 | 97 | 1017.5 |
| 20260510123558 | 18 | 121 | 0.0 | 0.0 | 0.00 | 0.03 | 0.00 | 97 | 1017.6 |
| 20260510123457 | 17 | 121 | 0.0 | 0.0 | 0.00 | 0.03 | 0.00 | 96 | 1017.5 |
| 20260510123356 | 17 | 121 | 0.0 | 0.0 | 0.00 | 0.03 | 0.00 | 96 | 1017.5 |
| 20260510123255 | 17 | 121 | 0.0 | 0.0 | 0.00 | 0.03 | 0.00 | 97 | 1017.4 |
| 20260510123154 | 17 | 121 | 0.0 | 0.0 | 0.00 | 0.03 | 0.00 | 97 | 1017.4 |
| 20260510123131 | 17 | 121 | 0.0 | 0.0 | 0.00 | 0.03 | 0.00 | 97 | 1016.9 |
| 20260510123113 | 17 | 121 | 0.0 | 0.0 | 0.00 | 0.03 | 0.00 | 97 | 1017.4 |
| 20260510122951 | 17 | 121 | 0.0 | 0.0 | 0.00 | 0.03 | 0.00 | 97 | 1017.4 |
| 20260510122854 | 17 | 121 | 0.0 | 0.0 | 0.00 | 0.03 | 0.00 | 97 | 1017.3 |
| 20260510122753 | 17 | 177 | 0.0 | 0.0 | 0.00 | 0.03 | 0.00 | 97 | 1017.3 |
| 20260510122652 | 17 | 177 | 0.0 | 0.0 | 0.00 | 0.03 | 0.00 | 97 | 1017.3 |
| 20260510122551 | 17 | 177 | 0.0 | 0.0 | 0.00 | 0.03 | 0.00 | 97 | 1017.4 |
| 20260510122450 | 17 | 177 | 0.0 | 0.0 | 0.00 | 0.03 | 0.00 | 97 | 1017.3 |
| 20260510122349 | 17 | 178 | 0.0 | 0.0 | 0.00 | 0.03 | 0.00 | 97 | 1017.3 |
| 20260510122248 | 17 | 178 | 0.0 | 0.0 | 0.00 | 0.03 | 0.00 | 97 | 1017.2 |
| 20260510122150 | 17 | 178 | 0.0 | 0.0 | 0.00 | 0.03 | 0.00 | 97 | 1017.3 |
| 20260510122048 | 16 | 178 | 0.0 | 0.0 | 0.00 | 0.03 | 0.00 | 97 | 1017.3 |
| 20260510121947 | 16 | 177 | 0.0 | 0.0 | 0.00 | 0.03 | 0.00 | 97 | 1017.2 |
| 20260510121846 | 16 | 177 | 0.0 | 0.0 | 0.00 | 0.03 | 0.00 | 97 | 1017.2 |
| 20260510121745 | 16 | 177 | 0.0 | 0.0 | 0.00 | 0.03 | 0.00 | 97 | 1017.1 |
| 20260510121645 | 16 | 177 | 0.0 | 0.0 | 0.00 | 0.03 | 0.00 | 97 | 1017.1 |
| 20260510121548 | 16 | 177 | 0.0 | 0.0 | 0.00 | 0.03 | 0.00 | 97 | 1017.1 |
| 20260510121501 | 16 | 177 | 0.0 | 0.0 | 0.00 | 0.03 | 0.00 | 97 | 1016.6 |
| 20260510121448 | 16 | 177 | 0.0 | 0.0 | 0.00 | 0.03 | 0.00 | 97 | 1017.1 |
| 20260510121348 | 16 | 177 | 0.0 | 0.0 | 0.00 | 0.03 | 0.00 | 97 | 1017.0 |
| 20260510121247 | 16 | 177 | 0.0 | 0.0 | 0.00 | 0.03 | 0.00 | 97 | 1017.1 |
| 20260510121146 | 16 | 177 | 0.0 | 0.0 | 0.00 | 0.03 | 0.00 | 97 | 1017.0 |
| 20260510121106 | 16 | 177 | 0.0 | 0.0 | 0.00 | 0.03 | 0.00 | 97 | 1017.0 |
| 20260510120943 | 16 | 177 | 0.0 | 0.0 | 0.00 | 0.03 | 0.00 | 97 | 1017.0 |
| 20260510120901 | 16 | 177 | 0.0 | 0.0 | 0.00 | 0.03 | 0.00 | 97 | 1017.0 |
| 20260510120744 | 16 | 177 | 0.0 | 0.0 | 0.00 | 0.03 | 0.00 | 97 | 1016.9 |
| 20260510120642 | 16 | 177 | 0.0 | 0.0 | 0.00 | 0.03 | 0.00 | 97 | 1016.9 |
| 20260510120601 | 16 | 177 | 0.0 | 0.0 | 0.00 | 0.03 | 0.00 | 97 | 1016.9 |
| 20260510120520 | 16 | 180 | 0.0 | 0.0 | 0.00 | 0.03 | 0.00 | 97 | 1016.8 |
| 20260510120358 | 16 | 180 | 0.0 | 0.0 | 0.00 | 0.03 | 0.00 | 97 | 1016.8 |
| 20260510120257 | 15 | 164 | 0.0 | 0.0 | 0.00 | 0.03 | 0.00 | 97 | 1016.8 |
| 20260510120227 | 15 | 164 | 0.0 | 0.0 | 0.00 | 0.03 | 0.00 | 97 | 1016.8 |
| 20260510120014 | 15 | 164 | 0.0 | 0.0 | 0.00 | 0.03 | 0.00 | 97 | 1016.3 |
| 20260510115953 | 15 | 164 | 0.0 | 0.0 | 0.00 | 0.03 | 0.00 | 97 | 1016.8 |
| 20260510115852 | 15 | 164 | 0.0 | 0.0 | 0.00 | 0.03 | 0.00 | 97 | 1016.9 |
| 20260510115752 | 15 | 164 | 0.0 | 0.0 | 0.00 | 0.03 | 0.00 | 97 | 1016.8 |
| 20260510115651 | 15 | 164 | 0.0 | 0.0 | 0.00 | 0.03 | 0.00 | 97 | 1016.8 |
| 20260510115550 | 15 | 164 | 0.0 | 0.0 | 0.00 | 0.03 | 0.00 | 97 | 1016.9 |
| 20260510115453 | 15 | 164 | 0.0 | 0.0 | 0.00 | 0.03 | 0.00 | 97 | 1016.9 |
| 20260510115352 | 15 | 164 | 0.0 | 0.0 | 0.00 | 0.03 | 0.00 | 97 | 1016.9 |
| 20260510115251 | 15 | 164 | 0.0 | 0.0 | 0.00 | 0.03 | 0.00 | 97 | 1016.8 |
| 20260510115149 | 15 | 164 | 0.0 | 0.0 | 0.00 | 0.03 | 0.00 | 97 | 1016.8 |
| 20260510115109 | 14 | 164 | 0.0 | 0.0 | 0.00 | 0.03 | 0.00 | 97 | 1016.8 |
| 20260510114948 | 14 | 164 | 0.0 | 0.0 | 0.00 | 0.03 | 0.00 | 97 | 1016.8 |
| 20260510114907 | 14 | 164 | 0.0 | 0.0 | 0.00 | 0.03 | 0.00 | 97 | 1016.8 |
| 20260510114745 | 14 | 164 | 0.0 | 0.0 | 0.00 | 0.03 | 0.00 | 97 | 1016.8 |
| 20260510114647 | 14 | 164 | 0.0 | 0.0 | 0.00 | 0.03 | 0.00 | 97 | 1016.7 |
| 20260510114546 | 14 | 164 | 0.0 | 0.0 | 0.00 | 0.03 | 0.00 | 97 | 1016.7 |
| 20260510114526 | 13 | 164 | 0.0 | 0.0 | 0.00 | 0.03 | 0.00 | 97 | 1016.3 |
| 20260510114445 | 14 | 164 | 0.0 | 0.0 | 0.00 | 0.03 | 0.00 | 97 | 1016.7 |
| 20260510114404 | 14 | 164 | 0.0 | 0.0 | 0.00 | 0.03 | 0.00 | 97 | 1016.7 |
| 20260510114242 | 14 | 164 | 0.0 | 0.0 | 0.00 | 0.03 | 0.00 | 97 | 1016.6 |
| 20260510114141 | 14 | 164 | 0.0 | 0.0 | 0.00 | 0.03 | 0.00 | 97 | 1016.7 |
| 20260510114041 | 14 | 164 | 0.0 | 0.0 | 0.00 | 0.03 | 0.00 | 97 | 1016.6 |
| 20260510114004 | 13 | 164 | 0.0 | 0.0 | 0.00 | 0.03 | 0.00 | 97 | 1016.6 |
| 20260510113842 | 13 | 164 | 0.0 | 0.0 | 0.00 | 0.03 | 0.00 | 97 | 1016.7 |
| 20260510113759 | 13 | 164 | 0.0 | 0.0 | 0.00 | 0.03 | 0.00 | 97 | 1016.6 |
| 20260510113657 | 13 | 164 | 0.0 | 0.0 | 0.00 | 0.03 | 0.00 | 96 | 1016.7 |
| 20260510113557 | 13 | 97 | 0.0 | 0.0 | 0.00 | 0.03 | 0.00 | 97 | 1016.6 |
| 20260510113456 | 13 | 344 | 0.0 | 0.0 | 0.00 | 0.03 | 0.00 | 97 | 1016.6 |
| 20260510113355 | 13 | 355 | 0.0 | 0.0 | 0.00 | 0.03 | 0.00 | 97 | 1016.6 |
| 20260510113254 | 13 | 355 | 0.0 | 0.0 | 0.00 | 0.03 | 0.00 | 97 | 1016.6 |
| 20260510113158 | 13 | 355 | 0.0 | 0.0 | 0.00 | 0.03 | 0.00 | 97 | 1016.5 |
| 20260510113058 | 13 | 355 | 0.0 | 0.0 | 0.00 | 0.03 | 0.00 | 97 | 1016.5 |
| 20260510113018 | 13 | 355 | 0.0 | 0.0 | 0.00 | 0.03 | 0.00 | 97 | 1016.1 |
| 20260510112958 | 13 | 355 | 0.0 | 0.0 | 0.00 | 0.03 | 0.00 | 97 | 1016.5 |
| 20260510112917 | 13 | 81 | 0.0 | 0.0 | 0.00 | 0.03 | 0.00 | 97 | 1016.5 |
| 20260510112755 | 13 | 81 | 0.0 | 0.0 | 0.00 | 0.03 | 0.00 | 97 | 1016.5 |
| 20260510112654 | 13 | 82 | 0.0 | 0.0 | 0.00 | 0.03 | 0.00 | 96 | 1016.5 |
| 20260510112552 | 13 | 81 | 0.0 | 0.0 | 0.00 | 0.03 | 0.00 | 97 | 1016.5 |
| 20260510112455 | 13 | 82 | 0.0 | 0.0 | 0.00 | 0.03 | 0.00 | 97 | 1016.4 |
| 20260510112414 | 13 | 82 | 0.0 | 0.0 | 0.00 | 0.03 | 0.00 | 96 | 1016.4 |
| 20260510112253 | 13 | 82 | 0.0 | 0.0 | 0.00 | 0.03 | 0.00 | 96 | 1016.4 |
| 20260510112153 | 13 | 81 | 0.0 | 0.0 | 0.00 | 0.03 | 0.00 | 96 | 1016.4 |
| 20260510112053 | 13 | 82 | 0.0 | 0.0 | 0.00 | 0.03 | 0.00 | 96 | 1016.4 |
| 20260510111953 | 13 | 81 | 0.0 | 0.0 | 0.00 | 0.03 | 0.00 | 96 | 1016.4 |
| 20260510111853 | 13 | 82 | 0.0 | 0.0 | 0.00 | 0.05 | 0.00 | 96 | 1016.4 |
| 20260510111756 | 13 | 82 | 0.0 | 0.0 | 0.00 | 0.05 | 0.00 | 96 | 1016.4 |
| 20260510111655 | 13 | 82 | 0.0 | 0.0 | 0.00 | 0.05 | 0.00 | 96 | 1016.4 |
| 20260510111553 | 13 | 82 | 0.0 | 0.0 | 0.00 | 0.05 | 0.00 | 96 | 1016.4 |
| 20260510111506 | 12 | 82 | 0.0 | 0.0 | 0.00 | 0.05 | 0.00 | 96 | 1016.0 |
| 20260510111452 | 13 | 82 | 0.0 | 0.0 | 0.00 | 0.05 | 0.00 | 96 | 1016.4 |
| 20260510111351 | 13 | 82 | 0.0 | 0.0 | 0.00 | 0.05 | 0.00 | 96 | 1016.4 |
| 20260510111250 | 13 | 82 | 0.0 | 0.0 | 0.00 | 0.05 | 0.00 | 96 | 1016.4 |
| 20260510111150 | 13 | 82 | 0.0 | 0.0 | 0.00 | 0.05 | 0.00 | 96 | 1016.4 |
| 20260510111113 | 13 | 82 | 0.0 | 0.0 | 0.00 | 0.05 | 0.00 | 96 | 1016.4 |
| 20260510111011 | 13 | 84 | 0.0 | 0.0 | 0.00 | 0.05 | 0.00 | 96 | 1016.3 |
| 20260510110849 | 13 | 90 | 0.0 | 0.0 | 0.00 | 0.05 | 0.00 | 96 | 1016.3 |
| 20260510110748 | 13 | 90 | 0.0 | 0.0 | 0.00 | 0.05 | 0.00 | 96 | 1016.3 |
| 20260510110707 | 13 | 90 | 0.0 | 0.0 | 0.00 | 0.05 | 0.00 | 96 | 1016.3 |
| 20260510110545 | 13 | 90 | 0.0 | 0.0 | 0.00 | 0.05 | 0.00 | 96 | 1016.3 |
| 20260510110505 | 13 | 22 | 0.0 | 0.0 | 0.00 | 0.05 | 0.00 | 96 | 1016.3 |
| 20260510110424 | 13 | 22 | 0.0 | 0.0 | 0.00 | 0.05 | 0.00 | 96 | 1016.3 |
| 20260510110305 | 13 | 92 | 0.0 | 0.0 | 0.00 | 0.05 | 0.00 | 96 | 1016.2 |
| 20260510110233 | 13 | 92 | 0.0 | 0.0 | 0.00 | 0.05 | 0.00 | 96 | 1016.2 |
| 20260510110044 | 12 | 92 | 0.0 | 0.0 | 0.00 | 0.05 | 0.00 | 96 | 1015.8 |
| 20260510110000 | 13 | 92 | 0.0 | 0.0 | 0.00 | 0.05 | 0.00 | 96 | 1016.2 |
| 20260510105900 | 13 | 92 | 0.0 | 0.0 | 0.00 | 0.05 | 0.00 | 96 | 1016.2 |
| 20260510105800 | 13 | 92 | 0.0 | 0.0 | 0.00 | 0.05 | 0.00 | 96 | 1016.2 |
| 20260510105700 | 13 | 92 | 0.0 | 0.0 | 0.00 | 0.05 | 0.00 | 96 | 1016.2 |
| 20260510105543 | 13 | 92 | 0.0 | 0.0 | 0.00 | 0.05 | 0.00 | 96 | 1016.2 |
| 20260510105443 | 13 | 92 | 0.0 | 0.0 | 0.00 | 0.05 | 0.00 | 96 | 1016.2 |
| 20260510105342 | 13 | 92 | 0.0 | 0.0 | 0.00 | 0.05 | 0.00 | 96 | 1016.2 |
| 20260510105242 | 13 | 92 | 0.0 | 0.0 | 0.00 | 0.05 | 0.00 | 96 | 1016.2 |
| 20260510105142 | 13 | 92 | 0.0 | 0.0 | 0.00 | 0.05 | 0.00 | 96 | 1016.2 |
| 20260510105042 | 13 | 92 | 0.0 | 0.0 | 0.00 | 0.05 | 0.00 | 96 | 1016.2 |
| 20260510104946 | 13 | 92 | 0.0 | 0.0 | 0.00 | 0.05 | 0.00 | 96 | 1016.2 |
| 20260510104846 | 13 | 92 | 0.0 | 0.0 | 0.00 | 0.05 | 0.00 | 96 | 1016.2 |
| 20260510104747 | 13 | 92 | 0.0 | 0.0 | 0.00 | 0.05 | 0.00 | 96 | 1016.2 |
| 20260510104646 | 13 | 92 | 0.0 | 0.0 | 0.00 | 0.05 | 0.00 | 96 | 1016.2 |
| 20260510104546 | 13 | 92 | 0.0 | 0.0 | 0.00 | 0.05 | 0.00 | 96 | 1016.1 |
| 20260510104512 | 12 | 92 | 0.0 | 0.0 | 0.00 | 0.05 | 0.00 | 96 | 1015.6 |
| 20260510104445 | 13 | 92 | 0.0 | 0.0 | 0.00 | 0.05 | 0.00 | 96 | 1016.1 |
| 20260510104343 | 13 | 92 | 0.0 | 0.0 | 0.00 | 0.05 | 0.00 | 96 | 1016.1 |
| 20260510104247 | 13 | 92 | 0.0 | 0.0 | 0.00 | 0.05 | 0.00 | 96 | 1016.0 |
| 20260510104146 | 13 | 92 | 0.0 | 0.0 | 0.00 | 0.05 | 0.00 | 96 | 1016.0 |
| 20260510104044 | 13 | 92 | 0.0 | 0.0 | 0.00 | 0.05 | 0.00 | 96 | 1016.0 |
| 20260510103943 | 13 | 92 | 0.0 | 0.0 | 0.00 | 0.05 | 0.00 | 96 | 1015.9 |
| 20260510103842 | 13 | 92 | 0.0 | 0.0 | 0.00 | 0.05 | 0.00 | 96 | 1015.9 |
| 20260510103800 | 13 | 92 | 0.0 | 0.0 | 0.00 | 0.05 | 0.00 | 96 | 1015.9 |
| 20260510103643 | 13 | 92 | 0.0 | 0.0 | 0.00 | 0.05 | 0.00 | 96 | 1015.9 |
| 20260510103543 | 13 | 92 | 0.0 | 0.0 | 0.00 | 0.05 | 0.00 | 96 | 1015.9 |
| 20260510103443 | 13 | 92 | 0.0 | 0.0 | 0.00 | 0.05 | 0.00 | 96 | 1015.9 |
| 20260510103403 | 13 | 92 | 0.0 | 0.0 | 0.00 | 0.05 | 0.00 | 96 | 1015.9 |
| 20260510103241 | 13 | 92 | 0.0 | 0.0 | 0.00 | 0.05 | 0.00 | 96 | 1015.9 |
| 20260510103200 | 13 | 92 | 0.0 | 0.0 | 0.00 | 0.05 | 0.00 | 96 | 1015.8 |
| 20260510103058 | 13 | 92 | 0.0 | 0.0 | 0.00 | 0.05 | 0.00 | 96 | 1015.7 |
| 20260510103045 | 12 | 92 | 0.0 | 0.0 | 0.00 | 0.05 | 0.00 | 96 | 1015.3 |
| 20260510102958 | 13 | 92 | 0.0 | 0.0 | 0.00 | 0.05 | 0.00 | 96 | 1015.7 |
| 20260510102900 | 13 | 88 | 0.0 | 0.0 | 0.00 | 0.05 | 0.00 | 96 | 1015.8 |
| 20260510102759 | 13 | 88 | 0.0 | 0.0 | 0.00 | 0.05 | 0.00 | 96 | 1015.7 |
| 20260510102659 | 13 | 88 | 0.0 | 0.0 | 0.00 | 0.05 | 0.00 | 96 | 1015.7 |
| 20260510102558 | 13 | 88 | 0.0 | 0.0 | 0.00 | 0.05 | 0.00 | 96 | 1015.6 |
| 20260510102454 | 13 | 88 | 0.0 | 0.0 | 0.00 | 0.05 | 0.00 | 96 | 1015.6 |
| 20260510102411 | 13 | 88 | 0.0 | 0.0 | 0.00 | 0.05 | 0.00 | 96 | 1015.6 |
| 20260510102309 | 13 | 88 | 0.0 | 0.0 | 0.00 | 0.05 | 0.00 | 96 | 1015.6 |
| 20260510102145 | 13 | 88 | 0.0 | 0.0 | 0.00 | 0.05 | 0.00 | 96 | 1015.6 |
| 20260510102048 | 13 | 88 | 0.0 | 0.0 | 0.00 | 0.05 | 0.00 | 96 | 1015.6 |
| 20260510101943 | 13 | 88 | 0.0 | 0.0 | 0.00 | 0.05 | 0.00 | 96 | 1015.5 |
| 20260510101900 | 13 | 88 | 0.0 | 0.0 | 0.00 | 0.05 | 0.00 | 96 | 1015.5 |
| 20260510101759 | 13 | 88 | 0.0 | 0.0 | 0.00 | 0.05 | 0.00 | 96 | 1015.5 |
| 20260510101718 | 13 | 88 | 0.0 | 0.0 | 0.00 | 0.05 | 0.00 | 96 | 1015.5 |
| 20260510101556 | 13 | 88 | 0.0 | 0.0 | 0.00 | 0.05 | 0.00 | 96 | 1015.5 |
| 20260510101541 | 12 | 88 | 0.0 | 0.0 | 0.00 | 0.05 | 0.00 | 96 | 1015.0 |
| 20260510101454 | 13 | 88 | 0.0 | 0.0 | 0.00 | 0.05 | 0.00 | 96 | 1015.5 |
| 20260510101353 | 13 | 88 | 0.0 | 0.0 | 0.00 | 0.05 | 0.00 | 96 | 1015.5 |
| 20260510101255 | 13 | 88 | 0.0 | 0.0 | 0.00 | 0.05 | 0.00 | 96 | 1015.5 |
| 20260510101155 | 13 | 88 | 0.0 | 0.0 | 0.00 | 0.05 | 0.00 | 96 | 1015.5 |
| 20260510101054 | 13 | 88 | 0.0 | 0.0 | 0.00 | 0.05 | 0.00 | 96 | 1015.4 |
| 20260510100954 | 13 | 88 | 0.0 | 0.0 | 0.00 | 0.05 | 0.00 | 96 | 1015.4 |
| 20260510100854 | 13 | 88 | 0.0 | 0.0 | 0.00 | 0.05 | 0.00 | 96 | 1015.4 |
| 20260510100753 | 13 | 88 | 0.0 | 0.0 | 0.00 | 0.05 | 0.00 | 96 | 1015.4 |
| 20260510100653 | 13 | 88 | 0.0 | 0.0 | 0.00 | 0.05 | 0.00 | 96 | 1015.4 |
| 20260510100614 | 13 | 88 | 0.0 | 0.0 | 0.00 | 0.05 | 0.00 | 96 | 1015.4 |
| 20260510100453 | 13 | 88 | 0.0 | 0.0 | 0.00 | 0.05 | 0.00 | 96 | 1015.4 |
| 20260510100351 | 13 | 63 | 0.0 | 0.0 | 0.00 | 0.05 | 0.00 | 96 | 1015.4 |
| 20260510100315 | 13 | 63 | 0.0 | 0.0 | 0.00 | 0.05 | 0.00 | 96 | 1015.4 |
| 20260510100236 | 13 | 63 | 0.0 | 0.0 | 0.00 | 0.05 | 0.00 | 96 | 1015.4 |
| 20260510100000 | 13 | 64 | 0.0 | 0.0 | 0.00 | 0.05 | 0.00 | 96 | 1015.3 |
| 20260510095903 | 13 | 64 | 0.0 | 0.0 | 0.00 | 0.05 | 0.00 | 96 | 1015.3 |
| 20260510095742 | 13 | 64 | 0.0 | 0.0 | 0.00 | 0.05 | 0.00 | 96 | 1015.3 |
| 20260510095643 | 13 | 64 | 0.0 | 0.0 | 0.00 | 0.05 | 0.00 | 96 | 1015.2 |
| 20260510095600 | 13 | 64 | 0.0 | 0.0 | 0.00 | 0.05 | 0.00 | 96 | 1015.3 |
| 20260510095456 | 13 | 64 | 0.0 | 0.0 | 0.00 | 0.05 | 0.00 | 96 | 1015.3 |
| 20260510095413 | 13 | 64 | 0.0 | 0.0 | 0.00 | 0.05 | 0.00 | 96 | 1015.3 |
| 20260510095252 | 13 | 64 | 0.0 | 0.0 | 0.00 | 0.05 | 0.00 | 96 | 1015.3 |
| 20260510095152 | 13 | 64 | 0.0 | 0.0 | 0.00 | 0.05 | 0.00 | 96 | 1015.3 |
| 20260510095052 | 13 | 64 | 0.0 | 0.0 | 0.00 | 0.05 | 0.00 | 96 | 1015.2 |
| 20260510094950 | 13 | 64 | 0.0 | 0.0 | 0.00 | 0.05 | 0.00 | 96 | 1015.2 |
| 20260510094911 | 13 | 64 | 0.0 | 0.0 | 0.00 | 0.05 | 0.00 | 96 | 1015.2 |
| 20260510094750 | 13 | 64 | 0.0 | 0.0 | 0.00 | 0.05 | 0.00 | 96 | 1015.2 |
| 20260510094651 | 13 | 64 | 0.0 | 0.0 | 0.00 | 0.05 | 0.00 | 96 | 1015.2 |
| 20260510094547 | 13 | 64 | 0.0 | 0.0 | 0.00 | 0.05 | 0.00 | 96 | 1015.1 |
| 20260510094510 | 12 | 64 | 0.0 | 0.0 | 0.00 | 0.05 | 0.00 | 96 | 1014.7 |
| 20260510094445 | 13 | 64 | 0.0 | 0.0 | 0.00 | 0.05 | 0.00 | 96 | 1015.1 |
| 20260510094350 | 13 | 64 | 0.0 | 0.0 | 0.00 | 0.05 | 0.00 | 96 | 1015.2 |
| 20260510094250 | 13 | 64 | 0.0 | 0.0 | 0.00 | 0.05 | 0.00 | 96 | 1015.0 |
| 20260510094148 | 13 | 64 | 0.0 | 0.0 | 0.00 | 0.05 | 0.00 | 96 | 1015.1 |
| 20260510094048 | 13 | 64 | 0.0 | 0.0 | 0.00 | 0.05 | 0.00 | 96 | 1015.0 |
| 20260510093948 | 13 | 64 | 0.0 | 0.0 | 0.00 | 0.05 | 0.00 | 96 | 1015.0 |
| 20260510093848 | 13 | 64 | 0.0 | 0.0 | 0.00 | 0.05 | 0.00 | 96 | 1015.0 |
| 20260510093747 | 13 | 64 | 0.0 | 0.0 | 0.00 | 0.05 | 0.00 | 96 | 1015.0 |
| 20260510093648 | 13 | 64 | 0.0 | 0.0 | 0.00 | 0.05 | 0.00 | 96 | 1015.0 |
| 20260510093546 | 13 | 64 | 0.0 | 0.0 | 0.00 | 0.05 | 0.00 | 96 | 1015.0 |
| 20260510093447 | 13 | 64 | 0.0 | 0.0 | 0.00 | 0.05 | 0.00 | 96 | 1015.0 |
| 20260510093407 | 13 | 64 | 0.0 | 0.0 | 0.00 | 0.05 | 0.00 | 96 | 1015.0 |
| 20260510093247 | 13 | 64 | 0.0 | 0.0 | 0.00 | 0.05 | 0.00 | 96 | 1015.0 |
| 20260510093146 | 13 | 64 | 0.0 | 0.0 | 0.00 | 0.05 | 0.00 | 96 | 1015.0 |
| 20260510093108 | 13 | 64 | 0.0 | 0.0 | 0.00 | 0.05 | 0.00 | 96 | 1014.6 |
| 20260510093047 | 13 | 64 | 0.0 | 0.0 | 0.00 | 0.05 | 0.00 | 96 | 1015.0 |
| 20260510092947 | 13 | 64 | 0.0 | 0.0 | 0.00 | 0.05 | 0.00 | 96 | 1015.0 |
| 20260510092851 | 13 | 64 | 0.0 | 0.0 | 0.00 | 0.05 | 0.00 | 96 | 1015.0 |
| 20260510092749 | 13 | 64 | 0.0 | 0.0 | 0.00 | 0.05 | 0.00 | 96 | 1015.0 |
| 20260510092648 | 13 | 64 | 0.0 | 0.0 | 0.00 | 0.05 | 0.00 | 96 | 1015.0 |
| 20260510092547 | 13 | 64 | 0.0 | 0.0 | 0.00 | 0.05 | 0.00 | 96 | 1015.0 |
| 20260510092506 | 13 | 64 | 0.0 | 0.0 | 0.00 | 0.05 | 0.00 | 96 | 1015.0 |
| 20260510092345 | 13 | 64 | 0.0 | 0.0 | 0.00 | 0.05 | 0.00 | 96 | 1014.9 |
| 20260510092246 | 13 | 64 | 0.0 | 0.0 | 0.00 | 0.05 | 0.00 | 96 | 1014.9 |
| 20260510092150 | 13 | 64 | 0.0 | 0.0 | 0.00 | 0.05 | 0.00 | 96 | 1014.9 |
| 20260510092048 | 13 | 64 | 0.0 | 0.0 | 0.00 | 0.05 | 0.00 | 96 | 1014.9 |
| 20260510091947 | 13 | 64 | 0.0 | 0.0 | 0.00 | 0.05 | 0.00 | 96 | 1014.8 |
| 20260510091846 | 13 | 64 | 0.0 | 0.0 | 0.00 | 0.05 | 0.00 | 96 | 1014.8 |
| 20260510091805 | 13 | 64 | 0.0 | 0.0 | 0.00 | 0.05 | 0.00 | 96 | 1014.8 |
| 20260510091643 | 13 | 64 | 0.0 | 0.0 | 0.00 | 0.05 | 0.00 | 95 | 1014.8 |
| 20260510091611 | 13 | 64 | 0.0 | 0.0 | 0.00 | 0.05 | 0.00 | 95 | 1014.3 |
| 20260510091543 | 13 | 64 | 0.0 | 0.0 | 0.00 | 0.05 | 0.00 | 95 | 1014.8 |
| 20260510091508 | 13 | 64 | 0.0 | 0.0 | 0.00 | 0.05 | 0.00 | 96 | 1014.8 |
| 20260510091426 | 13 | 64 | 0.0 | 0.0 | 0.00 | 0.05 | 0.00 | 96 | 1014.8 |
| 20260510091324 | 13 | 64 | 0.0 | 0.0 | 0.00 | 0.05 | 0.00 | 96 | 1014.8 |
| 20260510091222 | 13 | 64 | 0.0 | 0.0 | 0.00 | 0.05 | 0.00 | 96 | 1014.8 |
| 20260510091041 | 13 | 64 | 0.0 | 0.0 | 0.00 | 0.05 | 0.00 | 96 | 1014.8 |
| 20260510090958 | 13 | 64 | 0.0 | 0.0 | 0.00 | 0.05 | 0.00 | 96 | 1014.8 |
| 20260510090856 | 13 | 64 | 0.0 | 0.0 | 0.00 | 0.05 | 0.00 | 96 | 1014.9 |
| 20260510090817 | 13 | 64 | 0.0 | 0.0 | 0.00 | 0.05 | 0.00 | 96 | 1014.8 |
| 20260510090655 | 13 | 64 | 0.0 | 0.0 | 0.00 | 0.05 | 0.00 | 96 | 1014.8 |
| 20260510090615 | 13 | 64 | 0.0 | 0.0 | 0.00 | 0.05 | 0.00 | 96 | 1014.9 |
| 20260510090450 | 13 | 64 | 0.0 | 0.0 | 0.00 | 0.05 | 0.00 | 96 | 1014.8 |
| 20260510090351 | 13 | 64 | 0.0 | 0.0 | 0.00 | 0.05 | 0.00 | 96 | 1014.8 |
| 20260510090252 | 13 | 64 | 0.0 | 0.0 | 0.00 | 0.05 | 0.00 | 96 | 1014.7 |
| 20260510090220 | 13 | 64 | 0.0 | 0.0 | 0.00 | 0.05 | 0.00 | 96 | 1014.7 |
| 20260510090030 | 13 | 64 | 0.0 | 0.0 | 0.00 | 0.05 | 0.00 | 96 | 1014.3 |
| 20260510085949 | 13 | 64 | 0.0 | 0.0 | 0.00 | 0.05 | 0.00 | 96 | 1014.7 |
| 20260510085850 | 13 | 64 | 0.0 | 0.0 | 0.00 | 0.05 | 0.00 | 96 | 1014.7 |
| 20260510085750 | 13 | 64 | 0.0 | 0.0 | 0.00 | 0.05 | 0.00 | 96 | 1014.7 |
| 20260510085651 | 13 | 64 | 0.0 | 0.0 | 0.00 | 0.05 | 0.00 | 96 | 1014.6 |
| 20260510085549 | 13 | 64 | 0.0 | 0.0 | 0.00 | 0.05 | 0.00 | 96 | 1014.6 |
| 20260510085447 | 13 | 64 | 0.0 | 0.0 | 0.00 | 0.05 | 0.00 | 96 | 1014.5 |
| 20260510085343 | 13 | 64 | 0.0 | 0.0 | 0.00 | 0.05 | 0.00 | 96 | 1014.5 |
| 20260510085248 | 13 | 64 | 0.0 | 0.0 | 0.00 | 0.05 | 0.00 | 96 | 1014.5 |
| 20260510085147 | 13 | 64 | 0.0 | 0.0 | 0.00 | 0.05 | 0.00 | 96 | 1014.5 |
| 20260510085048 | 13 | 64 | 0.0 | 0.0 | 0.00 | 0.05 | 0.00 | 96 | 1014.5 |
| 20260510084948 | 13 | 64 | 0.0 | 0.0 | 0.00 | 0.05 | 0.00 | 95 | 1014.5 |
| 20260510084846 | 13 | 64 | 0.0 | 0.0 | 0.00 | 0.05 | 0.00 | 95 | 1014.5 |
| 20260510084747 | 13 | 64 | 0.0 | 0.0 | 0.00 | 0.05 | 0.00 | 95 | 1014.5 |
| 20260510084649 | 13 | 64 | 0.0 | 0.0 | 0.00 | 0.05 | 0.00 | 96 | 1014.5 |
| 20260510084636 | 13 | 64 | 0.0 | 0.0 | 0.00 | 0.05 | 0.00 | 96 | 1014.1 |
| 20260510084608 | 13 | 64 | 0.0 | 0.0 | 0.00 | 0.05 | 0.00 | 95 | 1014.5 |
| 20260510084446 | 13 | 64 | 0.0 | 0.0 | 0.00 | 0.05 | 0.00 | 96 | 1014.6 |
| 20260510084346 | 13 | 64 | 0.0 | 0.0 | 0.00 | 0.05 | 0.00 | 95 | 1014.6 |
| 20260510084246 | 13 | 64 | 0.0 | 0.0 | 0.00 | 0.05 | 0.00 | 95 | 1014.6 |
| 20260510084207 | 13 | 64 | 0.0 | 0.0 | 0.00 | 0.05 | 0.00 | 95 | 1014.6 |
| 20260510084105 | 13 | 64 | 0.0 | 0.0 | 0.00 | 0.05 | 0.00 | 95 | 1014.5 |
| 20260510084002 | 13 | 64 | 0.0 | 0.0 | 0.00 | 0.05 | 0.00 | 95 | 1014.5 |
| 20260510083841 | 13 | 64 | 0.0 | 0.0 | 0.00 | 0.05 | 0.00 | 96 | 1014.4 |
| 20260510083746 | 13 | 64 | 0.0 | 0.0 | 0.00 | 0.05 | 0.00 | 96 | 1014.4 |
| 20260510083646 | 13 | 64 | 0.0 | 0.0 | 0.00 | 0.05 | 0.00 | 95 | 1014.4 |
| 20260510083547 | 13 | 64 | 0.0 | 0.0 | 0.00 | 0.05 | 0.00 | 96 | 1014.4 |
| 20260510083507 | 13 | 64 | 0.0 | 0.0 | 0.00 | 0.05 | 0.00 | 96 | 1014.4 |
| 20260510083345 | 13 | 64 | 0.0 | 0.0 | 0.00 | 0.05 | 0.00 | 96 | 1014.4 |
| 20260510083244 | 13 | 64 | 0.0 | 0.0 | 0.00 | 0.05 | 0.00 | 96 | 1014.4 |
| 20260510083145 | 13 | 64 | 0.0 | 0.0 | 0.00 | 0.05 | 0.00 | 96 | 1014.3 |
| 20260510083116 | 13 | 64 | 0.0 | 0.0 | 0.00 | 0.05 | 0.00 | 96 | 1013.8 |
| 20260510083050 | 13 | 64 | 0.0 | 0.0 | 0.00 | 0.05 | 0.00 | 96 | 1014.2 |
| 20260510082950 | 13 | 64 | 0.0 | 0.0 | 0.00 | 0.05 | 0.00 | 96 | 1014.3 |
| 20260510082848 | 13 | 64 | 0.0 | 0.0 | 0.00 | 0.05 | 0.00 | 96 | 1014.2 |
| 20260510082745 | 13 | 64 | 0.0 | 0.0 | 0.00 | 0.05 | 0.00 | 95 | 1014.2 |
| 20260510082705 | 13 | 64 | 0.0 | 0.0 | 0.00 | 0.05 | 0.00 | 96 | 1014.2 |
| 20260510082601 | 13 | 64 | 0.0 | 0.0 | 0.00 | 0.05 | 0.00 | 96 | 1014.2 |
| 20260510082456 | 13 | 64 | 0.0 | 0.0 | 0.00 | 0.05 | 0.00 | 95 | 1014.2 |
| 20260510082356 | 13 | 64 | 0.0 | 0.0 | 0.00 | 0.05 | 0.00 | 96 | 1014.2 |
| 20260510082241 | 13 | 64 | 0.0 | 0.0 | 0.00 | 0.05 | 0.00 | 96 | 1014.2 |
| 20260510082202 | 13 | 64 | 0.0 | 0.0 | 0.00 | 0.05 | 0.00 | 95 | 1014.2 |
| 20260510082057 | 14 | 64 | 0.0 | 0.0 | 0.00 | 0.05 | 0.00 | 95 | 1014.2 |
| 20260510081956 | 14 | 64 | 0.0 | 0.0 | 0.00 | 0.05 | 0.00 | 95 | 1014.2 |
| 20260510081856 | 14 | 64 | 0.0 | 0.0 | 0.00 | 0.05 | 0.00 | 95 | 1014.2 |
| 20260510081756 | 14 | 64 | 0.0 | 0.0 | 0.00 | 0.05 | 0.00 | 95 | 1014.2 |
| 20260510081641 | 14 | 64 | 0.0 | 0.0 | 0.00 | 0.05 | 0.00 | 95 | 1014.2 |
| 20260510081542 | 14 | 64 | 0.0 | 0.0 | 0.00 | 0.05 | 0.00 | 95 | 1014.2 |
| 20260510081521 | 13 | 64 | 0.0 | 0.0 | 0.00 | 0.05 | 0.00 | 95 | 1013.7 |
| 20260510081442 | 14 | 64 | 0.0 | 0.0 | 0.00 | 0.05 | 0.00 | 95 | 1014.2 |
| 20260510081342 | 14 | 64 | 0.0 | 0.0 | 0.00 | 0.05 | 0.00 | 95 | 1014.2 |
| 20260510081241 | 14 | 64 | 0.0 | 0.0 | 0.00 | 0.05 | 0.00 | 95 | 1014.1 |
| 20260510081159 | 14 | 64 | 0.0 | 0.0 | 0.00 | 0.05 | 0.00 | 95 | 1014.1 |
| 20260510081056 | 14 | 64 | 0.0 | 0.0 | 0.00 | 0.05 | 0.00 | 95 | 1014.1 |
| 20260510081000 | 14 | 64 | 0.0 | 0.0 | 0.00 | 0.05 | 0.00 | 95 | 1014.0 |
| 20260510080919 | 14 | 64 | 0.0 | 0.0 | 0.00 | 0.05 | 0.00 | 96 | 1014.0 |
| 20260510080759 | 14 | 64 | 0.0 | 0.0 | 0.00 | 0.05 | 0.00 | 96 | 1014.0 |
| 20260510080700 | 14 | 64 | 0.0 | 0.0 | 0.00 | 0.05 | 0.00 | 96 | 1014.0 |
| 20260510080620 | 14 | 64 | 0.0 | 0.0 | 0.00 | 0.05 | 0.00 | 96 | 1014.0 |
| 20260510080459 | 14 | 64 | 0.0 | 0.0 | 0.00 | 0.05 | 0.00 | 96 | 1014.1 |
| 20260510080354 | 14 | 64 | 0.0 | 0.0 | 0.00 | 0.05 | 0.00 | 96 | 1014.0 |
| 20260510080242 | 14 | 64 | 0.0 | 0.0 | 0.00 | 0.05 | 0.00 | 96 | 1014.1 |
| 20260510080003 | 13 | 64 | 0.0 | 0.0 | 0.00 | 0.05 | 0.00 | 96 | 1013.5 |
| 20260510075941 | 14 | 64 | 0.0 | 0.0 | 0.00 | 0.05 | 0.00 | 96 | 1014.0 |
| 20260510075902 | 14 | 64 | 0.0 | 0.0 | 0.00 | 0.05 | 0.00 | 96 | 1014.0 |
| 20260510075742 | 14 | 64 | 0.0 | 0.0 | 0.00 | 0.05 | 0.00 | 96 | 1014.1 |
| 20260510075647 | 14 | 64 | 0.0 | 0.0 | 0.00 | 0.05 | 0.00 | 96 | 1014.0 |
| 20260510075548 | 14 | 64 | 0.0 | 0.0 | 0.00 | 0.05 | 0.00 | 96 | 1014.1 |
| 20260510075449 | 14 | 64 | 0.0 | 0.0 | 0.00 | 0.05 | 0.00 | 96 | 1014.1 |
| 20260510075410 | 14 | 64 | 0.0 | 0.0 | 0.00 | 0.05 | 0.00 | 96 | 1014.1 |
| 20260510075250 | 14 | 64 | 0.0 | 0.0 | 0.00 | 0.05 | 0.00 | 96 | 1014.1 |
| 20260510075150 | 14 | 64 | 0.0 | 0.0 | 0.00 | 0.05 | 0.00 | 96 | 1014.1 |
| 20260510075051 | 14 | 64 | 0.0 | 0.0 | 0.00 | 0.05 | 0.00 | 96 | 1014.1 |
| 20260510074955 | 14 | 64 | 0.0 | 0.0 | 0.00 | 0.05 | 0.00 | 96 | 1014.1 |
| 20260510074855 | 14 | 64 | 0.0 | 0.0 | 0.00 | 0.05 | 0.00 | 96 | 1014.1 |
| 20260510074755 | 14 | 64 | 0.0 | 0.0 | 0.00 | 0.05 | 0.00 | 96 | 1014.1 |
| 20260510074655 | 14 | 64 | 0.0 | 0.0 | 0.00 | 0.05 | 0.00 | 96 | 1014.1 |
| 20260510074556 | 14 | 64 | 0.0 | 0.0 | 0.00 | 0.05 | 0.00 | 96 | 1014.1 |
| 20260510074519 | 13 | 64 | 0.0 | 0.0 | 0.00 | 0.05 | 0.00 | 96 | 1013.6 |
| 20260510074457 | 14 | 64 | 0.0 | 0.0 | 0.00 | 0.05 | 0.00 | 96 | 1014.0 |
| 20260510074342 | 14 | 64 | 0.0 | 0.0 | 0.00 | 0.05 | 0.00 | 96 | 1014.0 |
| 20260510074243 | 14 | 64 | 0.0 | 0.0 | 0.00 | 0.05 | 0.00 | 96 | 1014.0 |
| 20260510074142 | 14 | 64 | 0.0 | 0.0 | 0.00 | 0.05 | 0.00 | 96 | 1014.0 |
| 20260510074042 | 14 | 64 | 0.0 | 0.0 | 0.00 | 0.05 | 0.00 | 96 | 1013.9 |
| 20260510073943 | 14 | 64 | 0.0 | 0.0 | 0.00 | 0.05 | 0.00 | 96 | 1014.0 |
| 20260510073843 | 14 | 64 | 0.0 | 0.0 | 0.00 | 0.05 | 0.00 | 96 | 1013.9 |
| 20260510073744 | 14 | 64 | 0.0 | 0.0 | 0.00 | 0.05 | 0.00 | 96 | 1014.0 |
| 20260510073649 | 14 | 64 | 0.0 | 0.0 | 0.00 | 0.05 | 0.00 | 96 | 1014.0 |
| 20260510073550 | 14 | 64 | 0.0 | 0.0 | 0.00 | 0.05 | 0.00 | 96 | 1013.9 |
| 20260510073451 | 14 | 64 | 0.0 | 0.0 | 0.00 | 0.05 | 0.00 | 96 | 1014.0 |
| 20260510073351 | 14 | 64 | 0.0 | 0.0 | 0.00 | 0.05 | 0.00 | 96 | 1013.9 |
| 20260510073251 | 14 | 64 | 0.0 | 0.0 | 0.00 | 0.05 | 0.00 | 96 | 1013.9 |
| 20260510073149 | 14 | 64 | 0.0 | 0.0 | 0.00 | 0.05 | 0.00 | 95 | 1013.9 |
| 20260510073110 | 14 | 64 | 0.0 | 0.0 | 0.00 | 0.05 | 0.00 | 95 | 1013.9 |
| 20260510073032 | 14 | 64 | 0.0 | 0.0 | 0.00 | 0.05 | 0.00 | 95 | 1013.4 |
| 20260510072954 | 14 | 64 | 0.0 | 0.0 | 0.00 | 0.05 | 0.00 | 95 | 1013.9 |
| 20260510072855 | 14 | 64 | 0.0 | 0.0 | 0.00 | 0.05 | 0.00 | 95 | 1014.0 |
| 20260510072756 | 14 | 64 | 0.0 | 0.0 | 0.00 | 0.05 | 0.00 | 95 | 1014.0 |
| 20260510072657 | 14 | 64 | 0.0 | 0.0 | 0.00 | 0.05 | 0.00 | 95 | 1014.0 |
| 20260510072558 | 14 | 64 | 0.0 | 0.0 | 0.00 | 0.05 | 0.00 | 95 | 1014.0 |
| 20260510072458 | 14 | 64 | 0.0 | 0.0 | 0.00 | 0.05 | 0.00 | 95 | 1014.0 |
| 20260510072357 | 14 | 64 | 0.0 | 0.0 | 0.00 | 0.05 | 0.00 | 95 | 1014.0 |
| 20260510072301 | 14 | 64 | 0.0 | 0.0 | 0.00 | 0.05 | 0.00 | 95 | 1014.0 |
| 20260510072221 | 14 | 64 | 0.0 | 0.0 | 0.00 | 0.05 | 0.00 | 95 | 1013.9 |
| 20260510072101 | 14 | 64 | 0.0 | 0.0 | 0.00 | 0.05 | 0.00 | 95 | 1014.0 |
| 20260510071959 | 14 | 64 | 0.0 | 0.0 | 0.00 | 0.05 | 0.00 | 95 | 1014.0 |
| 20260510071900 | 14 | 64 | 0.0 | 0.0 | 0.00 | 0.05 | 0.05 | 95 | 1014.0 |
| 20260510071801 | 14 | 64 | 0.0 | 0.0 | 0.00 | 0.05 | 0.05 | 95 | 1013.9 |
| 20260510071721 | 14 | 64 | 0.0 | 0.0 | 0.00 | 0.05 | 0.05 | 95 | 1013.9 |
| 20260510071612 | 14 | 64 | 0.0 | 0.0 | 0.00 | 0.05 | 0.05 | 95 | 1013.5 |
| 20260510071544 | 14 | 64 | 0.0 | 0.0 | 0.00 | 0.05 | 0.05 | 95 | 1013.9 |
| 20260510071505 | 14 | 64 | 0.0 | 0.0 | 0.00 | 0.05 | 0.05 | 95 | 1013.9 |
| 20260510071344 | 14 | 64 | 0.0 | 0.0 | 0.00 | 0.05 | 0.05 | 95 | 1013.9 |
| 20260510071245 | 14 | 64 | 0.0 | 0.0 | 0.00 | 0.05 | 0.05 | 95 | 1013.9 |
| 20260510071146 | 14 | 64 | 0.0 | 0.0 | 0.00 | 0.05 | 0.05 | 95 | 1013.9 |
| 20260510071106 | 14 | 64 | 0.0 | 0.0 | 0.00 | 0.05 | 0.05 | 95 | 1013.9 |
| 20260510070945 | 14 | 64 | 0.0 | 0.0 | 0.00 | 0.05 | 0.05 | 96 | 1013.9 |
| 20260510070850 | 14 | 64 | 0.0 | 0.0 | 0.00 | 0.05 | 0.05 | 95 | 1013.8 |
| 20260510070810 | 14 | 64 | 0.0 | 0.0 | 0.00 | 0.05 | 0.05 | 96 | 1013.8 |
| 20260510070711 | 14 | 64 | 0.0 | 0.0 | 0.00 | 0.05 | 0.05 | 95 | 1013.8 |
| 20260510070551 | 14 | 64 | 0.0 | 0.0 | 0.00 | 0.05 | 0.05 | 96 | 1013.8 |
| 20260510070449 | 14 | 64 | 0.0 | 0.0 | 0.00 | 0.05 | 0.05 | 96 | 1013.8 |
| 20260510070349 | 14 | 64 | 0.0 | 0.0 | 0.00 | 0.05 | 0.05 | 95 | 1013.8 |
| 20260510070250 | 14 | 64 | 0.0 | 0.0 | 0.00 | 0.05 | 0.05 | 95 | 1013.8 |
| 20260510070221 | 14 | 64 | 0.0 | 0.0 | 0.00 | 0.05 | 0.05 | 95 | 1013.9 |
| 20260510070031 | 14 | 64 | 0.0 | 0.0 | 0.00 | 0.05 | 0.05 | 95 | 1013.3 |
| 20260510070008 | 14 | 64 | 0.0 | 0.0 | 0.00 | 0.05 | 0.05 | 95 | 1013.8 |
| 20260510065847 | 14 | 64 | 0.0 | 0.0 | 0.00 | 0.05 | 0.05 | 95 | 1013.8 |
| 20260510065807 | 14 | 64 | 0.0 | 0.0 | 0.00 | 0.05 | 0.05 | 95 | 1013.8 |
| 20260510065641 | 14 | 64 | 0.0 | 0.0 | 0.00 | 0.05 | 0.05 | 95 | 1013.8 |
| 20260510065542 | 14 | 64 | 0.0 | 0.0 | 0.00 | 0.05 | 0.05 | 95 | 1013.8 |
| 20260510065443 | 14 | 64 | 0.0 | 0.0 | 0.00 | 0.05 | 0.05 | 95 | 1013.8 |
| 20260510065348 | 14 | 64 | 0.0 | 0.0 | 0.00 | 0.05 | 0.05 | 95 | 1013.8 |
| 20260510065307 | 14 | 64 | 0.0 | 0.0 | 0.00 | 0.05 | 0.05 | 95 | 1013.8 |
| 20260510065141 | 15 | 64 | 0.0 | 0.0 | 0.00 | 0.05 | 0.05 | 95 | 1013.8 |
| 20260510065042 | 15 | 64 | 0.0 | 0.0 | 0.00 | 0.05 | 0.05 | 95 | 1013.8 |
| 20260510064942 | 15 | 64 | 0.0 | 0.0 | 0.00 | 0.05 | 0.05 | 95 | 1013.8 |
| 20260510064844 | 15 | 64 | 0.0 | 0.0 | 0.00 | 0.05 | 0.05 | 95 | 1013.9 |
| 20260510064743 | 15 | 64 | 0.0 | 0.0 | 0.00 | 0.05 | 0.05 | 95 | 1013.9 |
| 20260510064711 | 15 | 64 | 0.0 | 0.0 | 0.00 | 0.05 | 0.05 | 95 | 1013.9 |
| 20260510064629 | 15 | 64 | 0.0 | 0.0 | 0.00 | 0.05 | 0.05 | 95 | 1013.9 |
| 20260510064522 | 14 | 64 | 0.0 | 0.0 | 0.00 | 0.05 | 0.05 | 95 | 1013.5 |
| 20260510064441 | 15 | 64 | 0.0 | 0.0 | 0.00 | 0.05 | 0.05 | 95 | 1014.0 |
| 20260510064342 | 15 | 64 | 0.0 | 0.0 | 0.00 | 0.05 | 0.05 | 95 | 1014.0 |
| 20260510064241 | 15 | 64 | 0.0 | 0.0 | 0.00 | 0.05 | 0.05 | 95 | 1014.0 |
| 20260510064142 | 15 | 64 | 0.0 | 0.0 | 0.00 | 0.05 | 0.05 | 95 | 1014.0 |
| 20260510064042 | 15 | 64 | 0.0 | 0.0 | 0.00 | 0.05 | 0.05 | 95 | 1014.0 |
| 20260510063949 | 15 | 64 | 0.0 | 0.0 | 0.00 | 0.05 | 0.05 | 95 | 1014.0 |
| 20260510063849 | 15 | 64 | 0.0 | 0.0 | 0.00 | 0.05 | 0.05 | 95 | 1014.0 |
| 20260510063807 | 15 | 64 | 0.0 | 0.0 | 0.00 | 0.05 | 0.05 | 95 | 1014.0 |
| 20260510063641 | 15 | 64 | 0.0 | 0.0 | 0.00 | 0.05 | 0.05 | 95 | 1014.0 |
| 20260510063543 | 15 | 64 | 0.0 | 0.0 | 0.00 | 0.05 | 0.05 | 95 | 1014.0 |
| 20260510063442 | 15 | 64 | 0.0 | 0.0 | 0.00 | 0.05 | 0.05 | 95 | 1014.0 |
| 20260510063343 | 15 | 64 | 0.0 | 0.0 | 0.00 | 0.05 | 0.05 | 95 | 1014.0 |
| 20260510063248 | 15 | 64 | 0.0 | 0.0 | 0.00 | 0.05 | 0.05 | 95 | 1014.0 |
| 20260510063149 | 15 | 64 | 0.0 | 0.0 | 0.00 | 0.05 | 0.05 | 95 | 1014.0 |
| 20260510063109 | 15 | 64 | 0.0 | 0.0 | 0.00 | 0.05 | 0.05 | 95 | 1013.9 |
| 20260510063002 | 14 | 64 | 0.0 | 0.0 | 0.00 | 0.05 | 0.05 | 95 | 1013.4 |
| 20260510062949 | 15 | 64 | 0.0 | 0.0 | 0.00 | 0.05 | 0.05 | 95 | 1013.9 |
| 20260510062848 | 15 | 64 | 0.0 | 0.0 | 0.00 | 0.05 | 0.05 | 95 | 1013.9 |
| 20260510062748 | 15 | 64 | 0.0 | 0.0 | 0.00 | 0.05 | 0.05 | 95 | 1013.8 |
| 20260510062707 | 15 | 64 | 0.0 | 0.0 | 0.00 | 0.05 | 0.05 | 95 | 1013.8 |
| 20260510062541 | 15 | 64 | 0.0 | 0.0 | 0.00 | 0.05 | 0.05 | 95 | 1013.8 |
| 20260510062446 | 15 | 64 | 0.0 | 0.0 | 0.00 | 0.05 | 0.05 | 95 | 1013.9 |
| 20260510062347 | 15 | 64 | 0.0 | 0.0 | 0.00 | 0.05 | 0.05 | 95 | 1013.8 |
| 20260510062247 | 15 | 64 | 0.0 | 0.0 | 0.00 | 0.05 | 0.05 | 95 | 1013.8 |
| 20260510062148 | 15 | 64 | 0.0 | 0.0 | 0.00 | 0.05 | 0.05 | 95 | 1013.8 |
| 20260510062107 | 15 | 64 | 0.0 | 0.0 | 0.00 | 0.05 | 0.05 | 95 | 1013.9 |
| 20260510061941 | 15 | 64 | 0.0 | 0.0 | 0.00 | 0.05 | 0.05 | 95 | 1013.9 |
| 20260510061841 | 15 | 64 | 0.0 | 0.0 | 0.00 | 0.05 | 0.05 | 95 | 1013.9 |
| 20260510061746 | 15 | 64 | 0.0 | 0.0 | 0.00 | 0.05 | 0.05 | 95 | 1013.9 |
| 20260510061648 | 15 | 64 | 0.0 | 0.0 | 0.00 | 0.05 | 0.05 | 95 | 1014.0 |
| 20260510061548 | 15 | 64 | 0.0 | 0.0 | 0.00 | 0.05 | 0.05 | 95 | 1014.0 |
| 20260510061503 | 14 | 64 | 0.0 | 0.0 | 0.00 | 0.05 | 0.05 | 95 | 1013.6 |
| 20260510061450 | 15 | 64 | 0.0 | 0.0 | 0.00 | 0.05 | 0.05 | 95 | 1014.0 |
| 20260510061410 | 15 | 64 | 0.0 | 0.0 | 0.00 | 0.05 | 0.05 | 95 | 1014.0 |
| 20260510061248 | 15 | 64 | 0.0 | 0.0 | 0.00 | 0.05 | 0.05 | 95 | 1014.0 |
| 20260510061207 | 15 | 64 | 0.0 | 0.0 | 0.00 | 0.05 | 0.05 | 95 | 1014.0 |
| 20260510061049 | 15 | 64 | 0.0 | 0.0 | 0.00 | 0.05 | 0.05 | 95 | 1014.0 |
| 20260510061009 | 15 | 64 | 0.0 | 0.0 | 0.00 | 0.05 | 0.05 | 95 | 1014.0 |
| 20260510060849 | 15 | 64 | 0.0 | 0.0 | 0.00 | 0.05 | 0.05 | 95 | 1014.0 |
| 20260510060749 | 15 | 64 | 0.0 | 0.0 | 0.00 | 0.05 | 0.05 | 95 | 1014.0 |
| 20260510060650 | 15 | 64 | 0.0 | 0.0 | 0.00 | 0.05 | 0.05 | 95 | 1014.0 |
| 20260510060611 | 15 | 64 | 0.0 | 0.0 | 0.00 | 0.05 | 0.05 | 95 | 1014.1 |
| 20260510060453 | 15 | 64 | 0.0 | 0.0 | 0.00 | 0.05 | 0.05 | 95 | 1014.1 |
| 20260510060354 | 15 | 64 | 0.0 | 0.0 | 0.00 | 0.05 | 0.05 | 95 | 1014.1 |
| 20260510060259 | 15 | 64 | 0.0 | 0.0 | 0.00 | 0.05 | 0.05 | 95 | 1014.1 |
| 20260510060225 | 15 | 64 | 0.0 | 0.0 | 0.00 | 0.05 | 0.05 | 95 | 1014.1 |
| 20260510060011 | 15 | 64 | 0.0 | 0.0 | 0.00 | 0.05 | 0.05 | 95 | 1013.6 |
| 20260510055953 | 15 | 64 | 0.0 | 0.0 | 0.00 | 0.05 | 0.05 | 95 | 1014.1 |
| 20260510055854 | 15 | 64 | 0.0 | 0.0 | 0.00 | 0.05 | 0.05 | 95 | 1014.0 |
| 20260510055754 | 15 | 64 | 0.0 | 0.0 | 0.00 | 0.05 | 0.05 | 95 | 1014.0 |
| 20260510055658 | 15 | 64 | 0.0 | 0.0 | 0.00 | 0.05 | 0.05 | 95 | 1013.9 |
| 20260510055554 | 15 | 64 | 0.0 | 0.0 | 0.00 | 0.05 | 0.05 | 95 | 1013.9 |
| 20260510055512 | 15 | 64 | 0.0 | 0.0 | 0.00 | 0.05 | 0.05 | 95 | 1013.9 |
| 20260510055411 | 15 | 64 | 0.0 | 0.0 | 0.00 | 0.05 | 0.05 | 95 | 1013.9 |
| 20260510055311 | 15 | 64 | 0.0 | 0.0 | 0.00 | 0.05 | 0.05 | 95 | 1013.8 |
| 20260510055145 | 15 | 64 | 0.0 | 0.0 | 0.00 | 0.05 | 0.05 | 95 | 1013.8 |
| 20260510055045 | 15 | 64 | 0.0 | 0.0 | 0.00 | 0.05 | 0.05 | 95 | 1013.8 |
| 20260510054946 | 15 | 64 | 0.0 | 0.0 | 0.00 | 0.05 | 0.05 | 95 | 1013.8 |
| 20260510054906 | 15 | 64 | 0.0 | 0.0 | 0.00 | 0.05 | 0.05 | 95 | 1013.8 |
| 20260510054749 | 15 | 64 | 0.0 | 0.0 | 0.00 | 0.05 | 0.05 | 95 | 1013.9 |
| 20260510054650 | 15 | 64 | 0.0 | 0.0 | 0.00 | 0.05 | 0.05 | 95 | 1013.9 |
| 20260510054610 | 15 | 64 | 0.0 | 0.0 | 0.00 | 0.05 | 0.05 | 95 | 1013.4 |
| 20260510054549 | 15 | 64 | 0.0 | 0.0 | 0.00 | 0.05 | 0.05 | 95 | 1013.9 |
| 20260510054451 | 15 | 64 | 0.0 | 0.0 | 0.00 | 0.05 | 0.05 | 95 | 1013.9 |
| 20260510054351 | 15 | 64 | 0.0 | 0.0 | 0.00 | 0.05 | 0.05 | 95 | 1013.9 |
| 20260510054251 | 15 | 64 | 0.0 | 0.0 | 0.00 | 0.05 | 0.05 | 95 | 1013.9 |
| 20260510054155 | 15 | 64 | 0.0 | 0.0 | 0.00 | 0.05 | 0.05 | 95 | 1013.9 |
| 20260510054112 | 15 | 64 | 0.0 | 0.0 | 0.00 | 0.05 | 0.05 | 95 | 1014.0 |
| 20260510053948 | 15 | 64 | 0.0 | 0.0 | 0.00 | 0.05 | 0.05 | 95 | 1014.0 |
| 20260510053847 | 15 | 64 | 0.0 | 0.0 | 0.00 | 0.05 | 0.05 | 95 | 1014.0 |
| 20260510053748 | 15 | 64 | 0.0 | 0.0 | 0.00 | 0.05 | 0.05 | 95 | 1014.0 |
| 20260510053648 | 15 | 64 | 0.0 | 0.0 | 0.00 | 0.05 | 0.05 | 95 | 1013.9 |
| 20260510053543 | 15 | 64 | 0.0 | 0.0 | 0.00 | 0.05 | 0.05 | 95 | 1013.9 |
| 20260510053500 | 15 | 64 | 0.0 | 0.0 | 0.00 | 0.05 | 0.05 | 95 | 1013.9 |
| 20260510053403 | 15 | 64 | 0.0 | 0.0 | 0.00 | 0.05 | 0.05 | 95 | 1013.9 |
| 20260510053320 | 15 | 64 | 0.0 | 0.0 | 0.00 | 0.05 | 0.05 | 95 | 1013.9 |
| 20260510053157 | 15 | 64 | 0.0 | 0.0 | 0.00 | 0.05 | 0.05 | 95 | 1013.8 |
| 20260510053132 | 15 | 64 | 0.0 | 0.0 | 0.00 | 0.05 | 0.05 | 95 | 1013.4 |
| 20260510053118 | 15 | 64 | 0.0 | 0.0 | 0.00 | 0.05 | 0.05 | 95 | 1013.8 |
| 20260510052956 | 15 | 64 | 0.0 | 0.0 | 0.00 | 0.05 | 0.05 | 95 | 1013.8 |
| 20260510052853 | 15 | 64 | 0.0 | 0.0 | 0.00 | 0.05 | 0.05 | 95 | 1013.8 |
| 20260510052755 | 15 | 64 | 0.0 | 0.0 | 0.00 | 0.05 | 0.05 | 95 | 1013.7 |
| 20260510052655 | 15 | 64 | 0.0 | 0.0 | 0.00 | 0.05 | 0.05 | 95 | 1013.8 |
| 20260510052616 | 15 | 64 | 0.0 | 0.0 | 0.00 | 0.05 | 0.05 | 95 | 1013.8 |
| 20260510052451 | 15 | 64 | 0.0 | 0.0 | 0.00 | 0.05 | 0.05 | 95 | 1013.8 |
| 20260510052349 | 15 | 64 | 0.0 | 0.0 | 0.00 | 0.05 | 0.05 | 95 | 1013.8 |
| 20260510052249 | 15 | 64 | 0.0 | 0.0 | 0.00 | 0.05 | 0.05 | 95 | 1013.8 |
| 20260510052150 | 15 | 64 | 0.0 | 0.0 | 0.00 | 0.05 | 0.05 | 95 | 1013.8 |
| 20260510052049 | 15 | 64 | 0.0 | 0.0 | 0.00 | 0.05 | 0.05 | 95 | 1013.8 |
| 20260510051949 | 15 | 64 | 0.0 | 0.0 | 0.00 | 0.05 | 0.05 | 95 | 1013.9 |
| 20260510051854 | 15 | 64 | 0.0 | 0.0 | 0.00 | 0.05 | 0.05 | 95 | 1013.8 |
| 20260510051815 | 15 | 64 | 0.0 | 0.0 | 0.00 | 0.05 | 0.05 | 95 | 1013.8 |
| 20260510051649 | 15 | 64 | 0.0 | 0.0 | 0.00 | 0.05 | 0.05 | 95 | 1013.9 |
| 20260510051549 | 15 | 64 | 0.0 | 0.0 | 0.00 | 0.05 | 0.05 | 95 | 1013.9 |
| 20260510051449 | 15 | 64 | 0.0 | 0.0 | 0.00 | 0.05 | 0.05 | 95 | 1013.9 |
| 20260510051348 | 15 | 64 | 0.0 | 0.0 | 0.00 | 0.05 | 0.05 | 95 | 1014.0 |
| 20260510051248 | 15 | 64 | 0.0 | 0.0 | 0.00 | 0.05 | 0.05 | 95 | 1014.0 |
| 20260510051152 | 15 | 64 | 0.0 | 0.0 | 0.00 | 0.05 | 0.05 | 95 | 1014.1 |
| 20260510051046 | 15 | 64 | 0.0 | 0.0 | 0.00 | 0.05 | 0.05 | 95 | 1014.0 |
| 20260510050946 | 15 | 64 | 0.0 | 0.0 | 0.00 | 0.05 | 0.05 | 95 | 1014.1 |
| 20260510050846 | 15 | 64 | 0.0 | 0.0 | 0.00 | 0.05 | 0.05 | 95 | 1014.0 |
| 20260510050748 | 15 | 64 | 0.0 | 0.0 | 0.00 | 0.05 | 0.05 | 95 | 1014.0 |
| 20260510050645 | 15 | 64 | 0.0 | 0.0 | 0.00 | 0.05 | 0.05 | 95 | 1014.0 |
| 20260510050547 | 15 | 64 | 0.0 | 0.0 | 0.00 | 0.05 | 0.05 | 95 | 1014.0 |
| 20260510050449 | 15 | 64 | 0.0 | 0.0 | 0.00 | 0.05 | 0.05 | 95 | 1013.9 |
| 20260510050406 | 15 | 64 | 0.0 | 0.0 | 0.00 | 0.05 | 0.05 | 95 | 1014.0 |
| 20260510050251 | 15 | 64 | 0.0 | 0.0 | 0.00 | 0.05 | 0.05 | 95 | 1014.1 |
| 20260510045956 | 15 | 64 | 0.0 | 0.0 | 0.00 | 0.05 | 0.05 | 95 | 1014.1 |
| 20260510045857 | 15 | 64 | 0.0 | 0.0 | 0.00 | 0.05 | 0.05 | 95 | 1014.2 |
| 20260510045742 | 15 | 64 | 0.0 | 0.0 | 0.00 | 0.05 | 0.05 | 95 | 1014.1 |
| 20260510045703 | 15 | 64 | 0.0 | 0.0 | 0.00 | 0.05 | 0.05 | 95 | 1014.1 |
| 20260510045542 | 15 | 64 | 0.0 | 0.0 | 0.00 | 0.05 | 0.05 | 95 | 1014.1 |
| 20260510045504 | 15 | 64 | 0.0 | 0.0 | 0.00 | 0.05 | 0.05 | 95 | 1014.1 |
| 20260510045342 | 15 | 64 | 0.0 | 0.0 | 0.00 | 0.05 | 0.05 | 95 | 1014.1 |
| 20260510045243 | 15 | 64 | 0.0 | 0.0 | 0.00 | 0.05 | 0.05 | 95 | 1014.1 |
| 20260510045143 | 15 | 64 | 0.0 | 0.0 | 0.00 | 0.05 | 0.05 | 95 | 1014.1 |
| 20260510045044 | 15 | 64 | 0.0 | 0.0 | 0.00 | 0.05 | 0.05 | 95 | 1014.1 |
| 20260510044948 | 15 | 64 | 0.0 | 0.0 | 0.00 | 0.05 | 0.05 | 95 | 1014.1 |
| 20260510044849 | 15 | 64 | 0.0 | 0.0 | 0.00 | 0.05 | 0.05 | 95 | 1014.1 |
| 20260510044753 | 15 | 64 | 0.0 | 0.0 | 0.00 | 0.05 | 0.05 | 95 | 1014.1 |
| 20260510044714 | 15 | 64 | 0.0 | 0.0 | 0.00 | 0.05 | 0.05 | 95 | 1014.0 |
| 20260510044620 | 15 | 64 | 0.0 | 0.0 | 0.00 | 0.05 | 0.05 | 95 | 1013.6 |
| 20260510044554 | 15 | 64 | 0.0 | 0.0 | 0.00 | 0.05 | 0.05 | 95 | 1014.0 |
| 20260510044516 | 15 | 64 | 0.0 | 0.0 | 0.00 | 0.05 | 0.05 | 95 | 1014.0 |
| 20260510044356 | 15 | 64 | 0.0 | 0.0 | 0.00 | 0.05 | 0.05 | 95 | 1014.0 |
| 20260510044241 | 15 | 64 | 0.0 | 0.0 | 0.00 | 0.05 | 0.05 | 95 | 1014.0 |
| 20260510044142 | 15 | 64 | 0.0 | 0.0 | 0.00 | 0.05 | 0.05 | 95 | 1014.1 |
| 20260510044042 | 15 | 64 | 0.0 | 0.0 | 0.00 | 0.05 | 0.05 | 95 | 1014.1 |
| 20260510043942 | 15 | 64 | 0.0 | 0.0 | 0.00 | 0.05 | 0.05 | 95 | 1014.1 |
| 20260510043843 | 15 | 64 | 0.0 | 0.0 | 0.00 | 0.05 | 0.05 | 95 | 1014.1 |
| 20260510043741 | 15 | 64 | 0.0 | 0.0 | 0.00 | 0.05 | 0.05 | 95 | 1014.1 |
| 20260510043647 | 15 | 64 | 0.0 | 0.0 | 0.00 | 0.05 | 0.05 | 95 | 1014.1 |
| 20260510043546 | 15 | 64 | 0.0 | 0.0 | 0.00 | 0.05 | 0.05 | 95 | 1014.1 |
| 20260510043447 | 15 | 64 | 0.0 | 0.0 | 0.00 | 0.05 | 0.05 | 95 | 1014.1 |
| 20260510043408 | 15 | 64 | 0.0 | 0.0 | 0.00 | 0.05 | 0.05 | 95 | 1014.2 |
| 20260510043249 | 15 | 64 | 0.0 | 0.0 | 0.00 | 0.05 | 0.05 | 95 | 1014.1 |
| 20260510043149 | 15 | 64 | 0.0 | 0.0 | 0.00 | 0.05 | 0.05 | 95 | 1014.1 |
| 20260510043051 | 15 | 64 | 0.0 | 0.0 | 0.00 | 0.05 | 0.05 | 95 | 1014.1 |
| 20260510043024 | 15 | 64 | 0.0 | 0.0 | 0.00 | 0.05 | 0.05 | 95 | 1013.7 |
| 20260510042955 | 15 | 64 | 0.0 | 0.0 | 0.00 | 0.05 | 0.05 | 95 | 1014.2 |
| 20260510042855 | 15 | 64 | 0.0 | 0.0 | 0.00 | 0.05 | 0.05 | 95 | 1014.2 |
| 20260510042755 | 15 | 64 | 0.0 | 0.0 | 0.00 | 0.05 | 0.05 | 95 | 1014.2 |
| 20260510042654 | 15 | 64 | 0.0 | 0.0 | 0.00 | 0.05 | 0.05 | 95 | 1014.2 |
| 20260510042615 | 15 | 64 | 0.0 | 0.0 | 0.00 | 0.05 | 0.05 | 95 | 1014.2 |
| 20260510042455 | 15 | 64 | 0.0 | 0.0 | 0.00 | 0.05 | 0.05 | 95 | 1014.2 |
| 20260510042357 | 15 | 64 | 0.0 | 0.0 | 0.00 | 0.05 | 0.05 | 95 | 1014.2 |
| 20260510042257 | 15 | 64 | 0.0 | 0.0 | 0.00 | 0.05 | 0.05 | 95 | 1014.2 |
| 20260510042200 | 15 | 64 | 0.0 | 0.0 | 0.00 | 0.05 | 0.05 | 95 | 1014.2 |
| 20260510042100 | 15 | 64 | 0.0 | 0.0 | 0.00 | 0.05 | 0.05 | 95 | 1014.3 |
| 20260510042021 | 15 | 64 | 0.0 | 0.0 | 0.00 | 0.05 | 0.05 | 95 | 1014.2 |
| 20260510041920 | 15 | 64 | 0.0 | 0.0 | 0.00 | 0.05 | 0.05 | 95 | 1014.2 |
| 20260510041818 | 15 | 64 | 0.0 | 0.0 | 0.00 | 0.05 | 0.05 | 94 | 1014.1 |
| 20260510041657 | 15 | 64 | 0.0 | 0.0 | 0.00 | 0.05 | 0.05 | 94 | 1014.1 |
| 20260510041557 | 15 | 64 | 0.0 | 0.0 | 0.00 | 0.05 | 0.05 | 94 | 1014.1 |
| 20260510041534 | 15 | 64 | 0.0 | 0.0 | 0.00 | 0.05 | 0.05 | 94 | 1013.7 |
| 20260510041443 | 15 | 64 | 0.0 | 0.0 | 0.00 | 0.05 | 0.05 | 94 | 1014.1 |
| 20260510041343 | 15 | 64 | 0.0 | 0.0 | 0.00 | 0.05 | 0.05 | 94 | 1014.2 |
| 20260510041244 | 15 | 64 | 0.0 | 0.0 | 0.00 | 0.05 | 0.05 | 94 | 1014.2 |
| 20260510041145 | 15 | 64 | 0.0 | 0.0 | 0.00 | 0.05 | 0.05 | 94 | 1014.2 |
| 20260510041047 | 15 | 64 | 0.0 | 0.0 | 0.00 | 0.05 | 0.05 | 94 | 1014.3 |
| 20260510040948 | 15 | 64 | 0.0 | 0.0 | 0.00 | 0.05 | 0.05 | 94 | 1014.3 |
| 20260510040848 | 15 | 64 | 0.0 | 0.0 | 0.00 | 0.05 | 0.05 | 94 | 1014.3 |
| 20260510040752 | 15 | 64 | 0.0 | 0.0 | 0.00 | 0.05 | 0.05 | 94 | 1014.3 |
| 20260510040653 | 15 | 64 | 0.0 | 0.0 | 0.00 | 0.05 | 0.05 | 94 | 1014.3 |
| 20260510040554 | 15 | 64 | 0.0 | 0.0 | 0.00 | 0.05 | 0.05 | 94 | 1014.2 |
| 20260510040455 | 15 | 64 | 0.0 | 0.0 | 0.00 | 0.05 | 0.05 | 94 | 1014.2 |
| 20260510040356 | 15 | 64 | 0.0 | 0.0 | 0.00 | 0.05 | 0.05 | 94 | 1014.2 |
| 20260510040300 | 15 | 64 | 0.0 | 0.0 | 0.00 | 0.05 | 0.05 | 94 | 1014.2 |
| 20260510040231 | 15 | 64 | 0.0 | 0.0 | 0.00 | 0.05 | 0.05 | 94 | 1014.1 |
| 20260510040018 | 15 | 64 | 0.0 | 0.0 | 0.00 | 0.05 | 0.05 | 94 | 1014.2 |
| 20260510035849 | 15 | 64 | 0.0 | 0.0 | 0.00 | 0.05 | 0.05 | 94 | 1014.2 |
| 20260510035750 | 15 | 64 | 0.0 | 0.0 | 0.00 | 0.05 | 0.05 | 94 | 1014.3 |
| 20260510035651 | 15 | 64 | 0.0 | 0.0 | 0.00 | 0.05 | 0.05 | 94 | 1014.3 |
| 20260510035552 | 15 | 64 | 0.0 | 0.0 | 0.00 | 0.05 | 0.05 | 94 | 1014.3 |
| 20260510035456 | 15 | 64 | 0.0 | 0.0 | 0.00 | 0.05 | 0.05 | 94 | 1014.3 |
| 20260510035357 | 15 | 64 | 0.0 | 0.0 | 0.00 | 0.05 | 0.05 | 94 | 1014.3 |
| 20260510035257 | 15 | 64 | 0.0 | 0.0 | 0.00 | 0.05 | 0.05 | 94 | 1014.3 |
| 20260510035157 | 15 | 64 | 0.0 | 0.0 | 0.00 | 0.05 | 0.05 | 94 | 1014.4 |
| 20260510035058 | 15 | 64 | 0.0 | 0.0 | 0.00 | 0.05 | 0.05 | 94 | 1014.4 |
| 20260510034959 | 15 | 64 | 0.0 | 0.0 | 0.00 | 0.05 | 0.05 | 94 | 1014.5 |
| 20260510034843 | 15 | 64 | 0.0 | 0.0 | 0.00 | 0.05 | 0.05 | 94 | 1014.4 |
| 20260510034803 | 15 | 64 | 0.0 | 0.0 | 0.00 | 0.05 | 0.05 | 94 | 1014.4 |
| 20260510034701 | 15 | 64 | 0.0 | 0.0 | 0.00 | 0.05 | 0.05 | 94 | 1014.4 |
| 20260510034541 | 15 | 64 | 0.0 | 0.0 | 0.00 | 0.05 | 0.05 | 94 | 1014.5 |
| 20260510034520 | 15 | 64 | 0.0 | 0.0 | 0.00 | 0.05 | 0.05 | 94 | 1014.0 |
| 20260510034442 | 15 | 64 | 0.0 | 0.0 | 0.00 | 0.05 | 0.05 | 94 | 1014.5 |
| 20260510034342 | 16 | 64 | 0.0 | 0.0 | 0.00 | 0.05 | 0.05 | 94 | 1014.5 |
| 20260510034302 | 16 | 64 | 0.0 | 0.0 | 0.00 | 0.05 | 0.05 | 94 | 1014.5 |
| 20260510034147 | 16 | 64 | 0.0 | 0.0 | 0.00 | 0.05 | 0.05 | 94 | 1014.5 |
| 20260510034048 | 16 | 64 | 0.0 | 0.0 | 0.00 | 0.05 | 0.05 | 94 | 1014.5 |
| 20260510033951 | 16 | 64 | 0.0 | 0.0 | 0.00 | 0.05 | 0.05 | 94 | 1014.4 |
| 20260510033852 | 16 | 64 | 0.0 | 0.0 | 0.00 | 0.05 | 0.05 | 94 | 1014.4 |
| 20260510033755 | 16 | 64 | 0.0 | 0.0 | 0.00 | 0.05 | 0.05 | 94 | 1014.4 |
| 20260510033655 | 16 | 64 | 0.0 | 0.0 | 0.00 | 0.05 | 0.05 | 94 | 1014.4 |
| 20260510033542 | 16 | 64 | 0.0 | 0.0 | 0.00 | 0.05 | 0.05 | 94 | 1014.3 |
| 20260510033503 | 16 | 64 | 0.0 | 0.0 | 0.00 | 0.05 | 0.05 | 94 | 1014.3 |
| 20260510033343 | 16 | 64 | 0.0 | 0.0 | 0.00 | 0.05 | 0.05 | 94 | 1014.3 |
| 20260510033243 | 16 | 64 | 0.0 | 0.0 | 0.00 | 0.05 | 0.05 | 94 | 1014.3 |
| 20260510033206 | 16 | 64 | 0.0 | 0.0 | 0.00 | 0.05 | 0.05 | 94 | 1014.3 |
| 20260510033131 | 15 | 64 | 0.0 | 0.0 | 0.00 | 0.05 | 0.05 | 94 | 1013.9 |
| 20260510033045 | 16 | 64 | 0.0 | 0.0 | 0.00 | 0.05 | 0.05 | 94 | 1014.3 |
| 20260510033005 | 16 | 64 | 0.0 | 0.0 | 0.00 | 0.05 | 0.05 | 94 | 1014.3 |
| 20260510032846 | 16 | 64 | 0.0 | 0.0 | 0.00 | 0.05 | 0.05 | 94 | 1014.3 |
| 20260510032752 | 16 | 64 | 0.0 | 0.0 | 0.00 | 0.05 | 0.05 | 94 | 1014.3 |
| 20260510032651 | 16 | 64 | 0.0 | 0.0 | 0.00 | 0.05 | 0.05 | 94 | 1014.3 |
| 20260510032613 | 16 | 64 | 0.0 | 0.0 | 0.00 | 0.05 | 0.05 | 94 | 1014.3 |
| 20260510032452 | 16 | 64 | 0.0 | 0.0 | 0.00 | 0.05 | 0.05 | 94 | 1014.3 |
| 20260510032353 | 16 | 64 | 0.0 | 0.0 | 0.00 | 0.05 | 0.05 | 94 | 1014.3 |
| 20260510032254 | 16 | 64 | 0.0 | 0.0 | 0.00 | 0.05 | 0.05 | 94 | 1014.2 |
| 20260510032155 | 16 | 64 | 0.0 | 0.0 | 0.00 | 0.05 | 0.05 | 94 | 1014.3 |
| 20260510032058 | 16 | 64 | 0.0 | 0.0 | 0.00 | 0.05 | 0.05 | 94 | 1014.2 |
| 20260510031957 | 16 | 64 | 0.0 | 0.0 | 0.00 | 0.05 | 0.05 | 94 | 1014.2 |
| 20260510031858 | 16 | 64 | 0.0 | 0.0 | 0.00 | 0.05 | 0.05 | 94 | 1014.2 |
| 20260510031758 | 16 | 64 | 0.0 | 0.0 | 0.00 | 0.05 | 0.05 | 94 | 1014.2 |
| 20260510031659 | 16 | 64 | 0.0 | 0.0 | 0.00 | 0.05 | 0.05 | 94 | 1014.2 |
| 20260510031641 | 15 | 64 | 0.0 | 0.0 | 0.00 | 0.05 | 0.05 | 94 | 1013.8 |
| 20260510031600 | 16 | 64 | 0.0 | 0.0 | 0.00 | 0.05 | 0.05 | 94 | 1014.3 |
| 20260510031521 | 16 | 64 | 0.0 | 0.0 | 0.00 | 0.05 | 0.05 | 94 | 1014.3 |
| 20260510031344 | 16 | 64 | 0.0 | 0.0 | 0.00 | 0.05 | 0.05 | 94 | 1014.3 |
| 20260510031245 | 16 | 64 | 0.0 | 0.0 | 0.00 | 0.05 | 0.05 | 94 | 1014.3 |
| 20260510031145 | 16 | 64 | 0.0 | 0.0 | 0.00 | 0.05 | 0.05 | 94 | 1014.3 |
| 20260510031044 | 16 | 64 | 0.0 | 0.0 | 0.00 | 0.05 | 0.05 | 94 | 1014.3 |
| 20260510030945 | 16 | 64 | 0.0 | 0.0 | 0.00 | 0.05 | 0.05 | 94 | 1014.3 |
| 20260510030906 | 16 | 64 | 0.0 | 0.0 | 0.00 | 0.05 | 0.05 | 94 | 1014.2 |
| 20260510030746 | 16 | 64 | 0.0 | 0.0 | 0.00 | 0.05 | 0.05 | 94 | 1014.3 |
| 20260510030652 | 16 | 64 | 0.0 | 0.0 | 0.00 | 0.05 | 0.05 | 94 | 1014.3 |
| 20260510030551 | 16 | 64 | 0.0 | 0.0 | 0.00 | 0.05 | 0.05 | 94 | 1014.2 |
| 20260510030452 | 16 | 64 | 0.0 | 0.0 | 0.00 | 0.05 | 0.05 | 93 | 1014.3 |
| 20260510030352 | 16 | 64 | 0.0 | 0.0 | 0.00 | 0.05 | 0.05 | 93 | 1014.3 |
| 20260510030253 | 16 | 64 | 0.0 | 0.0 | 0.00 | 0.05 | 0.05 | 93 | 1014.3 |
| 20260510030226 | 16 | 64 | 0.0 | 0.0 | 0.00 | 0.05 | 0.05 | 93 | 1014.3 |
| 20260510030019 | 16 | 64 | 0.0 | 0.0 | 0.00 | 0.05 | 0.05 | 93 | 1013.9 |
| 20260510025953 | 16 | 64 | 0.0 | 0.0 | 0.00 | 0.05 | 0.05 | 93 | 1014.3 |
| 20260510025853 | 16 | 64 | 0.0 | 0.0 | 0.00 | 0.05 | 0.05 | 93 | 1014.3 |
| 20260510025754 | 16 | 64 | 0.0 | 0.0 | 0.00 | 0.05 | 0.05 | 93 | 1014.3 |
| 20260510025656 | 16 | 64 | 0.0 | 0.0 | 0.00 | 0.05 | 0.05 | 93 | 1014.3 |
| 20260510025615 | 16 | 64 | 0.0 | 0.0 | 0.00 | 0.05 | 0.05 | 93 | 1014.3 |
| 20260510025454 | 16 | 64 | 0.0 | 0.0 | 0.00 | 0.05 | 0.05 | 93 | 1014.3 |
| 20260510025359 | 16 | 64 | 0.0 | 0.0 | 0.00 | 0.05 | 0.05 | 93 | 1014.3 |
| 20260510025240 | 16 | 64 | 0.0 | 0.0 | 0.00 | 0.05 | 0.05 | 93 | 1014.3 |
| 20260510025141 | 16 | 64 | 0.0 | 0.0 | 0.00 | 0.05 | 0.05 | 93 | 1014.3 |
| 20260510025103 | 16 | 64 | 0.0 | 0.0 | 0.00 | 0.05 | 0.05 | 93 | 1014.3 |
| 20260510024942 | 16 | 64 | 0.0 | 0.0 | 0.00 | 0.05 | 0.05 | 93 | 1014.3 |
| 20260510024843 | 16 | 64 | 0.0 | 0.0 | 0.00 | 0.05 | 0.05 | 93 | 1014.3 |
| 20260510024802 | 16 | 64 | 0.0 | 0.0 | 0.00 | 0.05 | 0.05 | 93 | 1014.3 |
| 20260510024706 | 16 | 64 | 0.0 | 0.0 | 0.00 | 0.05 | 0.05 | 93 | 1014.2 |
| 20260510024602 | 16 | 64 | 0.0 | 0.0 | 0.00 | 0.05 | 0.05 | 93 | 1013.8 |
| 20260510024546 | 16 | 64 | 0.0 | 0.0 | 0.00 | 0.05 | 0.05 | 93 | 1014.2 |
| 20260510024507 | 16 | 64 | 0.0 | 0.0 | 0.00 | 0.05 | 0.05 | 93 | 1014.2 |
| 20260510024348 | 16 | 64 | 0.0 | 0.0 | 0.00 | 0.05 | 0.05 | 93 | 1014.2 |
| 20260510024248 | 16 | 64 | 0.0 | 0.0 | 0.00 | 0.05 | 0.05 | 93 | 1014.2 |
| 20260510024209 | 16 | 64 | 0.0 | 0.0 | 0.00 | 0.05 | 0.05 | 93 | 1014.2 |
| 20260510024107 | 16 | 64 | 0.0 | 0.0 | 0.00 | 0.05 | 0.05 | 93 | 1014.2 |
| 20260510023948 | 16 | 64 | 0.0 | 0.0 | 0.00 | 0.05 | 0.05 | 93 | 1014.3 |
| 20260510023852 | 16 | 64 | 0.0 | 0.0 | 0.00 | 0.05 | 0.05 | 93 | 1014.3 |
| 20260510023813 | 16 | 64 | 0.0 | 0.0 | 0.00 | 0.05 | 0.05 | 93 | 1014.3 |
| 20260510023653 | 16 | 64 | 0.0 | 0.0 | 0.00 | 0.05 | 0.05 | 93 | 1014.2 |
| 20260510023554 | 16 | 64 | 0.0 | 0.0 | 0.00 | 0.05 | 0.05 | 93 | 1014.2 |
| 20260510023515 | 16 | 64 | 0.0 | 0.0 | 0.00 | 0.05 | 0.05 | 93 | 1014.2 |
| 20260510023354 | 16 | 64 | 0.0 | 0.0 | 0.00 | 0.05 | 0.05 | 93 | 1014.2 |
| 20260510023255 | 16 | 64 | 0.0 | 0.0 | 0.00 | 0.05 | 0.05 | 93 | 1014.2 |
| 20260510023217 | 16 | 64 | 0.0 | 0.0 | 0.00 | 0.05 | 0.05 | 93 | 1014.1 |
| 20260510023142 | 16 | 64 | 0.0 | 0.0 | 0.00 | 0.05 | 0.05 | 93 | 1013.6 |
| 20260510023116 | 16 | 64 | 0.0 | 0.0 | 0.00 | 0.05 | 0.05 | 93 | 1014.1 |
| 20260510023020 | 16 | 64 | 0.0 | 0.0 | 0.00 | 0.05 | 0.05 | 93 | 1014.1 |
| 20260510022859 | 16 | 64 | 0.0 | 0.0 | 0.00 | 0.05 | 0.05 | 93 | 1014.1 |
| 20260510022740 | 16 | 64 | 0.0 | 0.0 | 0.00 | 0.05 | 0.05 | 93 | 1014.0 |
| 20260510022641 | 16 | 64 | 0.0 | 0.0 | 0.00 | 0.05 | 0.05 | 93 | 1014.0 |
| 20260510022602 | 16 | 64 | 0.0 | 0.0 | 0.00 | 0.05 | 0.05 | 93 | 1014.0 |
| 20260510022442 | 16 | 64 | 0.0 | 0.0 | 0.00 | 0.05 | 0.05 | 93 | 1014.0 |
| 20260510022404 | 16 | 64 | 0.0 | 0.0 | 0.00 | 0.05 | 0.05 | 92 | 1014.1 |
| 20260510022247 | 16 | 64 | 0.0 | 0.0 | 0.00 | 0.05 | 0.05 | 92 | 1014.1 |
| 20260510022148 | 16 | 64 | 0.0 | 0.0 | 0.00 | 0.05 | 0.05 | 92 | 1014.0 |
| 20260510022049 | 16 | 64 | 0.0 | 0.0 | 0.00 | 0.05 | 0.05 | 92 | 1014.0 |
| 20260510022010 | 16 | 64 | 0.0 | 0.0 | 0.00 | 0.05 | 0.05 | 92 | 1014.0 |
| 20260510021911 | 16 | 64 | 0.0 | 0.0 | 0.00 | 0.05 | 0.05 | 92 | 1014.1 |
| 20260510021751 | 16 | 64 | 0.0 | 0.0 | 0.00 | 0.05 | 0.05 | 92 | 1014.1 |
| 20260510021710 | 16 | 64 | 0.0 | 0.0 | 0.00 | 0.05 | 0.05 | 92 | 1014.1 |
| 20260510021606 | 16 | 64 | 0.0 | 0.0 | 0.00 | 0.05 | 0.05 | 92 | 1013.6 |
| 20260510021549 | 16 | 64 | 0.0 | 0.0 | 0.00 | 0.05 | 0.05 | 92 | 1014.1 |
| 20260510021453 | 16 | 64 | 0.0 | 0.0 | 0.00 | 0.05 | 0.05 | 92 | 1014.2 |
| 20260510021353 | 16 | 64 | 0.0 | 0.0 | 0.00 | 0.05 | 0.05 | 92 | 1014.1 |
| 20260510021254 | 16 | 64 | 0.0 | 0.0 | 0.00 | 0.05 | 0.05 | 92 | 1014.1 |
| 20260510021155 | 16 | 64 | 0.0 | 0.0 | 0.00 | 0.05 | 0.05 | 92 | 1014.1 |
| 20260510021056 | 16 | 64 | 0.0 | 0.0 | 0.00 | 0.05 | 0.05 | 92 | 1014.1 |
| 20260510020957 | 16 | 64 | 0.0 | 0.0 | 0.00 | 0.05 | 0.05 | 92 | 1014.1 |
| 20260510020842 | 16 | 64 | 0.0 | 0.0 | 0.00 | 0.05 | 0.05 | 92 | 1014.1 |
| 20260510020743 | 16 | 64 | 0.0 | 0.0 | 0.00 | 0.05 | 0.05 | 92 | 1014.1 |
| 20260510020705 | 16 | 64 | 0.0 | 0.0 | 0.00 | 0.05 | 0.05 | 92 | 1014.0 |
| 20260510020544 | 16 | 64 | 0.0 | 0.0 | 0.00 | 0.05 | 0.05 | 92 | 1014.1 |
| 20260510020505 | 16 | 64 | 0.0 | 0.0 | 0.00 | 0.05 | 0.05 | 92 | 1014.0 |
| 20260510020344 | 16 | 64 | 0.0 | 0.0 | 0.00 | 0.05 | 0.05 | 92 | 1014.0 |
| 20260510020245 | 16 | 64 | 0.0 | 0.0 | 0.00 | 0.05 | 0.05 | 92 | 1014.0 |
| 20260510020218 | 16 | 64 | 0.0 | 0.0 | 0.00 | 0.05 | 0.05 | 92 | 1014.0 |
| 20260510015946 | 17 | 64 | 0.0 | 0.0 | 0.00 | 0.05 | 0.05 | 92 | 1013.9 |
| 20260510015905 | 17 | 64 | 0.0 | 0.0 | 0.00 | 0.05 | 0.05 | 92 | 1013.9 |
| 20260510015743 | 17 | 64 | 0.0 | 0.0 | 0.00 | 0.05 | 0.05 | 92 | 1013.9 |
| 20260510015643 | 17 | 64 | 0.0 | 0.0 | 0.00 | 0.05 | 0.05 | 92 | 1013.9 |
| 20260510015544 | 17 | 64 | 0.0 | 0.0 | 0.00 | 0.05 | 0.05 | 92 | 1013.9 |
| 20260510015449 | 17 | 64 | 0.0 | 0.0 | 0.00 | 0.05 | 0.05 | 92 | 1013.8 |
| 20260510015350 | 17 | 64 | 0.0 | 0.0 | 0.00 | 0.05 | 0.05 | 92 | 1013.8 |
| 20260510015251 | 17 | 64 | 0.0 | 0.0 | 0.00 | 0.05 | 0.05 | 91 | 1013.8 |
| 20260510015211 | 17 | 64 | 0.0 | 0.0 | 0.00 | 0.05 | 0.05 | 91 | 1013.7 |
| 20260510015049 | 17 | 64 | 0.0 | 0.0 | 0.00 | 0.05 | 0.05 | 91 | 1013.7 |
| 20260510014950 | 17 | 64 | 0.0 | 0.0 | 0.00 | 0.05 | 0.05 | 91 | 1013.7 |
| 20260510014851 | 17 | 64 | 0.0 | 0.0 | 0.00 | 0.05 | 0.05 | 91 | 1013.7 |
| 20260510014756 | 17 | 64 | 0.0 | 0.0 | 0.00 | 0.05 | 0.05 | 91 | 1013.7 |
| 20260510014657 | 17 | 64 | 0.0 | 0.0 | 0.00 | 0.05 | 0.05 | 92 | 1013.7 |
| 20260510014618 | 16 | 64 | 0.0 | 0.0 | 0.00 | 0.05 | 0.05 | 92 | 1013.2 |
| 20260510014558 | 17 | 64 | 0.0 | 0.0 | 0.00 | 0.05 | 0.05 | 92 | 1013.7 |
| 20260510014519 | 17 | 64 | 0.0 | 0.0 | 0.00 | 0.05 | 0.05 | 92 | 1013.7 |
| 20260510014358 | 17 | 64 | 0.0 | 0.0 | 0.00 | 0.05 | 0.05 | 92 | 1013.7 |
| 20260510014300 | 17 | 64 | 0.0 | 0.0 | 0.00 | 0.05 | 0.05 | 92 | 1013.6 |
| 20260510014159 | 17 | 64 | 0.0 | 0.0 | 0.00 | 0.05 | 0.05 | 91 | 1013.6 |
| 20260510014044 | 17 | 64 | 0.0 | 0.0 | 0.00 | 0.05 | 0.05 | 91 | 1013.6 |
| 20260510013945 | 17 | 64 | 0.0 | 0.0 | 0.00 | 0.05 | 0.05 | 91 | 1013.7 |
| 20260510013846 | 17 | 64 | 0.0 | 0.0 | 0.00 | 0.05 | 0.05 | 91 | 1013.6 |
| 20260510013747 | 17 | 64 | 0.0 | 0.0 | 0.00 | 0.05 | 0.05 | 91 | 1013.6 |
| 20260510013648 | 17 | 64 | 0.0 | 0.0 | 0.00 | 0.05 | 0.05 | 91 | 1013.6 |
| 20260510013548 | 17 | 64 | 0.0 | 0.0 | 0.00 | 0.05 | 0.05 | 91 | 1013.6 |
| 20260510013451 | 17 | 64 | 0.0 | 0.0 | 0.00 | 0.05 | 0.05 | 91 | 1013.5 |
| 20260510013413 | 17 | 64 | 0.0 | 0.0 | 0.00 | 0.05 | 0.05 | 91 | 1013.5 |
| 20260510013253 | 17 | 64 | 0.0 | 0.0 | 0.00 | 0.05 | 0.05 | 91 | 1013.5 |
| 20260510013152 | 17 | 64 | 0.0 | 0.0 | 0.00 | 0.05 | 0.05 | 91 | 1013.5 |
| 20260510013053 | 17 | 64 | 0.0 | 0.0 | 0.00 | 0.05 | 0.05 | 91 | 1013.5 |
| 20260510013024 | 17 | 64 | 0.0 | 0.0 | 0.00 | 0.05 | 0.05 | 91 | 1013.0 |
| 20260510012954 | 17 | 64 | 0.0 | 0.0 | 0.00 | 0.05 | 0.05 | 91 | 1013.4 |
| 20260510012854 | 17 | 64 | 0.0 | 0.0 | 0.00 | 0.05 | 0.05 | 91 | 1013.4 |
| 20260510012758 | 17 | 64 | 0.0 | 0.0 | 0.00 | 0.05 | 0.05 | 90 | 1013.4 |
| 20260510012658 | 17 | 64 | 0.0 | 0.0 | 0.00 | 0.05 | 0.05 | 90 | 1013.4 |
| 20260510012559 | 17 | 64 | 0.0 | 0.0 | 0.00 | 0.05 | 0.05 | 90 | 1013.4 |
| 20260510012459 | 17 | 64 | 0.0 | 0.0 | 0.00 | 0.05 | 0.05 | 90 | 1013.3 |
| 20260510012358 | 17 | 64 | 0.0 | 0.0 | 0.00 | 0.05 | 0.05 | 90 | 1013.3 |
| 20260510012259 | 17 | 64 | 0.0 | 0.0 | 0.00 | 0.05 | 0.05 | 90 | 1013.2 |
| 20260510012143 | 17 | 64 | 0.0 | 0.0 | 0.00 | 0.05 | 0.05 | 89 | 1013.2 |
| 20260510012044 | 17 | 64 | 0.0 | 0.0 | 0.00 | 0.05 | 0.05 | 89 | 1013.3 |
| 20260510011945 | 17 | 64 | 0.0 | 0.0 | 0.00 | 0.05 | 0.05 | 89 | 1013.2 |
| 20260510011844 | 17 | 64 | 0.0 | 0.0 | 0.00 | 0.05 | 0.05 | 89 | 1013.1 |
| 20260510011745 | 17 | 64 | 0.0 | 0.0 | 0.00 | 0.05 | 0.05 | 89 | 1013.1 |
| 20260510011646 | 17 | 64 | 0.0 | 0.0 | 0.00 | 0.05 | 0.05 | 89 | 1013.1 |
| 20260510011546 | 17 | 64 | 0.0 | 0.0 | 0.00 | 0.05 | 0.05 | 89 | 1013.1 |
| 20260510011533 | 17 | 64 | 0.0 | 0.0 | 0.00 | 0.05 | 0.05 | 89 | 1012.7 |
| 20260510011511 | 17 | 64 | 0.0 | 0.0 | 0.00 | 0.05 | 0.05 | 89 | 1013.1 |
| 20260510011351 | 17 | 64 | 0.0 | 0.0 | 0.00 | 0.05 | 0.05 | 89 | 1013.2 |
| 20260510011251 | 17 | 64 | 0.0 | 0.0 | 0.00 | 0.05 | 0.05 | 89 | 1013.2 |
| 20260510011152 | 17 | 64 | 0.0 | 0.0 | 0.00 | 0.05 | 0.05 | 89 | 1013.2 |
| 20260510011053 | 17 | 64 | 0.0 | 0.0 | 0.00 | 0.05 | 0.05 | 89 | 1013.2 |
| 20260510010953 | 17 | 64 | 0.0 | 0.0 | 0.00 | 0.05 | 0.05 | 89 | 1013.2 |
| 20260510010913 | 18 | 64 | 0.0 | 0.0 | 0.00 | 0.05 | 0.05 | 89 | 1013.2 |
| 20260510010753 | 18 | 64 | 0.0 | 0.0 | 0.00 | 0.05 | 0.05 | 89 | 1013.2 |
| 20260510010658 | 18 | 64 | 0.0 | 0.0 | 0.00 | 0.05 | 0.05 | 89 | 1013.1 |
| 20260510010559 | 18 | 64 | 0.0 | 0.0 | 0.00 | 0.05 | 0.05 | 89 | 1013.1 |
| 20260510010458 | 18 | 64 | 0.0 | 0.0 | 0.00 | 0.05 | 0.05 | 88 | 1013.1 |
| 20260510010357 | 18 | 64 | 0.0 | 0.0 | 0.00 | 0.05 | 0.05 | 88 | 1013.1 |
| 20260510010318 | 18 | 64 | 0.0 | 0.0 | 0.00 | 0.05 | 0.05 | 88 | 1013.2 |
| 20260510010224 | 18 | 64 | 0.0 | 0.0 | 0.00 | 0.05 | 0.05 | 88 | 1013.2 |
| 20260510010014 | 18 | 64 | 0.0 | 0.0 | 0.00 | 0.05 | 0.05 | 88 | 1012.6 |
| 20260510005955 | 18 | 64 | 0.0 | 0.0 | 0.00 | 0.05 | 0.05 | 88 | 1013.0 |
| 20260510005856 | 18 | 64 | 0.0 | 0.0 | 0.00 | 0.05 | 0.05 | 88 | 1013.0 |
| 20260510005756 | 18 | 64 | 0.0 | 0.0 | 0.00 | 0.05 | 0.05 | 89 | 1013.0 |
| 20260510005657 | 18 | 64 | 0.0 | 0.0 | 0.00 | 0.05 | 0.05 | 89 | 1013.1 |
| 20260510005618 | 18 | 64 | 0.0 | 0.0 | 0.00 | 0.05 | 0.05 | 89 | 1013.0 |
| 20260510005518 | 18 | 64 | 0.0 | 0.0 | 0.00 | 0.05 | 0.05 | 88 | 1013.0 |
| 20260510005358 | 18 | 64 | 0.0 | 0.0 | 0.00 | 0.05 | 0.05 | 88 | 1013.0 |
| 20260510005244 | 18 | 64 | 0.0 | 0.0 | 0.00 | 0.05 | 0.05 | 88 | 1012.9 |
| 20260510005143 | 18 | 64 | 0.0 | 0.0 | 0.00 | 0.05 | 0.05 | 88 | 1012.9 |
| 20260510005044 | 18 | 64 | 0.0 | 0.0 | 0.00 | 0.05 | 0.05 | 88 | 1012.8 |
| 20260510005005 | 18 | 64 | 0.0 | 0.0 | 0.00 | 0.05 | 0.05 | 88 | 1012.7 |
| 20260510004903 | 18 | 64 | 0.0 | 0.0 | 0.00 | 0.05 | 0.05 | 88 | 1012.7 |
| 20260510004743 | 18 | 64 | 0.0 | 0.0 | 0.00 | 0.05 | 0.05 | 88 | 1012.7 |
| 20260510004644 | 18 | 64 | 0.0 | 0.0 | 0.00 | 0.05 | 0.05 | 88 | 1012.6 |
| 20260510004604 | 18 | 64 | 0.0 | 0.0 | 0.00 | 0.05 | 0.05 | 88 | 1012.1 |
| 20260510004548 | 18 | 64 | 0.0 | 0.0 | 0.00 | 0.05 | 0.05 | 88 | 1012.6 |
| 20260510004449 | 18 | 64 | 0.0 | 0.0 | 0.00 | 0.05 | 0.05 | 88 | 1012.6 |
| 20260510004410 | 18 | 64 | 0.0 | 0.0 | 0.00 | 0.05 | 0.05 | 88 | 1012.6 |
| 20260510004249 | 18 | 64 | 0.0 | 0.0 | 0.00 | 0.05 | 0.05 | 88 | 1012.5 |
| 20260510004150 | 18 | 64 | 0.0 | 0.0 | 0.00 | 0.05 | 0.05 | 88 | 1012.6 |
| 20260510004051 | 18 | 64 | 0.0 | 0.0 | 0.00 | 0.05 | 0.05 | 88 | 1012.5 |
| 20260510004012 | 18 | 64 | 0.0 | 0.0 | 0.00 | 0.05 | 0.05 | 88 | 1012.4 |
| 20260510003852 | 18 | 64 | 0.0 | 0.0 | 0.00 | 0.05 | 0.05 | 88 | 1012.4 |
| 20260510003756 | 18 | 64 | 0.0 | 0.0 | 0.00 | 0.05 | 0.05 | 87 | 1012.4 |
| 20260510003657 | 18 | 64 | 0.0 | 0.0 | 0.00 | 0.05 | 0.05 | 88 | 1012.4 |
| 20260510003558 | 18 | 64 | 0.0 | 0.0 | 0.00 | 0.05 | 0.05 | 88 | 1012.3 |
| 20260510003459 | 18 | 64 | 0.0 | 0.0 | 0.00 | 0.05 | 0.05 | 88 | 1012.3 |
| 20260510003340 | 18 | 64 | 0.0 | 0.0 | 0.00 | 0.05 | 0.05 | 88 | 1012.3 |
| 20260510003241 | 18 | 64 | 0.0 | 0.0 | 0.00 | 0.05 | 0.05 | 87 | 1012.3 |
| 20260510003146 | 18 | 64 | 0.0 | 0.0 | 0.00 | 0.05 | 0.05 | 87 | 1012.3 |
| 20260510003122 | 18 | 64 | 0.0 | 0.0 | 0.00 | 0.05 | 0.05 | 87 | 1011.9 |
| 20260510003107 | 18 | 64 | 0.0 | 0.0 | 0.00 | 0.05 | 0.05 | 87 | 1012.3 |
| 20260510002946 | 18 | 64 | 0.0 | 0.0 | 0.00 | 0.05 | 0.05 | 88 | 1012.3 |
| 20260510002847 | 18 | 64 | 0.0 | 0.0 | 0.00 | 0.05 | 0.05 | 88 | 1012.2 |
| 20260510002746 | 18 | 64 | 0.0 | 0.0 | 0.00 | 0.05 | 0.05 | 88 | 1012.2 |
| 20260510002647 | 18 | 63 | 0.0 | 0.0 | 0.00 | 0.05 | 0.05 | 88 | 1012.3 |
| 20260510002548 | 18 | 63 | 0.0 | 0.0 | 0.00 | 0.05 | 0.05 | 88 | 1012.3 |
| 20260510002453 | 18 | 63 | 0.0 | 0.0 | 0.00 | 0.05 | 0.05 | 88 | 1012.2 |
| 20260510002413 | 18 | 63 | 0.0 | 0.0 | 0.00 | 0.05 | 0.05 | 88 | 1012.2 |
| 20260510002254 | 18 | 63 | 0.0 | 0.0 | 0.00 | 0.05 | 0.05 | 88 | 1012.2 |
| 20260510002153 | 18 | 63 | 0.0 | 0.0 | 0.00 | 0.05 | 0.05 | 88 | 1012.2 |
| 20260510002114 | 18 | 63 | 0.0 | 0.0 | 0.00 | 0.05 | 0.05 | 88 | 1012.2 |
| 20260510002014 | 18 | 63 | 0.0 | 0.0 | 0.00 | 0.05 | 0.05 | 88 | 1012.2 |
| 20260510001854 | 18 | 63 | 0.0 | 0.0 | 0.00 | 0.05 | 0.05 | 88 | 1012.2 |
| 20260510001756 | 18 | 63 | 0.0 | 0.0 | 0.00 | 0.05 | 0.05 | 88 | 1012.2 |
| 20260510001719 | 18 | 63 | 0.0 | 0.0 | 0.00 | 0.05 | 0.05 | 88 | 1012.2 |
| 20260510001622 | 18 | 63 | 0.0 | 0.0 | 0.00 | 0.05 | 0.05 | 88 | 1011.8 |
| 20260510001558 | 18 | 63 | 0.0 | 0.0 | 0.00 | 0.05 | 0.05 | 88 | 1012.3 |
| 20260510001454 | 19 | 63 | 0.0 | 0.0 | 0.00 | 0.05 | 0.05 | 88 | 1012.3 |
| 20260510001415 | 19 | 63 | 0.0 | 0.0 | 0.00 | 0.05 | 0.05 | 88 | 1012.3 |
| 20260510001255 | 19 | 63 | 0.0 | 0.0 | 0.00 | 0.05 | 0.05 | 87 | 1012.3 |
| 20260510001155 | 19 | 63 | 0.0 | 0.0 | 0.00 | 0.05 | 0.05 | 87 | 1012.3 |
| 20260510001056 | 19 | 63 | 0.0 | 0.0 | 0.00 | 0.05 | 0.05 | 87 | 1012.3 |
| 20260510000941 | 19 | 63 | 0.0 | 0.0 | 0.00 | 0.05 | 0.05 | 87 | 1012.2 |
| 20260510000902 | 19 | 63 | 0.0 | 0.0 | 0.00 | 0.05 | 0.05 | 87 | 1012.2 |
| 20260510000740 | 19 | 63 | 0.0 | 0.0 | 0.00 | 0.05 | 0.05 | 87 | 1012.2 |
| 20260510000641 | 19 | 63 | 0.0 | 0.0 | 0.00 | 0.05 | 0.05 | 87 | 1012.2 |
| 20260510000542 | 19 | 63 | 0.0 | 0.0 | 0.00 | 0.05 | 0.05 | 87 | 1012.2 |
| 20260510000443 | 19 | 63 | 0.0 | 0.0 | 0.00 | 0.05 | 0.05 | 87 | 1012.2 |
| 20260510000343 | 19 | 59 | 0.0 | 0.0 | 0.00 | 0.05 | 0.05 | 87 | 1012.2 |
| 20260510000306 | 19 | 59 | 0.0 | 0.0 | 0.00 | 0.05 | 0.05 | 87 | 1012.2 |
| 20260510000235 | 19 | 59 | 0.0 | 0.0 | 0.00 | 0.05 | 0.05 | 87 | 1012.2 |
| 20260510000002 | 19 | 59 | 0.0 | 0.0 | 0.00 | 0.05 | 0.05 | 87 | 1011.7 |
| 20260509235942 | 19 | 59 | 0.0 | 0.0 | 0.00 | 0.05 | 0.05 | 87 | 1012.1 |
| 20260509235843 | 19 | 59 | 0.0 | 0.0 | 0.00 | 0.05 | 0.05 | 87 | 1012.1 |
| 20260509235744 | 19 | 59 | 0.0 | 0.0 | 0.00 | 0.05 | 0.05 | 86 | 1012.1 |
| 20260509235644 | 19 | 59 | 0.0 | 0.0 | 0.00 | 0.05 | 0.05 | 86 | 1012.0 |
| 20260509235549 | 19 | 59 | 0.0 | 0.0 | 0.00 | 0.05 | 0.05 | 86 | 1012.0 |
| 20260509235509 | 19 | 59 | 0.0 | 0.0 | 0.00 | 0.05 | 0.05 | 86 | 1012.0 |
| 20260509235347 | 19 | 59 | 0.0 | 0.0 | 0.00 | 0.05 | 0.05 | 86 | 1012.0 |
| 20260509235308 | 20 | 59 | 0.0 | 0.0 | 0.00 | 0.05 | 0.05 | 86 | 1012.0 |
| 20260509235208 | 20 | 59 | 0.0 | 0.0 | 0.00 | 0.05 | 0.05 | 85 | 1012.0 |
| 20260509235047 | 20 | 59 | 0.0 | 0.0 | 0.00 | 0.05 | 0.05 | 85 | 1012.0 |
| 20260509234947 | 20 | 59 | 0.0 | 0.0 | 0.00 | 0.05 | 0.05 | 85 | 1012.0 |
| 20260509234848 | 20 | 59 | 0.0 | 0.0 | 0.00 | 0.05 | 0.05 | 85 | 1012.0 |
| 20260509234753 | 20 | 59 | 0.0 | 0.0 | 0.00 | 0.05 | 0.05 | 85 | 1012.0 |
| 20260509234655 | 20 | 59 | 0.0 | 0.0 | 0.00 | 0.05 | 0.05 | 85 | 1012.0 |
| 20260509234608 | 19 | 59 | 0.0 | 0.0 | 0.00 | 0.05 | 0.05 | 85 | 1011.5 |
| 20260509234554 | 20 | 59 | 0.0 | 0.0 | 0.00 | 0.05 | 0.05 | 85 | 1012.0 |
| 20260509234514 | 20 | 59 | 0.0 | 0.0 | 0.00 | 0.05 | 0.05 | 85 | 1011.9 |
| 20260509234354 | 20 | 59 | 0.0 | 0.0 | 0.00 | 0.05 | 0.05 | 85 | 1011.9 |
| 20260509234255 | 20 | 59 | 0.0 | 0.0 | 0.00 | 0.05 | 0.05 | 84 | 1011.9 |
| 20260509234155 | 20 | 59 | 0.0 | 0.0 | 0.00 | 0.05 | 0.05 | 84 | 1011.9 |
| 20260509234119 | 20 | 59 | 0.0 | 0.0 | 0.00 | 0.05 | 0.05 | 84 | 1011.9 |
| 20260509233957 | 20 | 59 | 0.0 | 0.0 | 0.00 | 0.05 | 0.05 | 84 | 1011.9 |
| 20260509233859 | 20 | 59 | 0.0 | 0.0 | 0.00 | 0.05 | 0.05 | 84 | 1011.9 |
| 20260509233800 | 20 | 163 | 0.0 | 0.0 | 0.00 | 0.05 | 0.05 | 84 | 1011.9 |
| 20260509233721 | 20 | 163 | 0.0 | 0.0 | 0.00 | 0.05 | 0.05 | 84 | 1011.9 |
| 20260509233600 | 20 | 163 | 0.0 | 0.0 | 0.00 | 0.05 | 0.05 | 84 | 1011.9 |
| 20260509233459 | 20 | 163 | 0.0 | 0.0 | 0.00 | 0.05 | 0.05 | 84 | 1011.9 |
| 20260509233343 | 20 | 163 | 0.0 | 0.0 | 0.00 | 0.05 | 0.05 | 84 | 1011.9 |
| 20260509233244 | 20 | 161 | 0.0 | 0.0 | 0.00 | 0.05 | 0.05 | 84 | 1012.0 |
| 20260509233205 | 20 | 161 | 0.0 | 0.0 | 0.00 | 0.05 | 0.05 | 84 | 1012.0 |
| 20260509233106 | 20 | 161 | 0.0 | 0.0 | 0.00 | 0.05 | 0.05 | 84 | 1011.5 |
| 20260509233043 | 20 | 161 | 0.0 | 0.0 | 0.00 | 0.05 | 0.05 | 84 | 1012.0 |
| 20260509232944 | 20 | 161 | 0.0 | 0.0 | 0.00 | 0.05 | 0.05 | 84 | 1012.0 |
| 20260509232844 | 20 | 161 | 0.0 | 0.0 | 0.00 | 0.05 | 0.05 | 83 | 1012.0 |
| 20260509232745 | 20 | 161 | 0.0 | 0.0 | 0.00 | 0.05 | 0.05 | 83 | 1012.0 |
| 20260509232646 | 20 | 161 | 0.0 | 0.0 | 0.00 | 0.05 | 0.05 | 83 | 1012.0 |
| 20260509232612 | 20 | 161 | 0.0 | 0.0 | 0.00 | 0.05 | 0.05 | 82 | 1012.0 |
| 20260509232451 | 20 | 161 | 0.0 | 0.0 | 0.00 | 0.05 | 0.05 | 82 | 1012.0 |
| 20260509232352 | 20 | 161 | 0.0 | 0.0 | 0.00 | 0.05 | 0.05 | 82 | 1012.1 |
| 20260509232253 | 20 | 161 | 0.0 | 0.0 | 0.00 | 0.05 | 0.05 | 82 | 1012.1 |
| 20260509232214 | 20 | 161 | 0.0 | 0.0 | 0.00 | 0.05 | 0.05 | 82 | 1012.1 |
| 20260509232113 | 20 | 161 | 0.0 | 0.0 | 0.00 | 0.05 | 0.05 | 81 | 1012.1 |
| 20260509231952 | 20 | 161 | 0.0 | 0.0 | 0.00 | 0.05 | 0.05 | 81 | 1012.0 |
| 20260509231852 | 20 | 161 | 0.0 | 0.0 | 0.00 | 0.05 | 0.05 | 81 | 1012.0 |
| 20260509231755 | 20 | 161 | 0.0 | 0.0 | 0.00 | 0.05 | 0.05 | 81 | 1011.9 |
| 20260509231656 | 20 | 161 | 0.0 | 0.0 | 0.00 | 0.05 | 0.05 | 81 | 1012.0 |
| 20260509231634 | 20 | 161 | 0.0 | 0.0 | 0.00 | 0.05 | 0.05 | 81 | 1011.5 |
| 20260509231556 | 21 | 161 | 0.0 | 0.0 | 0.00 | 0.05 | 0.05 | 81 | 1012.0 |
| 20260509231517 | 21 | 161 | 0.0 | 0.0 | 0.00 | 0.05 | 0.05 | 81 | 1012.0 |
| 20260509231416 | 21 | 161 | 0.0 | 0.0 | 0.00 | 0.05 | 0.05 | 81 | 1012.1 |
| 20260509231256 | 21 | 161 | 0.0 | 0.0 | 0.00 | 0.05 | 0.05 | 81 | 1012.0 |
| 20260509231157 | 21 | 161 | 0.0 | 0.0 | 0.00 | 0.05 | 0.05 | 81 | 1011.9 |
| 20260509231043 | 21 | 161 | 0.0 | 0.0 | 0.00 | 0.05 | 0.05 | 81 | 1011.9 |
| 20260509230945 | 21 | 161 | 0.0 | 0.0 | 0.00 | 0.05 | 0.05 | 81 | 1011.9 |
| 20260509230846 | 21 | 161 | 0.0 | 0.0 | 0.00 | 0.05 | 0.05 | 81 | 1011.9 |
| 20260509230747 | 21 | 161 | 0.0 | 0.0 | 0.00 | 0.05 | 0.05 | 80 | 1011.9 |
| 20260509230647 | 21 | 161 | 0.0 | 0.0 | 0.00 | 0.05 | 0.05 | 81 | 1011.9 |
| 20260509230613 | 21 | 161 | 0.0 | 0.0 | 0.00 | 0.05 | 0.05 | 80 | 1011.9 |
| 20260509230344 | 21 | 161 | 0.0 | 0.0 | 0.00 | 0.05 | 0.05 | 79 | 1011.9 |
| 20260509230250 | 21 | 161 | 0.0 | 0.0 | 0.00 | 0.05 | 0.05 | 79 | 1011.9 |
| 20260509230215 | 21 | 161 | 0.0 | 0.0 | 0.00 | 0.05 | 0.05 | 79 | 1011.8 |
| 20260509230005 | 21 | 180 | 0.0 | 0.0 | 0.00 | 0.05 | 0.05 | 80 | 1011.8 |
| 20260509225845 | 21 | 182 | 0.0 | 0.0 | 0.00 | 0.05 | 0.05 | 79 | 1011.8 |